     2.11           OBSERVATION DATA    G (GPS)             RINEX VERSION / TYPE
teqc 2010Oct21 OPUS Account 20111025 20:24:19UTC            PGM / RUN BY / DATE
3233                                                        MARKER NAME
1136                                                        MARKER NUMBER
CSMIDDLETON NGS                                             OBSERVER / AGENCY
4624K01634 TRIMBLE NETR5 3.64                               REC # / TYPE / VERS
12611996 TRM41249.00 NONE                                   ANT # / TYPE
  -739324.7723 -5479422.8299  3169263.8192                  APPROX POSITION XYZ
        2.0000        0.0000        0.0000                  ANTENNA: DELTA H/E/N
     1     1                                                WAVELENGTH FACT L1/2
     5    L1    L2    C1    P1    P2                        # / TYPES OF OBSERV
    15                                                      LEAP SECONDS
  2011     7    29     0     0    0.0000000     GPS         TIME OF FIRST OBS
                                                            END OF HEADER
 11  7 29  0  0  0.0000000  0  8G17G28G10G09G04G20G27G02
 -16412326.312 8 -12742166.777 7  21422489.078
 -14990221.20148 -11642532.19245  21881737.5784                   21881737.4144
  -6202564.35547  -4789795.10744  23421854.5314                   23421856.9924
 -10939718.33747  -8480196.71745  22146856.4384                   22146856.6804
 -25199678.69448 -19585719.28246  19896401.2894                   19896401.1684
  -1334556.70246  -1006164.92743  24268800.2734                   24268800.9774
 -14832574.98447 -11512989.60545  22405803.3054                   22405804.2504
 -12842028.26848  -9959996.30545  22229499.9384                   22229499.0394
 11  7 29  0  0 30.0000000  0  8G17G28G10G09G04G20G27G02
 -16380731.129 8 -12717547.170 7  21428501.625
 -14937155.51247 -11601182.33145  21891835.8754                   21891835.1414
  -6295927.60847  -4862545.55244  23404088.1414                   23404090.8244
 -10962957.27447  -8498304.96845  22142433.9614                   22142434.2464
 -25210056.01448 -19593805.49146  19894426.5394                   19894426.4884
  -1296182.00946   -976262.58643  24276101.8834                   24276103.2624
 -14839654.05547 -11518505.76145  22404455.9924                   22404457.0554
 -12919650.41748 -10020481.03345  22214728.6724                   22214727.5864
 11  7 29  0  1  0.0000000  0  8G17G28G10G09G04G20G27G02
 -16349043.513 8 -12692855.524 7  21434531.086
 -14883716.43247 -11559541.52945  21902005.2344                   21902004.7154
  -6389222.50147  -4935242.74744  23386334.7034                   23386337.4574
 -10985557.26047  -8515915.33945  22138133.5164                   22138134.3484
 -25219862.38048 -19601446.80646  19892560.7344                   19892560.6214
  -1257317.55846   -945978.59343  24283498.3984                   24283498.6804
 -14846241.08447 -11523638.51545  22403202.5394                   22403203.8874
 -12996971.37848 -10080731.06845  22200015.3674                   22200013.8054
 11  7 29  0  1 30.0000000  0  8G17G28G10G09G04G20G27G02
 -16317264.077 8 -12668092.337 7  21440579.258
 -14829904.60747 -11517610.26745  21912245.0634                   21912244.8444
  -6482445.84946  -5007884.19744  23368594.3054                   23368597.0594
 -11007518.21147  -8533027.75745  22133954.6334                   22133955.0704
 -25229098.45848 -19608643.74246  19890803.1954                   19890802.9494
  -1217964.58246   -915313.90743  24290986.3524                   24290987.1764
 -14852336.79247 -11528388.42745  22402042.8444                   22402043.6454
 -13073990.82648 -10140746.16245  22185358.9454                   22185357.5634
 11  7 29  0  2  0.0000000  0  8G17G28G10G09G04G20G27G02
 -16285393.522 8 -12643258.157 7  21446644.086
 -14775719.95147 -11475388.49445  21922556.3834                   21922555.7624
  -6575594.45446  -5080467.37443  23350868.6564                   23350871.4494
 -11028839.73447  -8549641.92545  22129896.7584                   22129897.7274
 -25237765.13948 -19615396.98446  19889153.6094                   19889153.6134
  -1178124.18546   -884269.47843  24298567.6644                   24298569.3914
 -14857941.33547 -11532755.60745  22400976.3834                   22400977.0004
 -13150707.40448 -10200525.24045  22170760.1024                   22170759.0864
 11  7 29  0  2 30.0000000  0  8G17G28G10G09G04G20G27G02
 -16253431.615 8 -12618352.783 7  21452725.836
 -14721162.81047 -11432876.47545  21932938.1414                   21932937.5864
  -6668665.32147  -5152989.99344  23333157.5234                   23333160.2344
 -11049521.32647  -8565757.44945  22125961.4384                   22125961.9534
 -25245862.53848 -19621706.63246  19887612.9224                   19887612.8054
  -1137796.75046   -852845.51943  24306241.9924                   24306243.4064
 -14863054.90447 -11536740.21745  22400003.3674                   22400004.1644
 -13227119.74648 -10260067.27345  22156219.4774                   22156218.3554
 11  7 29  0  3  0.0000000  0  8G17G28G10G09G04G20G27G02
 -16221379.112 8 -12593376.821 7  21458824.969
 -14666233.63747 -11390074.55345  21943391.0784                   21943390.6024
  -6761655.87746  -5225450.02444  23315462.4534                   23315464.4614
 -11069563.47647  -8581374.71445  22122147.7584                   22122148.1914
 -25253392.06248 -19627573.77046  19886180.0084                   19886180.1724
  -1096983.87946   -821043.27543  24314008.5784                   24314009.2624
 -14867678.34447 -11540342.91945  22399123.7114                   22399124.0394
 -13303227.07948 -10319371.63045  22141736.4614                   22141734.9884
 11  7 29  0  3 30.0000000  0  8G17G28G10G09G04G20G27G02
 -16189236.085 8 -12568330.319 7  21464942.094
 -14610932.28847 -11346982.62045  21953914.2504                   21953913.9654
  -6854562.91746  -5297844.97843  23297782.7344                   23297785.2504
 -11088965.92847  -8596493.50345  22118455.0634                   22118456.0554
 -25260354.18448 -19632998.79046  19884855.2194                   19884855.1564
  -1055686.34946   -788863.43342  24321867.2114                   24321868.5904
 -14871812.11647 -11543564.04345  22398336.9144                   22398337.4344
 -13379028.29548 -10378437.46445  22127312.1644                   22127311.0274
 11  7 29  0  4  0.0000000  0  8G17G28G10G09G04G20G27G02
 -16157003.794 8 -12543214.267 7  21471075.148
 -14555259.34147 -11303601.14445  21964508.5234                   21964508.0594
  -6947383.33446  -5370172.44044  23280118.8834                   23280121.3984
 -11107728.23047  -8611113.48445  22114885.0784                   22114885.0824
 -25266749.64648 -19637982.24546  19883638.2034                   19883638.1884
  -1013905.04946   -756306.56742  24329816.7504                   24329819.7154
 -14875456.42547 -11546403.78145  22397643.4144                   22397644.1374
 -13454522.27348 -10437263.89145  22112945.9844                   22112944.4264
 11  7 29  0  4 30.0000000  0  8G17G28G10G09G04G20G27G02
 -16124680.828 8 -12518027.545 7  21477226.273
 -14499213.71547 -11259929.25145  21975173.8134                   21975173.3554
  -7040112.85046  -5442429.04943  23262473.7974                   23262475.4384
 -11125849.24347  -8625233.74645  22111436.6414                   22111437.3594
 -25272577.88448 -19642523.71946  19882529.0474                   19882528.7734
   -971639.95146   -723372.78442  24337860.5314                   24337861.9104
 -14878610.45848 -11548861.49345  22397043.3444                   22397043.8984
 -13529706.61848 -10495849.05045  22098638.6334                   22098637.5704
 11  7 29  0  5  0.0000000  0  8G17G28G10G09G04G20G27G02
 -16092268.822 8 -12492771.453 7  21483393.969
 -14442796.72847 -11215967.99745  21985909.5394                   21985908.9384
  -7132749.25246  -5514613.10544  23244845.5554                   23244847.0204
 -11143329.66147  -8638854.85545  22108110.2664                   22108111.0594
 -25277840.54148 -19646624.47046  19881527.4384                   19881527.2774
   -928893.11245   -690063.61042  24345993.6954                   24345996.5084
 -14881275.79747 -11550938.38645  22396536.2504                   22396536.5474
 -13604581.09648 -10554192.75545  22084390.7974                   22084389.0354
 11  7 29  0  5 30.0000000  0  8G17G28G10G09G04G20G27G02
 -16059768.651 8 -12467446.657 7  21489578.891
 -14386009.61947 -11171718.33745  21996715.9304                   21996715.3954
  -7225290.15546  -5586722.78044  23227235.2274                   23227237.0744
 -11160170.32547  -8651977.44245  22104905.5634                   22104906.2854
 -25282539.31848 -19650285.84546  19880633.4454                   19880633.4414
   -885666.36046   -656380.47042  24354221.5314                   24354222.3054
 -14883453.77247 -11552635.52645  22396121.7344                   22396122.0944
 -13679145.61448 -10612294.92546  22070201.3984                   22070200.2774
 11  7 29  0  6  0.0000000  0  8G17G28G10G09G04G20G27G02
 -16027178.127 8 -12442051.460 7  21495780.070
 -14328850.06147 -11127178.44845  22007592.8984                   22007592.9144
  -7317730.07646  -5658753.74744  23209644.1564                   23209646.5044
 -11176368.60147  -8664599.47745  22101823.0084                   22101823.9844
 -25286672.35248 -19653506.38046  19879846.8284                   19879846.5274
   -841958.46746   -622322.37842  24362539.6414                   24362539.4804
 -14885142.09247 -11553951.11845  22395800.3054                   22395801.0004
 -13753396.40248 -10670152.62645  22056071.9144                   22056071.0044
 11  7 29  0  6 30.0000000  0  8G17G28G10G09G04G20G27G02
 -15994499.096 8 -12416587.290 7  21501999.031
 -14271319.55947 -11082349.51845  22018540.6884                   22018540.4494
  -7410067.25547  -5730704.65044  23192072.3834                   23192075.0164
 -11191925.80847  -8676721.96745  22098862.5944                   22098863.0704
 -25290241.77748 -19656287.73846  19879167.5784                   19879167.5474
   -797771.76846   -587891.20742  24370947.0634                   24370947.8054
 -14886342.94947 -11554886.86645  22395571.7734                   22395572.4184
 -13827334.01148 -10727766.30946  22042002.3054                   22042000.8984
 11  7 29  0  7  0.0000000  0  8G17G28G10G09G04G20G27G02
 -15961731.208 8 -12391053.884 7  21508234.164
 -14213418.14347 -11037231.56345  22029558.7504                   22029559.2114
  -7502297.59846  -5802572.32044  23174522.0164                   23174523.9344
 -11206841.16947  -8688344.33145  22096024.7584                   22096025.0944
 -25293247.96248 -19658630.20646  19878595.6254                   19878595.4844
   -753106.59546   -553087.20143  24379446.9304                   24379447.4494
 -14887056.18447 -11555442.65545  22395436.2584                   22395437.1914
 -13900956.52048 -10785134.44845  22027992.2504                   22027990.6024
 11  7 29  0  7 30.0000000  0  8G17G28G10G09G04G20G27G02
 -15928874.766 8 -12365451.475 7  21514487.078
 -14155146.17247 -10991824.85745  22040647.7814                   22040647.6994
  -7594418.57947  -5874354.74444  23156991.7894                   23156994.1484
 -11221115.32747  -8699467.04445  22093307.7274                   22093308.7034
 -25295691.92048 -19660534.57746  19878130.1094                   19878130.4344
   -707964.37746   -517911.45143  24388036.6804                   24388037.6914
 -14887282.42347 -11555618.96345  22395393.1334                   22395393.8524
 -13974263.29248 -10842256.56445  22014042.6564                   22014041.1214
 11  7 29  0  8  0.0000000  0  8G17G28G10G09G04G20G27G02
 -15895931.197 7 -12339781.169 7  21520755.828
 -14096505.10847 -10946130.55645  22051806.8364                   22051806.6604
  -7686427.92947  -5946050.20544  23139483.3674                   23139484.7154
 -11234749.20847  -8710090.84945  22090713.8834                   22090714.4184
 -25297575.34948 -19662002.17146  19877771.8594                   19877772.1254
   -662347.21246   -482365.59843  24396717.5474                   24396717.6724
 -14887023.24147 -11555417.02945  22395442.2814                   22395443.5394
 -14047254.17048 -10899132.52845  22000152.6724                   22000151.1804
 11  7 29  0  8 30.0000000  0  9G17G28G12G10G09G04G20G27G02
 -15862898.101 7 -12314041.111 7  21527041.945
 -14037492.71447 -10900146.91545  22063036.1644                   22063036.1374
   -423024.55017   -316247.51816  24668935.352
  -7778319.56646  -6017653.93844  23121996.3364                   23121998.8134
 -11247740.19947  -8720213.69945  22088241.3984                   22088242.3794
 -25298896.76948 -19663031.83946  19877520.4384                   19877520.8364
   -616253.82447   -446448.65143  24405488.8204                   24405489.3484
 -14886276.65047 -11554835.29245  22395584.6484                   22395584.9694
 -14119925.51248 -10955759.50146  21986323.6024                   21986322.2584
 11  7 29  0  9  0.0000000  0  9G17G28G12G10G09G04G20G27G02
 -15829778.964 8 -12288233.999 7  21533343.875
 -13978112.26447 -10853876.47345  22074336.4844                   22074336.0394
   -519869.311 6   -391710.93315  24650506.875
  -7870093.42447  -6089165.90244  23104532.1884                   23104534.3874
 -11260091.29947  -8729837.92145  22085891.5634                   22085891.6484
 -25299659.97548 -19663626.54246  19877375.1724                   19877375.6174
   -569688.24747   -410163.78243  24414349.5314                   24414350.8014
 -14885046.14947 -11553876.47645  22395818.5704                   22395819.3054
 -14192279.16648 -11012138.92346  21972555.3674                   21972553.9774
 11  7 29  0  9 30.0000000  0  9G17G28G12G10G09G04G20G27G02
 -15796571.201 7 -12262357.825 7  21539663.445
 -13918361.43047 -10807317.41245  22085706.2274                   22085706.1524
   -616736.638 6   -467191.942 5  24632073.234
  -7961743.68746  -6160581.55344  23087091.3984                   23087093.6374
 -11271800.24147  -8738961.76445  22083663.1644                   22083663.6174
 -25299863.12248 -19663784.82946  19877336.7584                   19877336.2504
   -522648.82947   -373509.70143  24423301.1564                   24423301.8244
 -14883329.79247 -11552539.07745  22396145.8054                   22396146.1024
 -14264311.80348 -11068268.20545  21958847.7114                   21958846.6374
 11  7 29  0 10  0.0000000  0  9G17G28G12G10G09G04G20G27G02
 -15763274.963 8 -12236412.718 7  21545999.719
 -13858240.46447 -10760469.94945  22097147.0634                   22097147.1954
   -713625.209 6   -542689.474 5  24613636.141
  -8053267.42346  -6231898.61644  23069675.6564                   23069677.4384
 -11282867.12847  -8747585.32045  22081556.8364                   22081557.5234
 -25299507.20948 -19663507.48746  19877404.4224                   19877404.2814
   -475137.00247   -336487.49143  24432343.0784                   24432342.5314
 -14881128.21047 -11550823.57645  22396564.2344                   22396565.1564
 -14336022.05548 -11124146.26946  21945201.8834                   21945200.3714
 11  7 29  0 10 30.0000000  0  9G17G28G12G10G09G04G20G27G02
 -15729891.876 7 -12210399.937 7  21552352.320
 -13797751.14047 -10713335.44245  22108657.9924                   22108657.6644
   -810534.582 6   -618203.159 5  24595194.258
  -8144662.43247  -6303115.38144  23052283.8444                   23052285.1374
 -11293293.31047  -8755709.61445  22079573.2504                   22079573.5594
 -25298594.38348 -19662796.17946  19877578.1024                   19877577.9064
   -427155.07547   -299098.97443  24441473.3594                   24441473.4454
 -14878443.25047 -11548731.42245  22397075.2734                   22397076.2774
 -14407410.25048 -11179773.38746  21931617.1174                   21931615.6884
 11  7 29  0 11  0.0000000  0  9G17G28G12G10G09G04G20G27G02
 -15696420.744 7 -12184318.543 7  21558721.656
 -13736892.74547 -10665913.35945  22120238.8054                   22120238.4184
   -907461.719 6   -693730.749 5  24576749.234
  -8235924.18246  -6374228.32144  23034916.6804                   23034918.8524
 -11303077.76547  -8763333.87245  22077711.2274                   22077711.8524
 -25297124.38948 -19661650.72146  19877857.6174                   19877857.4774
   -378703.13646   -261344.20143  24450693.0554                   24450693.7814
 -14875274.19147 -11546262.05145  22397678.4534                   22397679.2194
 -14478474.03148 -11235147.71046  21918093.8674                   21918092.7234
 11  7 29  0 11 30.0000000  0  9G17G28G12G10G09G04G20G27G02
 -15662863.489 8 -12158170.049 7  21565107.273
 -13675667.07847 -10618205.09145  22131889.8364                   22131889.3134
  -1004406.705 6   -769272.235 6  24558301.266
  -8327050.76847  -6445235.92044  23017575.5234                   23017577.6604
 -11312222.14347  -8770459.36845  22075971.3054                   22075971.6804
 -25295099.59648 -19660072.94646  19878243.1884                   19878242.9734
   -329783.82546   -223225.30743  24460002.1414                   24460002.6374
 -14871623.29847 -11543417.21945  22398373.2504                   22398373.5634
 -14549213.91048 -11290269.64846  21904632.2344                   21904630.9964
 11  7 29  0 12  0.0000000  0  9G17G28G12G10G09G04G20G27G02
 -15629218.558 7 -12131953.228 7  21571509.773
 -13614073.18147 -10570209.88945  22143610.7974                   22143610.6174
  -1101366.513 6   -844825.254 6  24539850.391
  -8418037.61347  -6516134.64944  23000261.2814                   23000263.3014
 -11320725.43047  -8777085.32145  22074353.0234                   22074353.6604
 -25292519.78548 -19658062.69746  19878733.8364                   19878734.1764
   -280397.24946   -184742.22143  24469400.6094                   24469401.1684
 -14867489.97947 -11540196.47845  22399160.0474                   22399159.8594
 -14619627.54748 -11345137.36246  21891233.3364                   21891231.7544
 11  7 29  0 12 30.0000000  0  9G17G28G12G10G09G04G20G27G02
 -15595486.866 7 -12105668.803 7  21577929.133
 -13552112.14947 -10521928.59445  22155401.5394                   22155401.4614
  -1198339.963 7   -920388.880 6  24521397.867
  -8508882.39147  -6586922.68844  22982974.2114                   22982975.8054
 -11328588.55047  -8783212.43445  22072856.7194                   22072856.8794
 -25289386.53848 -19655621.19746  19879330.2974                   19879330.5944
   -230545.04646   -145896.35443  24478886.0944                   24478887.4924
 -14862875.60347 -11536600.89245  22400037.6804                   22400038.3134
 -14689714.54648 -11399750.56045  21877896.0004                   21877894.5554
 11  7 29  0 13  0.0000000  0  9G17G28G12G10G09G04G20G27G02
 -15561667.944 7 -12079316.407 7  21584364.250
 -13489783.49347 -10473360.84845  22167262.4304                   22167262.0744
  -1295324.916 7   -995961.507 6  24502942.195
  -8599580.96447  -6657596.76844  22965714.7894                   22965716.3794
 -11335810.93847  -8788840.27845  22071482.0394                   22071482.6884
 -25285699.85648 -19652748.45346  19880031.7584                   19880032.2504
   -180227.65046   -106688.03543  24488460.9924                   24488462.5274
 -14857779.94247 -11532630.26245  22401007.1644                   22401007.7544
 -14759473.12648 -11454107.84446  21864621.4384                   21864620.1214
 11  7 29  0 13 30.0000000  0  9G17G28G12G10G09G04G20G27G02
 -15527763.353 7 -12052897.269 7  21590815.898
 -13427089.26847 -10424508.23345  22179192.8204                   22179192.6804
  -1392321.024 7  -1071542.827 6  24484484.367
  -8690131.46147  -6728155.49844  22948484.0234                   22948485.5984
 -11342394.44547  -8793970.30045  22070229.4924                   22070229.7074
 -25281462.48148 -19649446.59446  19880838.1564                   19880838.2194
   -129448.05046    -67119.53643  24498125.2274                   24498125.6254
 -14852205.28647 -11528286.39445  22402068.5704                   22402068.8754
 -14828903.87048 -11508209.66546  21851408.8204                   21851407.9184
 11  7 29  0 14  0.0000000  0  9G17G28G12G10G09G04G20G27G02
 -15493771.381 7 -12026410.043 7  21597284.578
 -13364027.80047 -10375369.48145  22191193.1884                   22191192.7814
  -1489324.652 7  -1147129.999 6  24466025.266
  -8780528.62947  -6798594.73944  22931281.5394                   22931283.1994
 -11348337.48347  -8798601.25345  22069098.3134                   22069098.8324
 -25276673.57348 -19645714.96446  19881749.7344                   19881749.5474
    -78205.58046    -27190.37243  24507875.9844                   24507876.7504
 -14846150.51547 -11523568.41545  22403220.3134                   22403220.8754
 -14898003.66948 -11562053.61246  21838259.7114                   21838258.3404
 11  7 29  0 14 30.0000000  0  9G17G28G12G10G09G04G20G27G02
 -15459694.108 7 -11999856.333 7  21603768.836
 -13300602.28047 -10325947.02445  22203262.3674                   22203262.0634
  -1586336.506 6  -1222723.593 6  24447564.242
  -8870771.49347  -6868913.74244  22914108.4064                   22914110.4384
 -11353642.69747  -8802735.19545  22068088.8594                   22068089.2894
 -25271336.29148 -19641556.03546  19882764.9534                   19882765.2194
    -26503.88746     13096.64643  24517713.6334                   24517715.3874
 -14839618.54047 -11518478.58245  22404463.2894                   22404464.6414
 -14966774.12148 -11615640.92246  21825172.9064                   21825171.2274
 11  7 29  0 15  0.0000000  0  9G17G28G12G10G09G04G20G27G02
 -15425529.619 7 -11973234.679 7  21610270.281
 -13236810.57047 -10276239.25245  22215401.5394                   22215400.9104
  -1683352.401 6  -1298320.361 6  24429102.688
  -8960854.68047  -6939108.33544  22896966.3364                   22896968.0164
 -11358308.37547  -8806370.80945  22067201.4144                   22067201.9614
 -25265449.78648 -19636969.14546  19883885.3364                   19883885.2304
     25658.03646     53742.28642  24527640.7274                   24527641.2624
 -14832608.03947 -11513015.87445  22405797.7274                   22405798.4614
 -15035211.92348 -11668969.02746  21812149.8444                   21812148.2894
 11  7 29  0 15 30.0000000  0  9G17G28G12G10G09G04G20G27G02
 -15391279.400 7 -11946546.208 7  21616787.867
 -13172655.05447 -10226247.98145  22227609.8444                   22227609.9384
  -1780372.624 7  -1373920.463 6  24410640.984
  -9050776.36847  -7009177.07444  22879855.1804                   22879856.1644
 -11362336.63247  -8809509.72645  22066434.4224                   22066435.3484
 -25259016.65148 -19631956.30546  19885109.6564                   19885109.4654
     78276.98546     94744.03943  24537653.1254                   24537654.6724
 -14825121.38047 -11507182.14345  22407222.3284                   22407223.5354
 -15103317.62348 -11722038.35346  21799189.7344                   21799187.9264
 11  7 29  0 16  0.0000000  0  9G17G28G12G10G09G04G20G27G02
 -15356941.217 7 -11919789.204 7  21623322.336
 -13108133.86547 -10175971.77845  22239887.9774                   22239887.9654
  -1877393.054 6  -1449520.759 6  24392177.945
  -9140531.03847  -7079115.66944  22862774.8444                   22862776.6174
 -11365725.55647  -8812150.45945  22065790.0394                   22065790.6844
 -25252035.56848 -19626516.49446  19886437.8524                   19886437.7114
    131354.17146    136102.80542  24547754.2974                   24547754.9614
 -14817157.11047 -11500976.24045  22408737.7664                   22408738.4924
 -15171088.05748 -11774846.43446  21786293.3444                   21786291.8324
 11  7 29  0 16 30.0000000  0  9G17G28G12G10G09G04G20G27G02
 -15322518.103 8 -11892966.013 7  21629872.680
 -13043249.36547 -10125412.47445  22252235.2974                   22252235.7424
  -1974413.758 6  -1525121.245 6  24373715.547
  -9230117.50047  -7148923.19344  22845727.3204                   22845728.4144
 -11368477.69347  -8814295.00345  22065265.7194                   22065266.4414
 -25244509.79548 -19620652.25646  19887870.3444                   19887870.1644
    184886.22246    177816.11142  24557940.3364                   24557941.8834
 -14808718.12547 -11494400.41845  22410343.6094                   22410344.4454
 -15238524.49048 -11827394.26046  21773460.6024                   21773459.2114
 11  7 29  0 17  0.0000000  0  9G17G28G12G10G09G04G20G27G02
 -15288010.111 8 -11866076.681 7  21636439.477
 -12978002.85747 -10074571.09045  22264651.3054                   22264651.1954
  -2071433.560 6  -1600721.037 6  24355253.195
  -9319533.24647  -7218597.69344  22828711.6094                   22828713.3164
 -11370594.23047  -8815944.26345  22064863.3984                   22064863.4144
 -25236441.24948 -19614365.07146  19889405.2194                   19889405.2034
    238871.13846    219882.26942  24568213.1564                   24568214.6254
 -14799806.02447 -11487455.94245  22412039.3284                   22412040.1844
 -15305626.35248 -11879681.37646  21760691.6094                   21760689.9734
 11  7 29  0 17 30.0000000  0  8G17G28G12G10G09G04G27G02
 -15253408.626 7 -11839114.506 7  21643023.992
 -12912386.96047 -10023441.86345  22277137.6024                   22277137.5984
  -2168442.649 6  -1676312.504 6  24336792.781
  -9408765.82447  -7288129.48144  22811731.5634                   22811732.5594
 -11372067.43147  -8817092.21645  22064583.0394                   22064583.3484
 -25227822.76448 -19607649.36246  19891045.6484                   19891045.2464
 -14790413.28247 -11480136.93645  22413827.0164                   22413828.0354
 -15372384.41148 -11931700.59546  21747987.9534                   21747986.1804
 11  7 29  0 18  0.0000000  0  8G17G28G12G10G09G04G27G02
 -15218727.945 7 -11812090.613 7  21649623.438
 -12846415.85947  -9972035.87145  22289691.6024                   22289691.3164
  -2265453.194 6  -1751905.079 5  24318332.148
  -9497826.41047  -7357527.23544  22794783.1884                   22794784.9804
 -11372911.71547  -8817750.11945  22064422.0554                   22064422.9384
 -25218669.37748 -19600516.84646  19892787.5314                   19892787.1804
 -14780554.89647 -11472455.09345  22415703.0234                   22415703.9534
 -15438812.14148 -11983462.41746  21735347.3054                   21735345.3634
 11  7 29  0 18 30.0000000  0  8G17G28G12G10G09G04G27G02
 -15183960.088 8 -11784998.785 7  21656239.961
 -12780081.80547  -9920347.05845  22302314.5394                   22302314.8634
  -2362454.815 6  -1827490.720 5  24299872.859
  -9586703.48647  -7426782.00144  22777870.5084                   22777872.3674
 -11373119.50847  -8817912.03445  22064383.2504                   22064383.3594
 -25208974.20248 -19592962.15746  19894632.4304                   19894631.5864
 -14770223.39747 -11464404.59345  22417669.1334                   22417669.8524
 -15504900.10148 -12034959.47746  21722770.5704                   21722769.3484
 11  7 29  0 19  0.0000000  0  8G17G28G12G10G09G04G27G02
 -15149107.616 8 -11757841.033 7  21662871.852
 -12713388.45147  -9868378.26045  22315005.7584                   22315005.7424
  -2459448.845 6  -1903070.463 6  24281416.008
  -9675396.43147  -7495893.27944  22760993.4304                   22760994.4064
 -11372694.10747  -8817580.57145  22064464.1564                   22064464.3444
 -25198741.15948 -19584988.35246  19896579.6334                   19896579.6294
 -14759422.41247 -11455988.26845  22419724.7894                   22419725.2814
 -15570650.10748 -12086193.20546  21710259.1564                   21710257.7854
 11  7 29  0 19 30.0000000  0  8G17G28G12G10G09G04G27G02
 -15114168.295 8 -11730615.594 7  21669520.453
 -12646333.69247  -9816127.86145  22327766.2034                   22327766.3674
  -2556431.092 6  -1978640.997 6  24262960.375
  -9763899.47747  -7564856.59344  22744151.7584                   22744153.1334
 -11371634.10647  -8816754.61145  22064665.2344                   22064666.1174
 -25187969.14548 -19576594.56846  19898629.1644                   19898628.8834
 -14748150.71447 -11447205.15345  22421869.5004                   22421869.8244
 -15636059.45948 -12137161.48646  21697812.2734                   21697811.0474
 11  7 29  0 20  0.0000000  0  8G17G28G12G10G09G04G27G02
 -15079143.306 8 -11703323.391 7  21676185.570
 -12578919.77747  -9763597.58845  22340594.5944                   22340594.5824
  -2653401.177 6  -2054202.059 6  24244508.359
  -9852211.29847  -7633670.90344  22727346.3594                   22727347.4264
 -11369941.68847  -8815435.85445  22064987.5084                   22064987.9344
 -25176661.16148 -19567783.14846  19900781.1884                   19900781.2304
 -14736410.71747 -11438057.13945  22424103.4924                   22424104.1764
 -15701128.20648 -12187864.36846  21685430.1094                   21685428.5514
 11  7 29  0 20 30.0000000  0  8G17G28G12G10G09G04G27G02
 -15044033.581 8 -11675965.179 7  21682866.836
 -12511147.65047  -9710788.18145  22353490.8754                   22353491.5744
  -2750357.411 7  -2129752.310 6  24226057.891
  -9940328.27547  -7702333.40244  22710577.6414                   22710579.1294
 -11367617.88547  -8813625.10745  22065429.8364                   22065429.9924
 -25164818.48548 -19558555.07846  19903034.5314                   19903034.4494
 -14724203.51447 -11428545.05945  22426426.6804                   22426427.3554
 -15765855.97848 -12238301.55446  21673112.8054                   21673111.2274
 11  7 29  0 21  0.0000000  0  8G17G28G12G10G09G04G27G02
 -15008837.033 7 -11648539.297 7  21689564.414
 -12443016.09047  -9657698.69545  22366455.8054                   22366455.8634
  -2847296.349 7  -2205289.103 6  24207611.180
 -10028245.59647  -7770840.30444  22693847.7114                   22693849.2344
 -11364661.73447  -8811321.62445  22065992.2424                   22065992.5784
 -25152440.81748 -19548910.14146  19905390.1884                   19905389.8834
 -14711528.57247 -11418668.51345  22428838.1954                   22428839.1564
 -15830239.95648 -12288470.84146  21660860.7424                   21660859.2424
 11  7 29  0 21 30.0000000  0  8G17G28G12G10G09G04G27G02
 -14973555.366 8 -11621047.099 7  21696278.258
 -12374527.66147  -9604331.12945  22379488.8134                   22379489.2304
  -2944217.393 6  -2280811.941 6  24189167.078
 -10115961.56247  -7839190.30744  22677155.9454                   22677157.1604
 -11361075.48247  -8808527.14945  22066674.8364                   22066675.4494
 -25139531.09048 -19538850.60846  19907846.8754                   19907846.4654
 -14698388.48747 -11408429.51045  22431338.8754                   22431339.2624
 -15894281.24248 -12338373.09546  21648673.9844                   21648672.2584
 11  7 29  0 22  0.0000000  0  8G17G28G12G10G09G04G27G02
 -14938187.444 8 -11593487.684 7  21703009.109
 -12305681.81547  -9550685.07244  22392589.8524                   22392589.6484
  -3041118.291 6  -2356319.073 6  24170727.758
 -10203471.73147  -7907379.97144  22660502.9384                   22660504.4104
 -11356858.65947  -8805241.31745  22067477.3984                   22067477.5124
 -25126089.69048 -19528376.78846  19910404.8054                   19910404.6454
 -14684783.19947 -11397828.00145  22433927.6484                   22433927.9344
 -15957978.01348 -12388006.89946  21636552.6804                   21636550.9774
 11  7 29  0 22 30.0000000  0  8G17G28G12G10G09G04G27G02
 -14902733.371 8 -11565861.136 7  21709755.398
 -12236479.57747  -9496761.27245  22405758.8444                   22405758.5594
  -3137997.104 7  -2431808.995 6  24152292.102
 -10290772.87747  -7975406.75544  22643890.3594                   22643891.9454
 -11352012.46147  -8801465.06845  22068399.8364                   22068400.2734
 -25112118.01848 -19517489.77846  19913063.3754                   19913063.3164
 -14670714.02247 -11386865.02645  22436604.8444                   22436605.8094
 -16021329.38348 -12437371.56346  21624497.2034                   21624496.2304
 11  7 29  0 23  0.0000000  0  8G17G28G12G10G09G04G27G02
 -14867192.428 8 -11538166.905 7  21716518.656
 -12166920.64447  -9442559.54844  22418995.3204                   22418995.0744
  -3234850.997 7  -2507279.508 6  24133861.438
 -10377860.99047  -8043267.53944  22627317.6484                   22627318.9734
 -11346537.32747  -8797198.75145  22069441.2734                   22069441.6844
 -25097616.85448 -19506190.17046  19915823.1094                   19915822.5744
 -14656181.30447 -11375540.84845  22439370.4844                   22439371.4384
 -16084334.17148 -12486466.16346  21612507.6644                   21612506.3364
 11  7 29  0 23 30.0000000  0  8G17G28G12G10G09G04G27G02
 -14831566.931 7 -11510406.769 7  21723297.945
 -12097008.38147  -9388082.50044  22432299.4774                   22432299.3484
  -3331680.407 7  -2582730.943 6  24115435.398
 -10464735.15347  -8110961.60644  22610785.9694                   22610787.9654
 -11340436.44647  -8792444.83045  22070602.5164                   22070602.8244
 -25082590.01748 -19494480.94746  19918682.2734                   19918682.0434
 -14641188.48547 -11363858.17645  22442224.2424                   22442224.9694
 -16146993.72448 -12535291.75546  21600584.2344                   21600582.6094
 11  7 29  0 24  0.0000000  0  8G17G28G12G10G09G04G27G02
 -14795854.926 8 -11482579.249 7  21730093.633
 -12026741.51247  -9333329.13844  22445670.5394                   22445670.5664
  -3428481.827 7  -2658160.567 6  24097014.570
 -10551390.17247  -8178484.90544  22594295.9694                   22594297.3364
 -11333708.80847  -8787202.52745  22071882.8134                   22071883.1214
 -25067036.95448 -19482361.68046  19921641.8204                   19921642.1914
 -14625735.01047 -11351816.54145  22445164.7894                   22445165.5164
 -16209305.69448 -12583846.49646  21588726.6644                   21588725.3484
 11  7 29  0 24 30.0000000  0  8G17G28G12G10G09G04G27G02
 -14760057.103 7 -11454684.842 7  21736905.789
 -11956121.07047  -9278300.26944  22459109.4384                   22459109.6334
  -3525253.445 7  -2733566.973 6  24078599.883
 -10637822.84547  -8245834.97344  22577848.8204                   22577849.9574
 -11326355.66247  -8781472.81645  22073281.5394                   22073282.5704
 -25050959.35248 -19469833.66946  19924701.4224                   19924701.3054
 -14609822.06248 -11339416.87645  22448192.6174                   22448193.5164
 -16271269.45248 -12632129.90946  21576935.3134                   21576933.3404
 11  7 29  0 25  0.0000000  0  8G17G28G12G10G09G04G27G02
 -14724173.476 7 -11426723.587 7  21743734.391
 -11885148.38347  -9222996.91644  22472615.4924                   22472615.2854
  -3621994.151 6  -2808949.287 6  24060190.102
 -10724030.69947  -8313009.84344  22561443.1564                   22561444.8754
 -11318378.71747  -8775257.02845  22074799.9384                   22074800.2194
 -25034359.47148 -19456898.70246  19927860.5944                   19927860.3754
 -14593451.85147 -11326660.88445  22451307.7274                   22451308.5744
 -16332885.13048 -12680142.10046  21565210.3834                   21565208.9184
 11  7 29  0 25 30.0000000  0  8G17G28G12G10G09G04G27G02
 -14688202.674 7 -11398694.407 7  21750579.078
 -11813823.01747  -9167418.76144  22486187.4384                   22486188.1024
  -3718700.604 7  -2884304.889 6  24041788.063
 -10810008.72747  -8380005.61744  22545082.4144                   22545083.5594
 -11309777.48247  -8768554.78745  22076436.5634                   22076437.3554
 -25017237.25148 -19443556.71246  19931118.5314                   19931118.3554
 -14576623.97547 -11313548.27645  22454510.0394                   22454510.8554
 -16394150.41148 -12727881.24046  21553551.6954                   21553549.9694
 11  7 29  0 26  0.0000000  0  8G17G28G12G10G09G04G27G02
 -14652145.761 8 -11370598.130 7  21757440.797
 -11742146.64247  -9111567.08944  22499827.0944                   22499827.6724
  -3815371.616 6  -2959632.876 6  24023391.367
 -10895754.62547  -8446820.51344  22528765.1954                   22528767.2624
 -11300553.93747  -8761367.62445  22078192.2424                   22078192.7664
 -24999594.98448 -19429809.48946  19934475.7344                   19934475.8954
 -14559340.37747 -11300080.56845  22457799.0704                   22457799.9494
 -16455064.92248 -12775347.06446  21541960.2734                   21541958.4144
 11  7 29  0 26 30.0000000  0  8G17G28G12G10G09G04G27G02
 -14616002.304 8 -11342434.409 7  21764318.945
 -11670120.05247  -9055442.53244  22513533.6804                   22513534.1414
  -3912005.156 7  -3034931.680 6  24005002.938
 -10981265.14447  -8513451.99644  22512493.4614                   22512494.9534
 -11290709.12347  -8753696.36345  22080064.8524                   22080066.0784
 -24981434.26448 -19415658.27446  19937931.3444                   19937931.6254
 -14541602.46047 -11286258.83145  22461174.7114                   22461175.3324
 -16515628.40948 -12822539.36046  21530435.3364                   21530434.0204
 11  7 29  0 27  0.0000000  0  8G17G28G12G10G09G04G27G02
 -14579772.952 8 -11314203.765 7  21771212.609
 -11597744.89447  -8999046.36245  22527306.2504                   22527306.6954
  -4008599.872 7  -3110200.236 6  23986622.203
 -11066537.44547  -8579897.86045  22496266.4844                   22496267.8204
 -11280245.26147  -8745542.72945  22082056.1484                   22082056.9734
 -24962757.63948 -19401105.05646  19941485.6414                   19941485.4654
 -14523412.20447 -11272084.63045  22464636.3134                   22464636.5314
 -16575841.04548 -12869458.25746  21518977.5084                   21518975.7424
 11  7 29  0 27 30.0000000  0  8G17G28G12G10G09G04G27G02
 -14543457.491 8 -11285906.020 7  21778123.641
 -11525021.12147  -8942378.55444  22541144.8364                   22541145.5634
  -4105153.480 7  -3185436.766 6  23968248.109
 -11151567.61047  -8646155.05145  22480085.7814                   22480087.2814
 -11269162.65147  -8736906.95545  22084165.4304                   22084166.2464
 -24943565.55448 -19386150.17846  19945137.7274                   19945137.4654
 -14504770.16247 -11257558.38945  22468183.5314                   22468184.5084
 -16635701.53248 -12916102.75746  21507585.8524                   21507584.1914
 11  7 29  0 28  0.0000000  0  8G17G28G12G10G09G04G27G02
 -14507055.160 8 -11257540.588 7  21785050.813
 -11451949.34447  -8885439.56845  22555050.5864                   22555051.0234
  -4201663.742 7  -3260639.540 6  23949883.063
 -11236351.97847  -8712220.70745  22463951.9064                   22463952.5354
 -11257462.12047  -8727789.68845  22086391.6954                   22086392.4454
 -24923859.56348 -19370794.86146  19948887.7664                   19948887.7894
 -14485677.21747 -11242680.79945  22471816.5314                   22471818.1254
 -16695208.49148 -12962471.77146  21496262.0704                   21496260.1724
 11  7 29  0 28 30.0000000  0  8G17G28G12G10G09G04G27G02
 -14470566.533 8 -11229107.911 7  21791993.953
 -11378530.87747  -8828230.43344  22569021.5474                   22569022.2154
  -4298128.510 7  -3335806.849 6  23931526.320
 -11320887.82647  -8778092.72845  22447864.9694                   22447866.1604
 -11245145.23447  -8718192.14045  22088735.3284                   22088736.6914
 -24903641.56848 -19355040.57346  19952735.1024                   19952734.6484
 -14466135.27147 -11227453.33445  22475535.3914                   22475536.5704
 -16754362.10048 -13008565.46046  21485005.4064                   21485003.8094
 11  7 29  0 29  0.0000000  0  8G17G28G12G10G09G04G27G02
 -14433991.258 8 -11200607.720 7  21798954.352
 -11304766.91847  -8770752.07745  22583058.3364                   22583058.5784
  -4394546.654 6  -3410937.791 6  23913177.898
 -11405171.86447  -8843768.52945  22431826.5084                   22431827.8554
 -11232213.52247  -8708115.51745  22091196.5554                   22091197.2194
 -24882913.44548 -19338888.78846  19956679.6334                   19956679.3874
 -14446145.99947 -11211877.30245  22479339.3054                   22479340.1134
 -16813161.91348 -13054383.45546  21473816.4304                   21473814.3714
 11  7 29  0 29 30.0000000  0  8G17G28G12G10G09G04G27G02
 -14397327.978 8 -11172038.956 7  21805930.883
 -11230656.92447  -8713004.09944  22597160.6644                   22597161.6604
  -4490914.969 6  -3486029.917 6  23894839.336
 -11489199.89447  -8909244.84345  22415836.0704                   22415837.0634
 -11218667.06247  -8697559.86445  22093774.6094                   22093775.1644
 -24861675.67148 -19322339.87146  19960720.6884                   19960720.7664
 -14425709.35147 -11195952.66845  22483228.5944                   22483229.5394
 -16871606.06448 -13099924.31046  21462694.7664                   21462692.9384
 11  7 29  0 30  0.0000000  0  8G17G28G12G10G09G04G27G02
 -14360577.404 8 -11143402.163 7  21812924.742
 -11156202.29047  -8654987.55144  22611329.5634                   22611329.8324
  -4587231.586 6  -3561081.762 6  23876511.430
 -11572968.88347  -8974519.31144  22399895.7194                   22399896.6994
 -11204507.48147  -8686526.45345  22096469.0394                   22096469.5944
 -24839930.00348 -19305395.19746  19964858.8834                   19964858.8714
 -14404826.82347 -11179680.59645  22487201.8754                   22487203.1294
 -16929694.29748 -13145187.83446  21451641.2034                   21451639.0204
 11  7 29  0 30 30.0000000  0  8G17G28G12G10G09G04G27G02
 -14323740.457 8 -11114698.076 7  21819934.453
 -11081405.10347  -8596704.09944  22625563.1484                   22625563.3524
  -4683495.479 6  -3636092.504 6  23858192.352
 -11656476.48047  -9039590.09245  22384004.6564                   22384005.3204
 -11189737.21348  -8675017.17545  22099279.9304                   22099280.2814
 -24817679.31548 -19288056.99546  19969093.3284                   19969093.2464
 -14383501.09147 -11163063.17245  22491259.7894                   22491261.2934
 -16987426.83148 -13190174.18346  21440654.8834                   21440653.3284
 11  7 29  0 31  0.0000000  0  8G17G28G12G10G09G04G27G02
 -14286816.138 7 -11085925.901 7  21826960.797
 -11006265.67347  -8538153.95044  22639861.2974                   22639862.0984
  -4779703.617 6  -3711059.805 6  23839884.797
 -11739718.63047  -9104454.04245  22368164.1414                   22368164.7584
 -11174356.83147  -8663032.47545  22102206.2664                   22102207.2854
 -24794924.55348 -19270326.00846  19973423.1254                   19973423.3404
 -14361733.04547 -11146101.07845  22495403.0234                   22495403.8524
 -17044802.86448 -13234882.74546  21429736.6644                   21429735.0474
 11  7 29  0 31 30.0000000  0  8G17G28G12G10G09G04G27G02
 -14249803.985 8 -11057085.291 7  21834004.250
 -10930784.52947  -8479337.52944  22654225.0394                   22654225.6374
  -4875854.449 7  -3785982.462 6  23821588.633
 -11822691.72647  -9169108.33744  22352374.8284                   22352375.6414
 -11158367.64348  -8650573.39145  22105249.5474                   22105249.7854
 -24771667.31348 -19252203.48546  19977848.9304                   19977848.9224
 -14339523.85547 -11128795.24645  22499628.7814                   22499630.0234
 -17101821.52148 -13279312.82946  21418886.2424                   21418884.2424
 11  7 29  0 32  0.0000000  0  8G17G28G12G10G09G04G27G02
 -14212704.043 8 -11028176.264 7  21841064.109
 -10854962.81747  -8420255.73044  22668653.4144                   22668653.8284
  -4971945.689 7  -3860858.689 6  23803302.625
 -11905392.47947  -9233550.41345  22336637.2814                   22336638.1094
 -11141770.97447  -8637640.94745  22108407.6414                   22108407.9454
 -24747909.24448 -19233690.70846  19982369.9614                   19982369.4024
 -14316874.97047 -11111146.79945  22503938.9844                   22503940.0084
 -17158482.34048 -13323464.07246  21408104.1644                   21408102.0434
 11  7 29  0 32 30.0000000  0  8G17G28G12G10G09G04G27G02
 -14175518.237 7 -10999200.334 7  21848140.227
 -10778803.54647  -8360910.90744  22683146.1644                   22683146.4064
  -5067977.166 7  -3935688.346 6  23785028.008
 -11987819.57347  -9297779.25745  22320951.8984                   22320952.4534
 -11124570.19247  -8624237.76145  22111680.8054                   22111681.3524
 -24723654.04948 -19214790.55446  19986985.6254                   19986985.6024
 -14293789.78147 -11093158.37745  22508332.3204                   22508332.5124
 -17214786.31448 -13367337.26046  21397389.5634                   21397387.8164
 11  7 29  0 33  0.0000000  0  8G17G28G12G10G09G04G27G02
 -14138241.767 8 -10970153.750 7  21855233.656
 -10702303.28147  -8301300.38244  22697703.7424                   22697703.8134
  -5163941.800 7  -4010465.936 6  23766766.344
 -12069965.20247  -9361788.77145  22305319.5474                   22305320.8404
 -11106762.25647  -8610361.47045  22115069.3364                   22115070.3794
 -24698898.75448 -19195500.71346  19991696.3834                   19991695.8094
 -14270265.07647 -11074827.47145  22512808.7194                   22512809.2384
 -17270728.42048 -13410928.47146  21386744.2034                   21386742.2854
 11  7 29  0 33 30.0000000  0  8G17G28G12G10G09G04G27G02
 -14100879.280 8 -10941040.146 7  21862343.273
 -10625467.63247  -8241428.49944  22712325.4694                   22712326.0084
  -5259843.483 7  -4085194.464 6  23748517.156
 -12151831.10047  -9425580.31745  22289741.3284                   22289742.0984
 -11088353.47747  -8596016.99745  22118572.7194                   22118573.2274
 -24673650.32448 -19175826.61546  19996500.8204                   19996500.8484
 -14246307.34747 -11056159.13845  22517367.8674                   22517368.2194
 -17326313.36848 -13454241.37946  21376166.4534                   21376164.4064
 11  7 29  0 34  0.0000000  0  8G17G28G12G10G09G04G27G02
 -14063427.094 7 -10911856.644 7  21869470.492
 -10548294.14347  -8181293.36444  22727010.8914                   22727011.0864
  -5355675.961 7  -4159869.079 6  23730280.969
 -12233410.31147  -9489148.47945  22274217.2274                   22274218.3364
 -11069342.07047  -8581202.93445  22122190.2664                   22122191.1024
 -24647906.73148 -19155766.67346  20001399.8134                   20001399.9304
 -14221914.69547 -11037151.90545  22522009.3914                   22522010.0744
 -17381537.21448 -13497272.91746  21365658.1094                   21365655.9574
 11  7 29  0 34 30.0000000  0  8G17G28G12G10G09G04G27G02
 -14025886.644 7 -10882604.354 7  21876614.086
 -10470785.88747  -8120897.39844  22741759.7814                   22741760.4694
  -5451439.081 7  -4234489.659 6  23712057.508
 -12314701.00947  -9552491.80845  22258747.8524                   22258749.1414
 -11049731.31047  -8565921.83445  22125921.8834                   22125922.4574
 -24621671.47648 -19135323.61146  20006392.1644                   20006391.9804
 -14197090.23847 -11017808.20745  22526733.2664                   22526734.0664
 -17436400.76748 -13540023.70546  21355217.5234                   21355215.6884
 11  7 29  0 35  0.0000000  0  8G17G28G12G10G09G04G27G02
 -13988257.846 7 -10853283.232 7  21883774.992
 -10392943.50147  -8060241.05344  22756572.9304                   22756573.4734
  -5547130.318 7  -4309054.227 6  23693848.305
 -12395699.94547  -9615607.79845  22243334.5004                   22243335.6994
 -11029522.51447  -8550174.74645  22129767.7584                   22129768.1564
 -24594946.15648 -19114498.68546  20011477.7344                   20011477.7894
 -14171835.35447 -10998129.11345  22531538.9454                   22531540.3324
 -17490903.57448 -13582493.40646  21344846.1954                   21344844.0124
 11  7 29  0 35 30.0000000  0  8G17G28G12G10G09G04G27G02
 -13950540.879 7 -10823893.401 7  21890951.883
 -10314768.56047  -7999325.57744  22771449.3834                   22771449.8714
  -5642747.910 7  -4383561.431 6  23675653.141
 -12476404.28047  -9678494.24345  22227977.0784                   22227978.0204
 -11008717.72147  -8533963.24245  22133726.9304                   22133727.5474
 -24567733.41848 -19093293.96046  20016656.1414                   20016656.2624
 -14146152.14147 -10978116.26745  22536426.8524                   22536427.7814
 -17545045.79748 -13624682.12246  21334542.8364                   21334541.4264
 11  7 29  0 36  0.0000000  0  8G17G28G12G10G09G04G27G02
 -13912734.769 7 -10794434.107 7  21898146.133
 -10236261.33747  -7938151.19144  22786388.7194                   22786389.3134
  -5738289.060 7  -4458009.072 6  23657472.078
 -12556810.14447  -9741148.10045  22212675.8594                   22212677.0234
 -10987317.95147  -8517288.12145  22137799.1724                   22137799.6844
 -24540033.99448 -19071709.99146  20021927.1484                   20021927.3094
 -14120041.52347 -10957770.37345  22541395.1484                   22541396.0704
 -17598826.17048 -13666588.88546  21324308.8134                   21324306.9884
 11  7 29  0 36 30.0000000  0  8G17G28G12G10G09G04G27G02
 -13874839.885 7 -10764905.642 7  21905357.289
 -10157423.49247  -7876719.17344  22801391.2584                   22801391.7854
  -5833752.629 7  -4532396.262 6  23639306.406
 -12636914.67047  -9803567.16145  22197432.7974                   22197433.7704
 -10965325.37347  -8500151.08245  22141984.3834                   22141984.8134
 -24511850.32748 -19049748.69546  20027290.4694                   20027290.7624
 -14093505.58147 -10937093.05245  22546445.3054                   22546445.8714
 -17652244.83148 -13708213.79846  21314143.8364                   21314142.1844
 11  7 29  0 37  0.0000000  0  8G17G28G12G10G09G04G27G02
 -13836854.192 7 -10735306.417 7  21912585.797
 -10078254.65847  -7815029.25344  22816456.7344                   22816457.2304
  -5929134.645 7  -4606719.899 6  23621155.563
 -12716713.12447  -9865747.72145  22182247.3134                   22182248.5084
 -10942740.06647  -8482552.17245  22146282.0394                   22146282.5354
 -24483182.88948 -19027410.43746  20032745.7274                   20032745.3444
 -14066544.52547 -10916084.47445  22551575.2974                   22551576.3404
 -17705299.65248 -13749555.19346  21304047.7894                   21304045.8444
 11  7 29  0 37 30.0000000  0  8G17G28G12G10G09G04G27G02
 -13798778.877 7 -10705637.356 7  21919831.570
  -9998757.02847  -7753083.12244  22831584.5234                   22831585.2034
  -6024433.884 7  -4680979.016 6  23603020.016
 -12796202.98047  -9927687.82045  22167121.1254                   22167121.5514
 -10919564.73547  -8464493.49645  22150691.7034                   22150692.7624
 -24454034.19548 -19004697.17546  20038292.5314                   20038292.1914
 -14039160.98447 -10894746.68845  22556786.7114                   22556787.1294
 -17757991.37648 -13790613.65346  21294020.8054                   21294018.9454
 11  7 29  0 38  0.0000000  0  8G17G28G12G10G09G04G27G02
 -13760614.023 7 -10675898.524 7  21927094.039
  -9918931.79347  -7690881.69744  22846775.3984                   22846775.8634
  -6119648.524 6  -4755172.216 6  23584901.828
 -12875381.15447  -9989385.04645  22152053.8134                   22152054.3364
 -10895801.18047  -8445976.46245  22155213.8444                   22155214.9774
 -24424406.48248 -18981610.65146  20043930.1414                   20043930.2464
 -14011356.72647 -10873081.06145  22562078.0234                   22562078.5554
 -17810319.68948 -13831388.94646  21284063.0394                   21284061.0004
 11  7 29  0 38 30.0000000  0  8G17G28G12G10G09G04G27G02
 -13722359.362 7 -10646089.707 7  21934373.789
  -9838780.45947  -7628426.18144  22862027.3914                   22862027.9844
  -6214776.532 7  -4829297.902 6  23566798.742
 -12954244.96647 -10050837.31945  22137046.6024                   22137047.6134
 -10871451.59347  -8427002.77845  22159847.5164                   22159848.2234
 -24394301.92448 -18958152.55846  20049658.9534                   20049658.6334
 -13983133.88347 -10851089.28145  22567448.4924                   22567449.3484
 -17862284.57848 -13871881.04546  21274174.5474                   21274172.6484
 11  7 29  0 39  0.0000000  0  8G17G28G12G10G09G04G27G02
 -13684013.953 7 -10616210.177 7  21941670.648
  -9758303.37047  -7565716.83744  22877341.9694                   22877342.1724
  -6309814.824 7  -4903353.677 6  23548713.742
 -13032790.33847 -10112041.44945  22122100.0234                   22122100.7894
 -10846517.02847  -8407573.27745  22164592.4224                   22164593.2424
 -24363721.45548 -18934323.62946  20055478.3914                   20055478.3014
 -13954492.79647 -10828771.58445  22572898.3914                   22572899.6334
 -17913884.61848 -13912088.84346  21264355.1414                   21264353.7274
 11  7 29  0 39 30.0000000  0  8G17G28G12G10G09G04G27G02
 -13645578.414 8 -10586260.424 7  21948984.461
  -9677502.61447  -7502755.27444  22892717.3674                   22892718.5434
  -6404762.378 7  -4977338.741 6  23530645.891
 -13111014.65147 -10172995.41445  22107214.2274                   22107214.9654
 -10821000.31147  -8387690.14745  22169448.4774                   22169449.1334
 -24332668.18648 -18910126.27846  20061387.2974                   20061387.3134
 -13925436.21347 -10806130.12645  22578427.9534                   22578428.9144
 -17965120.52548 -13952012.89446  21254605.3054                   21254603.4774
 11  7 29  0 40  0.0000000  0  8G17G28G12G10G09G04G27G02
 -13607051.320 8 -10556239.327 7  21956316.117
  -9596378.15047  -7439541.48144  22908154.8674                   22908155.4804
  -6499615.698 7  -5051250.365 6  23512595.828
 -13188913.69347 -10233695.91345  22092390.4614                   22092391.3484
 -10794901.80747  -8367353.67845  22174414.4924                   22174415.2854
 -24301142.67548 -18885560.95246  20067386.6884                   20067386.6954
 -13895964.90947 -10783165.51845  22584035.7664                   22584037.2344
 -18015990.50148 -13991651.80546  21244925.5084                   21244923.0354
 11  7 29  0 40 30.0000000  0  8G17G28G12G10G09G04G27G02
 -13568432.857 7 -10526147.041 7  21963665.109
  -9514931.76947  -7376076.87144  22923654.1884                   22923654.1484
  -6594373.115 7  -5125087.269 6  23494564.664
 -13266484.84747 -10294140.92445  22077628.8284                   22077629.6724
 -10768223.94747  -8346565.77145  22179491.2194                   22179491.6884
 -24269147.41848 -18860629.59346  20073475.3204                   20073475.3484
 -13866081.08547 -10759879.45145  22589722.4924                   22589723.7114
 -18066495.32248 -14031006.18546  21235314.3984                   21235312.4064
 11  7 29  0 41  0.0000000  0  8G17G28G12G10G09G04G27G02
 -13529724.357 7 -10495984.589 7  21971030.836
  -9433165.96147  -7312363.32044  22939213.0084                   22939214.1134
  -6689033.443 7  -5198848.496 6  23476550.766
 -13343726.03547 -10354328.82145  22062930.7584                   22062931.3914
 -10740970.03047  -8325328.97945  22184677.9614                   22184678.3874
 -24236685.85648 -18835334.87746  20079652.2114                   20079652.6174
 -13835787.85847 -10736274.38145  22595487.4384                   22595488.3874
 -18116635.56048 -14070076.48146  21225773.2114                   21225771.0554
 11  7 29  0 41 30.0000000  0  8G17G28G12G10G09G04G27G02
 -13490923.054 8 -10465749.832 7  21978414.461
  -9351079.92347  -7248400.26044  22954833.5634                   22954834.4264
  -6783592.648 7  -5272530.919 7  23458556.859
 -13420631.75347 -10414255.31645  22048295.8594                   22048296.3094
 -10713139.69047  -8303643.03145  22189973.5554                   22189974.2814
 -24203757.41648 -18809676.36146  20085918.5394                   20085918.4304
 -13805084.77147 -10712349.92745  22601329.8834                   22601331.1094
 -18166408.77248 -14108860.77546  21216301.6414                   21216299.5004
 11  7 29  0 42  0.0000000  0  8G17G28G12G10G09G04G27G02
 -13452030.938 7 -10435444.303 7  21985815.414
  -9268676.72247  -7184190.03344  22970514.8364                   22970515.5434
  -6878050.624 7  -5346134.455 7  23440582.289
 -13497200.83247 -10473919.48345  22033725.0944                   22033726.1804
 -10684736.81747  -8281510.95845  22195378.5164                   22195379.2854
 -24170366.40648 -18783657.39246  20092272.4614                   20092272.5744
 -13773975.67347 -10688109.11345  22607250.0554                   22607250.9654
 -18215817.03048 -14147360.69346  21206899.1254                   21206897.4614
 11  7 29  0 42 30.0000000  0  8G17G28G12G10G09G04G27G02
 -13413045.813 7 -10405066.301 7  21993233.977
  -9185955.82247  -7119732.27544  22986256.0864                   22986256.6524
  -6972403.499 7  -5419656.110 6  23422627.469
 -13573428.56447 -10533317.66245  22019219.4304                   22019220.5984
 -10655761.74447  -8258933.00745  22200892.2194                   22200892.8954
 -24136512.75148 -18757277.93646  20098714.7584                   20098714.8164
 -13742460.59447 -10663551.94145  22613247.0314                   22613248.3204
 -18264857.89048 -14185574.32346  21197567.4614                   21197565.3984
 11  7 29  0 43  0.0000000  0  8G17G28G12G10G09G04G27G02
 -13373968.617 7 -10374616.561 7  22000670.125
  -9102919.32347  -7055028.59144  23002057.5234                   23002058.5514
  -7066649.377 7  -5493094.393 6  23404693.078
 -13649312.00747 -10592447.57445  22004779.4534                   22004780.0234
 -10626217.31547  -8235911.41245  22206514.3444                   22206514.8984
 -24102199.42548 -18730540.27646  20105244.1804                   20105244.4534
 -13710542.16847 -10638680.48345  22619320.7344                   22619322.1604
 -18313531.81648 -14223502.02946  21188304.8134                   21188303.0434
 11  7 29  0 43 30.0000000  0  9G17G28G12G10G09G04G05G27G02
 -13334799.185 7 -10344094.939 7  22008123.992
  -9019569.51847  -6990080.77544  23017918.8134                   23017919.0084
  -7160787.125 7  -5566448.417 6  23386779.250
 -13724849.11947 -10651307.60945  21990405.3834                   21990405.7544
 -10596106.51947  -8212448.48945  22212244.4384                   22212244.6684
 -24067429.39848 -18703446.75246  20111861.1024                   20111860.5204
   -272403.59716                  24698332.852
 -13678223.00147 -10613496.75545  22625470.8594                   22625472.2664
 -18361839.51748 -14261144.36246  21179112.0314                   21179110.3954
 11  7 29  0 44  0.0000000  0  9G17G28G12G10G09G04G05G27G02
 -13295541.709 8 -10313504.710 7  22015594.258
  -8935911.21347  -6924892.56144  23033838.2114                   23033839.2274
  -7254818.183 7  -5639719.310 6  23368885.523
 -13800040.31447 -10709898.10445  21976096.7194                   21976096.9964
 -10565435.29747  -8188548.87845  22218080.7114                   22218081.5664
 -24032208.41348 -18676001.83546  20118563.3364                   20118563.3594
   -377101.118 6   -279261.07416  24678409.273
 -13645508.94546 -10588005.32845  22631696.6884                   22631697.6334
 -18409784.67848 -14298504.20146  21169988.4224                   21169986.7664
 11  7 29  0 44 30.0000000  0  9G17G28G12G10G09G04G05G27G02
 -13256184.731 7 -10282836.954 7  22023083.773
  -8851935.46347  -6859457.00944  23049818.3754                   23049819.4264
  -7348729.614 7  -5712896.998 6  23351015.047
 -13874871.82947 -10768208.33445  21961856.6884                   21961857.5234
 -10534194.42747  -8164205.38345  22224025.6094                   22224026.2974
 -23996527.53548 -18648198.55846  20125353.2664                   20125353.2774
   -481881.275 6   -360907.674 6  24658470.773
 -13612390.91147 -10562199.08545  22637998.7424                   22637999.3244
 -18457356.22048 -14335572.89746  21160935.7504                   21160934.1334
 11  7 29  0 45  0.0000000  0  9G17G28G12G10G09G04G05G27G02
 -13216734.535 8 -10252096.568 7  22030591.070
  -8767649.97547  -6793780.08144  23065857.7974                   23065858.2074
  -7442525.892 7  -5785984.954 6  23333165.898
 -13949347.19747 -10826241.04645  21947684.2814                   21947685.2234
 -10502393.22847  -8139425.26145  22230077.6804                   22230078.1994
 -23960395.73248 -18620043.90746  20132228.7974                   20132228.6334
   -586748.767 6   -442622.256 6  24638514.203
 -13578877.63947 -10536084.88945  22644376.0314                   22644376.7384
 -18504560.71548 -14372355.59646  21151952.9534                   21151951.2894
 11  7 29  0 45 30.0000000  0  9G17G28G12G10G09G04G05G27G02
 -13177190.662 7 -10221283.178 7  22038115.906
  -8683055.36347  -6727862.27144  23081955.3284                   23081956.1094
  -7536203.798 7  -5858980.664 6  23315339.711
 -14023462.36047 -10883993.07945  21933580.6954                   21933581.4884
 -10470032.97547  -8114209.50645  22236235.3754                   22236236.0394
 -23923814.29248 -18591538.89046  20139190.2584                   20139189.7974
   -691700.065 6   -524402.148 6  24618542.172
 -13544970.18947 -10509663.53045  22650828.0474                   22650829.1134
 -18551397.29048 -14408851.60346  21143040.6954                   21143038.5314
 11  7 29  0 46  0.0000000  0  9G17G28G12G10G09G04G05G27G02
 -13137552.809 7 -10190396.554 7  22045658.703
  -8598153.21147  -6661704.84744  23098111.8754                   23098112.8364
  -7629761.528 7  -5931882.745 6  23297536.328
 -14097214.65347 -10941462.35445  21919546.2274                   21919547.3054
 -10437116.15147  -8088560.06344  22242499.0394                   22242500.0314
 -23886785.58248 -18562685.35846  20146236.4144                   20146236.2114
   -796732.803 6   -606245.544 6  24598555.281
 -13510670.89746 -10482936.84245  22657354.8914                   22657356.1884
 -18597865.84848 -14445060.84346  21134197.6254                   21134195.9104
 11  7 29  0 46 30.0000000  0  9G17G28G12G10G09G04G05G27G02
 -13097818.984 7 -10159435.150 7  22053219.836
  -8512943.24247  -6595307.55444  23114326.3674                   23114327.4694
  -7723194.951 7  -6004687.960 6  23279756.297
 -14170599.08347 -10998644.98245  21905581.6644                   21905582.4734
 -10403642.84447  -8062477.00945  22248868.9224                   22248869.6644
 -23849310.10348 -18533483.68446  20153367.8204                   20153367.7344
   -901843.421 6   -688149.569 6  24578552.727
 -13475979.97447 -10455904.99045  22663956.6484                   22663957.6254
 -18643964.52748 -14480981.86846  21125425.4384                   21125423.4264
 11  7 29  0 47  0.0000000  0  9G17G28G12G10G09G04G05G27G02
 -13057991.370 8 -10128400.654 7  22060798.727
  -8427429.32747  -6528673.39144  23130599.6484                   23130600.4024
  -7816504.391 7  -6077396.566 6  23262000.117
 -14243614.99647 -11055540.46445  21891687.2114                   21891687.4734
 -10369618.01047  -8035964.18345  22255343.3134                   22255344.4414
 -23811392.04148 -18503937.14246  20160583.1334                   20160583.3754
  -1007031.194 7   -770113.799 6  24558536.086
 -13440901.72346 -10428571.33044  22670631.5234                   22670633.0394
 -18689695.76648 -14516616.56946  21116722.8364                   21116721.2894
 11  7 29  0 47 30.0000000  0  9G17G28G12G10G09G04G05G27G02
 -13018069.113 7 -10097292.423 7  22068395.930
  -8341612.76647  -6461803.42844  23146929.6644                   23146930.9304
  -7909687.448 7  -6150006.691 6  23244267.445
 -14316259.15447 -11112146.26045  21877863.3364                   21877863.6564
 -10335043.37247  -8009022.95045  22261922.8524                   22261923.4844
 -23773033.48048 -18474047.34646  20167882.5314                   20167882.6524
  -1112293.517 6   -852136.097 6  24538505.000
 -13405437.99247 -10400937.29045  22677380.3594                   22677381.5084
 -18735059.17148 -14551964.65446  21108090.4774                   21108089.0274
 11  7 29  0 48  0.0000000  0  9G17G28G12G10G09G04G05G27G02
 -12978049.531 8 -10066108.353 7  22076010.828
  -8255491.90647  -6394696.35344  23163317.9844                   23163319.6684
  -8002738.604 7  -6222514.050 6  23226560.633
 -14388525.50847 -11168457.67245  21864111.2274                   21864112.0044
 -10299918.64647  -7981653.07245  22268607.4614                   22268608.2344
 -23734233.96848 -18443813.96046  20175266.0554                   20175266.0234
  -1217625.243 6   -934212.499 6  24518461.453
 -13369588.05047 -10373002.31145  22684202.3834                   22684203.6174
 -18780051.75248 -14587023.78946  21099529.1484                   21099526.9884
 11  7 29  0 48 30.0000000  0  9G17G28G12G10G09G04G05G27G02
 -12937935.235 7 -10034850.478 7  22083644.945
  -8169071.52647  -6327355.86544  23179763.2344                   23179764.5864
  -8095659.055 7  -6294919.565 6  23208878.875
 -14460413.88347 -11224474.54145  21850431.7664                   21850432.0554
 -10264248.84247  -7953858.44745  22275394.9144                   22275395.5864
 -23694998.19948 -18413240.63846  20182732.3674                   20182731.9964
  -1323026.209 6  -1016342.828 6  24498403.789
 -13333356.55647 -10344770.00744  22691097.1094                   22691097.9104
 -18824676.26848 -14621796.11946  21091036.9844                   21091035.0784
 11  7 29  0 49  0.0000000  0  9G17G28G12G10G09G04G05G27G02
 -12897725.173 7 -10003517.989 7  22091296.586
  -8082352.01646  -6259782.31644  23196265.4614                   23196266.8794
  -8188445.490 7  -6367220.650 6  23191221.867
 -14531920.55747 -11280193.97745  21836824.3914                   21836824.9574
 -10228036.04747  -7925640.71845  22282286.1094                   22282286.9804
 -23655327.90448 -18382328.72246  20190281.1414                   20190281.4144
  -1428493.628 6  -1098524.998 6  24478333.406
 -13296745.16947 -10316241.69244  22698064.1254                   22698065.0704
 -18868932.37448 -14656281.37846  21082615.0084                   21082613.6844
 11  7 29  0 49 30.0000000  0  9G17G28G12G10G09G04G05G27G02
 -12857417.829 7  -9972109.684 7  22098966.820
  -7995333.86047  -6191976.04144  23212824.5864                   23212825.9534
  -8281094.995 7  -6439415.044 6  23173591.141
 -14603041.87247 -11335613.13645  21823289.8054                   21823290.4414
 -10191281.78147  -7897001.04945  22289279.9224                   22289280.6294
 -23615224.71648 -18351079.48046  20197912.7344                   20197912.0904
  -1534024.311 6  -1180756.423 6  24458251.703
 -13259755.18547 -10287418.37145  22705102.8754                   22705104.1684
 -18912818.54748 -14690478.38146  21074264.3444                   21074261.9454
 11  7 29  0 50  0.0000000  0  9G17G28G12G10G09G04G05G27G02
 -12817012.722 7  -9940625.208 7  22106655.758
  -7908018.50847  -6123938.17644  23229440.2504                   23229441.4104
  -8373604.633 7  -6511500.460 6  23155987.352
 -14673773.87547 -11390728.93345  21809830.4454                   21809830.9304
 -10153987.40247  -7867940.52545  22296377.0394                   22296377.8014
 -23574689.78048 -18319493.81946  20205626.1644                   20205626.1024
  -1639614.569 6  -1263034.267 6  24438158.094
 -13222387.97747 -10258301.11245  22712214.0314                   22712214.6024
 -18956334.74748 -14724387.10146  21065983.2274                   21065980.9264
 11  7 29  0 50 30.0000000  0  9G17G28G12G10G09G04G05G27G02
 -12776511.049 7  -9909065.485 7  22114362.641
  -7820408.54247  -6055670.73743  23246111.5864                   23246112.5234
  -8465973.438 7  -6583476.142 7  23138410.641
 -14744114.94547 -11445540.11845  21796445.0704                   21796445.7854
 -10116156.66247  -7838462.05545  22303575.8054                   22303577.3874
 -23533726.74148 -18287574.56346  20213420.9454                   20213421.3674
  -1745263.008 6  -1345357.427 6  24418053.328
 -13184646.93747 -10228892.55544  22719395.6954                   22719396.7274
 -18999481.99248 -14758008.30646  21057772.6174                   21057770.5234
 11  7 29  0 51  0.0000000  0  9G17G28G12G10G09G04G05G27G02
 -12735912.096 8  -9877429.958 7  22122088.539
  -7732504.98047  -5987174.53044  23262839.7584                   23262840.8714
  -8558198.655 7  -6655339.922 6  23120860.273
 -14814061.73547 -11500044.05745  21783134.6024                   21783134.9614
 -10077791.51247  -7808567.15545  22310876.7894                   22310877.5664
 -23492337.37048 -18255323.10146  20221297.2344                   20221297.1564
  -1850967.069 6  -1427723.988 6  24397939.031
 -13146534.00747 -10199194.19745  22726648.4614                   22726649.4384
 -19042259.95948 -14791341.76746  21049632.3984                   21049629.9694
 11  7 29  0 51 30.0000000  0  9G17G28G12G10G09G04G05G27G02
 -12695214.494 7  -9845717.567 7  22129833.313
  -7644308.99947  -5918450.47944  23279622.9384                   23279624.1024
  -8650277.171 7  -6727089.389 7  23103338.391
 -14883610.67247 -11554237.98345  21769899.9614                   21769900.2624
 -10038894.21647  -7778257.60145  22318278.9064                   22318279.4224
 -23450523.41848 -18222740.80246  20229254.0554                   20229254.2734
  -1956723.523 6  -1510131.358 6  24377814.094
 -13108050.55947 -10169207.13644  22733971.6724                   22733973.0124
 -19084668.15448 -14824387.10546  21041562.3674                   21041560.0744
 11  7 29  0 52  0.0000000  0  9G17G28G12G10G09G04G05G27G02
 -12654418.944 7  -9813928.837 7  22137596.203
  -7555823.26547  -5849500.63344  23296460.8444                   23296461.9924
  -8742207.906 7  -6798723.705 7  23085843.867
 -14952759.71347 -11608120.30445  21756741.1174                   21756741.3674
  -9999467.93747  -7747535.84845  22325780.6804                   22325782.0594
 -23408288.20148 -18189830.25046  20237291.2034                   20237291.5554
  -2062530.910 6  -1592578.423 6  24357679.688
 -13069199.88847 -10138933.91945  22741365.0314                   22741365.8634
 -19126707.30448 -14857144.86446  21033562.3204                   21033560.4344
 11  7 29  0 52 30.0000000  0  9G17G28G12G10G09G04G05G27G02
 -12613523.881 8  -9782062.577 7  22145378.359
  -7467047.57447  -5780324.82943  23313354.3674                   23313355.3364
  -8833986.971 7  -6870239.835 7  23068378.984
 -15021504.18847 -11661687.38945  21743659.4774                   21743659.5864
  -9959513.49447  -7716402.54345  22333384.4064                   22333384.9774
 -23365632.06148 -18156591.69946  20245408.2734                   20245408.8984
  -2168384.956 6  -1675061.819 6  24337535.781
 -13029982.42647 -10108374.88644  22748827.4534                   22748828.5514
 -19168375.97748 -14889613.94746  21025632.9844                   21025631.1024
 11  7 29  0 53  0.0000000  0  9G17G28G12G10G09G04G05G27G02
 -12572530.281 8  -9750119.540 7  22153178.719
  -7377984.76647  -5710925.30843  23330302.8674                   23330303.6724
  -8925613.376 7  -6941637.009 6  23050943.547
 -15089842.42347 -11714937.91945  21730655.0474                   21730655.5354
  -9919034.64747  -7684860.60845  22341087.3364                   22341087.5514
 -23322558.55248 -18123027.92846  20253605.4144                   20253605.3284
  -2274283.897 6  -1757580.216 6  24317383.586
 -12990401.51447 -10077532.66845  22756360.1174                   22756361.0864
 -19209675.66448 -14921795.50946  21017774.3134                   21017771.8094
 11  7 29  0 53 30.0000000  0  9G17G28G12G10G09G04G05G27G02
 -12531437.451 7  -9718099.163 7  22160998.938
  -7288635.85347  -5641302.88943  23347305.3984                   23347306.2584
  -9017084.260 7  -7012912.992 6  23033536.828
 -15157771.18847 -11767869.37345  21717728.5164                   21717729.3134
  -9878034.00147  -7652912.08145  22348889.4844                   22348890.0704
 -23279069.98848 -18089140.74646  20261880.7504                   20261880.9414
  -2380225.166 7  -1840131.555 6  24297223.289
 -12950459.15947 -10046408.80544  22763960.2894                   22763961.7114
 -19250605.99748 -14953689.26546  21009985.3594                   21009983.5474
 11  7 29  0 54  0.0000000  0  9G17G28G12G10G09G04G05G27G02
 -12490244.565 8  -9686000.836 7  22168837.672
  -7199002.36846  -5571458.68043  23364362.2734                   23364363.4694
  -9108397.171 7  -7084065.887 6  23016160.352
 -15225287.24047 -11820479.24745  21704880.6644                   21704881.1024
  -9836513.46147  -7620558.44245  22356790.5004                   22356791.4774
 -23235168.26848 -18054931.61846  20270235.1414                   20270235.1564
  -2486206.334 6  -1922714.019 6  24277055.578
 -12910157.24946 -10015004.76644  22771629.7584                   22771631.2974
 -19291166.95848 -14985295.18746  21002266.8594                   21002264.6414
 11  7 29  0 54 30.0000000  0  9G17G28G12G10G09G04G05G27G02
 -12448950.892 8  -9653823.964 7  22176695.672
  -7109085.46147  -5501393.64143  23381472.8914                   23381474.1914
  -9199549.168 7  -7155093.405 6  22998814.797
 -15292387.33747 -11872764.98945  21692112.0554                   21692112.1134
  -9794475.10347  -7587801.32545  22364790.0944                   22364791.1764
 -23190854.93048 -18020401.75646  20278667.7504                   20278667.6684
  -2592223.674 6  -2005324.662 6  24256881.484
 -12869497.48847  -9983321.87744  22779367.2194                   22779368.0554
 -19331357.99048 -15016612.85846  20994618.8054                   20994616.6134
 11  7 29  0 55  0.0000000  0  9G17G28G12G10G09G04G05G27G02
 -12407556.732 7  -9621568.793 7  22184572.406
  -7018887.03647  -5431109.24643  23398636.9774                   23398638.1994
  -9290538.528 7  -7225994.183 6  22981500.242
 -15359068.43047 -11924724.23545  21679422.6094                   21679423.2074
  -9751922.22647  -7554643.27845  22372887.6884                   22372888.7114
 -23146132.67448 -17985553.26146  20287178.0234                   20287177.7974
  -2698275.044 6  -2087961.792 6  24236700.234
 -12828482.46346  -9951362.15444  22787171.8834                   22787173.1684
 -19371179.34248 -15047642.46146  20987040.8834                   20987039.0864
 11  7 29  0 55 30.0000000  0  9G17G28G12G10G09G04G05G27G02
 -12366062.186 8  -9589235.405 7  22192468.930
  -6928409.53546  -5360607.41243  23415854.7734                   23415855.4804
  -9381363.252 7  -7296766.681 6  22964217.008
 -15425328.38347 -11976355.33345  21666814.1804                   21666814.6374
  -9708857.99647  -7521086.78245  22381082.6564                   22381083.8014
 -23101004.31348 -17950388.31846  20295765.4614                   20295765.7424
  -2804358.467 6  -2170623.921 6  24216513.164
 -12787115.14347  -9919127.91844  22795043.9224                   22795044.9654
 -19410631.75348 -15078384.58346  20979533.1804                   20979531.5984
 11  7 29  0 56  0.0000000  0  9G17G28G12G10G09G04G05G27G02
 -12324465.583 7  -9556822.486 7  22200384.523
  -6837653.28146  -5289888.32244  23433124.7424                   23433125.6644
  -9472019.723 7  -7367408.073 6  22946965.586
 -15491163.19647 -12027655.14445  21654286.1334                   21654286.5234
  -9665283.53747  -7487132.69945  22389375.0004                   22389375.3164
 -23055470.98748 -17914907.82046  20304430.3054                   20304430.2544
  -2910470.056 6  -2253307.978 6  24196319.945
 -12745396.42446  -9886619.86844  22802982.2974                   22802983.6644
 -19449714.30648 -15108838.50346  20972096.1724                   20972093.7974
 11  7 29  0 56 30.0000000  0  9G17G28G12G10G09G04G05G27G02
 -12282766.406 7  -9524329.634 7  22208319.570
  -6746619.29246  -5218952.85043  23450448.0164                   23450449.6844
  -9562505.206 7  -7437916.227 7  22929746.523
 -15556569.37047 -12078620.95745  21641839.3834                   21641840.1604
  -9621201.33947  -7452782.97045  22397763.4774                   22397763.9774
 -23009534.77548 -17879113.38546  20313171.3754                   20313171.8634
  -3016606.866 6  -2336011.734 6  24176122.289
 -12703328.37047  -9853839.61644  22810988.2584                   22810989.3554
 -19488426.62648 -15139003.93446  20964729.4924                   20964727.4574
 11  7 29  0 57  0.0000000  0  9G17G28G12G10G09G04G05G27G02
 -12240966.077 7  -9491757.972 7  22216273.516
  -6655311.29746  -5147803.85243  23467823.7034                   23467824.7854
  -9652819.542 7  -7508291.007 7  22912560.250
 -15621545.99048 -12129252.06145  21629474.8284                   21629475.0904
  -9576615.67447  -7418040.92545  22406247.4144                   22406248.4494
 -22963199.81648 -17843008.23046  20321988.6954                   20321988.6484
  -3122767.935 6  -2418734.375 6  24155920.414
 -12660915.15247  -9820790.39944  22819058.8674                   22819060.4144
 -19526771.06748 -15168882.69646  20957432.3364                   20957430.2424
 11  7 29  0 57 30.0000000  0  9G17G28G12G10G09G04G05G27G02
 -12199062.999 7  -9459106.244 7  22224247.906
  -6563729.67946  -5076441.62743  23485250.6954                   23485252.3094
  -9742958.709 7  -7578529.283 7  22895407.398
 -15686089.11947 -12179545.37645  21617192.8524                   21617193.0354
  -9531527.79647  -7382907.56045  22414827.4304                   22414828.3014
 -22916466.90148 -17806592.98746  20330881.8524                   20330881.8674
  -3228949.255 6  -2501472.791 6  24135715.648
 -12618157.64147  -9787472.91145  22827195.7734                   22827197.3794
 -19564746.08348 -15198473.60346  20950206.1024                   20950204.1134
 11  7 29  0 58  0.0000000  0  9G17G28G12G10G09G04G05G27G02
 -12157056.086 8  -9426373.597 7  22232241.289
  -6471875.64846  -5004867.11143  23502729.5704                   23502731.4384
  -9832919.908 7  -7648628.876 7  22878288.453
 -15750195.42747 -12229498.30945  21604993.4924                   21604994.0864
  -9485940.24147  -7347384.82145  22423502.8204                   22423503.7114
 -22869337.87948 -17769869.07946  20339850.2584                   20339850.3134
  -3335147.929 6  -2584224.763 6  24115505.180
 -12575057.56847  -9753888.47944  22835397.3674                   22835398.7114
 -19602351.46148 -15227776.47546  20943050.2584                   20943048.1254
 11  7 29  0 58 30.0000000  0  9G17G28G12G10G09G04G05G27G02
 -12114944.755 7  -9393559.594 7  22240254.914
  -6379750.65846  -4933081.51643  23520260.8914                   23520263.0084
  -9922700.298 7  -7718587.568 7  22861203.484
 -15813861.73547 -12279108.38545  21592878.1564                   21592878.6684
  -9439855.60147  -7311474.75545  22432271.8444                   22432273.1294
 -22821815.01848 -17732838.28346  20348893.5234                   20348893.2234
  -3441360.953 6  -2666987.923 6  24095293.828
 -12531617.08247  -9720038.79144  22843663.8594                   22843665.0354
 -19639586.95848 -15256791.12046  20935964.4224                   20935962.2814
 11  7 29  0 59  0.0000000  0  9G17G28G12G10G09G04G05G27G02
 -12072729.839 7  -9360664.881 7  22248288.430
  -6287357.78946  -4861087.14843  23537843.3444                   23537844.4534
 -10012299.216 7  -7788404.859 7  22844154.008
 -15877086.41747 -12328374.33145  21580846.9694                   21580847.7544
  -9393277.86547  -7275180.45945  22441136.1024                   22441136.8794
 -22773901.78148 -17695503.30546  20358010.9924                   20358011.2074
  -3547587.148 6  -2749761.346 6  24075079.195
 -12487839.91147  -9685926.76444  22851994.4304                   22851996.0434
 -19676454.58748 -15285519.12346  20928948.8204                   20928946.9264
 11  7 29  0 59 30.0000000  0  9G17G28G12G10G09G04G05G27G02
 -12030411.294 8  -9327689.417 7  22256341.180
  -6194698.55346  -4788885.23443  23555475.5474                   23555476.9694
 -10101713.962 7  -7858078.642 7  22827137.836
 -15939866.60347 -12377293.92345  21568900.3364                   21568901.0784
  -9346209.58647  -7238503.91845  22450092.5784                   22450093.2814
 -22725600.65148 -17657866.06746  20367202.3914                   20367202.5904
  -3653823.515 7  -2832542.716 6  24054863.492
 -12443728.10947  -9651553.98644  22860388.6884                   22860389.9144
 -19712954.12548 -15313960.30146  20922003.0394                   20922000.9304
 11  7 29  1  0  0.0000000  0  9G17G28G12G10G09G04G05G27G02
 -11987987.463 8  -9294631.902 7  22264414.086
  -6101773.45846  -4716476.15643  23573157.9064                   23573160.0434
 -10190940.746 7  -7927605.953 7  22810159.031
 -16002198.46647 -12425864.17245  21557038.7974                   21557039.1764
  -9298652.27347  -7201446.30445  22459142.6564                   22459143.8404
 -22676912.42048 -17619927.19746  20376467.4224                   20376467.7114
  -3760066.104 7  -2915328.967 6  24034646.352
 -12399283.06147  -9616921.52145  22868846.2974                   22868847.6764
 -19749084.59548 -15342113.89346  20915127.6414                   20915125.6214
 11  7 29  1  0 30.0000000  0  9G17G28G12G10G09G04G05G27G02
 -11945457.989 7  -9261492.059 7  22272507.102
  -6008584.31147  -4643861.31343  23590892.3524                   23590893.5784
 -10279977.733 7  -7996985.372 7  22793216.281
 -16064078.92747 -12474082.68545  21545263.4384                   21545264.1254
  -9250608.92347  -7164009.96245  22468285.0394                   22468285.9024
 -22627839.86048 -17581688.84846  20385805.8204                   20385805.8524
  -3866312.375 7  -2998118.080 6  24014428.180
 -12354507.14447  -9582031.24844  22877366.7114                   22877368.5744
 -19784846.42348 -15369980.22246  20908322.3054                   20908320.4104
 11  7 29  1  1  0.0000000  0  9G17G28G12G10G09G04G05G27G02
 -11902822.186 7  -9228269.386 7  22280620.594
  -5915133.00546  -4571042.18243  23608675.0004                   23608676.1294
 -10368822.202 7  -8066214.777 7  22776309.383
 -16125505.26747 -12521947.34045  21533574.5234                   21533574.6804
  -9202082.36647  -7126197.08645  22477519.0084                   22477520.3164
 -22578385.06848 -17543152.65946  20395216.8834                   20395217.4614
  -3972559.510 7  -3080907.866 6  23994209.578
 -12309402.74147  -9546885.00744  22885949.7974                   22885951.3404
 -19820239.77348 -15397559.43346  20901587.2504                   20901585.1054
 11  7 29  1  1 30.0000000  0  9G17G28G12G10G09G04G05G27G02
 -11860081.007 7  -9194964.606 7  22288754.344
  -5821421.93046  -4498020.63343  23626508.2424                   23626509.2074
 -10457472.574 7  -8135292.928 7  22759439.484
 -16186475.57747 -12569456.63845  21521972.1094                   21521972.1564
  -9153076.32447  -7088010.60245  22486844.4774                   22486845.8014
 -22528551.23348 -17504321.11146  20404700.0704                   20404700.0004
  -4078805.679 7  -3163696.918 6  23973991.227
 -12263972.92947  -9511485.19944  22894594.0634                   22894596.4024
 -19855265.71048 -15424852.34446  20894922.2194                   20894919.9024
 11  7 29  1  2  0.0000000  0  9G17G28G12G10G09G04G05G27G02
 -11817232.846 7  -9161576.448 7  22296907.789
  -5727451.82646  -4424797.23043  23644389.8524                   23644391.7774
 -10545925.524 7  -8204217.257 7  22742607.563
 -16246986.49048 -12616607.97245  21510457.0704                   21510457.5554
  -9103592.40747  -7049451.73445  22496261.1564                   22496262.7034
 -22478339.82148 -17465195.34046  20414254.7584                   20414254.7424
  -4185047.352 7  -3246482.459 6  23953774.234
 -12218219.28647  -9475833.06245  22903301.5394                   22903303.3364
 -19889923.31648 -15451858.23746  20888327.0164                   20888325.1294
 11  7 29  1  2 30.0000000  0  9G17G28G12G10G09G04G05G27G02
 -11774276.682 7  -9128104.137 7  22305082.133
  -5633224.19346  -4351373.19043  23662320.6954                   23662322.6024
 -10634177.931 7  -8272985.312 7  22725813.875
 -16307034.43348 -12663398.54945  21499030.9224                   21499030.8484
  -9053632.87847  -7010522.25445  22505768.0084                   22505769.1764
 -22427752.79948 -17425776.89346  20423880.9224                   20423881.2464
  -4291281.092 7  -3329261.808 6  23933558.867
 -12172143.55147  -9439929.94544  22912069.4454                   22912071.0004
 -19924212.61048 -15478577.14346  20881801.9614                   20881799.7584
 11  7 29  1  3  0.0000000  0  9G17G28G12G10G09G04G05G27G02
 -11731214.354 7  -9094549.114 7  22313277.023
  -5538742.89646  -4277751.45843  23680300.1484                   23680301.4454
 -10722229.228 7  -8341596.667 7  22709057.727
 -16366619.12747 -12709828.16045  21487691.7814                   21487692.3794
  -9003203.27047  -6971226.49644  22515364.6254                   22515365.9024
 -22376794.57648 -17386069.19746  20433578.3524                   20433578.7974
  -4397506.505 7  -3412034.686 6  23913344.750
 -12125750.53747  -9403779.60344  22920897.7344                   22920899.6294
 -19958136.16548 -15505011.05546  20875346.4924                   20875344.3204
 11  7 29  1  3 30.0000000  0  9G17G28G12G10G09G04G05G27G02
 -11688044.026 7  -9060909.922 7  22321492.125
  -5444008.41746  -4203932.45343  23698327.5634                   23698329.3484
 -10810076.360 7  -8410048.942 7  22692340.906
 -16425736.02247 -12755893.25345  21476442.2114                   21476442.5204
  -8952304.59847  -6931565.22645  22525050.5634                   22525051.6564
 -22325465.87148 -17346072.82046  20443345.3594                   20443345.7344
  -4503719.131 7  -3494797.586 6  23893132.406
 -12079041.12547  -9367382.70244  22929786.0004                   22929788.2034
 -19991692.56148 -15531158.87246  20868960.6414                   20868958.6724
 11  7 29  1  4  0.0000000  0  9G17G28G12G10G09G04G05G27G02
 -11644764.731 7  -9027185.815 7  22329727.578
  -5349021.33546  -4129916.65643  23716402.8754                   23716405.3204
 -10897715.732 7  -8478339.326 7  22675664.023
 -16484381.66547 -12801591.13145  21465282.5314                   21465282.7544
  -8900939.17547  -6891540.24644  22534824.8284                   22534825.8874
 -22273768.44048 -17305789.11946  20453183.6094                   20453183.7304
  -4609915.685 7  -3577547.958 6  23872924.258
 -12032016.92747  -9330740.52344  22938735.1644                   22938736.4694
 -20024881.45248 -15557020.31846  20862645.3674                   20862642.9454
 11  7 29  1  4 30.0000000  0  9G17G28G12G10G09G04G05G27G02
 -11601375.233 7  -8993375.843 7  22337984.180
  -5253783.62146  -4055705.51843  23734525.1884                   23734527.7504
 -10985144.575 7  -8546465.667 7  22659026.586
 -16542553.22347 -12846919.59245  21454212.7274                   21454212.7894
  -8849109.44347  -6851153.47945  22544687.6884                   22544689.4494
 -22221704.23248 -17265219.62346  20463090.9224                   20463090.9654
  -4716093.253 6  -3660283.563 6  23852719.352
 -11984680.02547  -9293854.66744  22947743.2424                   22947744.2664
 -20057702.80648 -15582595.37846  20856399.6484                   20856396.9614
 11  7 29  1  5  0.0000000  0  9G17G28G12G10G09G04G05G27G02
 -11557877.360 7  -8959481.438 7  22346261.813
  -5158298.25446  -3981301.45143  23752696.7034                   23752698.6804
 -11072362.055 7  -8614427.308 7  22642430.047
 -16600249.95448 -12891878.06445  21443233.3674                   21443233.7504
  -8796820.15747  -6810408.62044  22554638.2664                   22554639.6804
 -22169277.56948 -17224367.68546  20473067.5394                   20473067.3444
  -4822250.478 7  -3743003.312 6  23832518.078
 -11937034.56147  -9256728.37444  22956809.7664                   22956811.1374
 -20090158.81048 -15607885.75446  20850223.3594                   20850221.5744
 11  7 29  1  5 30.0000000  0  9G17G28G12G10G09G04G05G27G02
 -11514270.171 7  -8925501.845 7  22354559.938
  -5062567.25446  -3906705.93243  23770913.3984                   23770915.5554
 -11159365.546 7  -8682222.217 7  22625873.422
 -16657468.54947 -12936463.96645  21432345.2814                   21432345.1524
  -8744074.09647  -6769307.82544  22564675.4694                   22564676.5274
 -22116490.38348 -17183234.83146  20483112.5474                   20483112.5204
  -4928384.301 7  -3825704.815 6  23812321.445
 -11889082.84147  -9219363.43944  22965934.2274                   22965936.0274
 -20122249.29448 -15632891.31146  20844116.7974                   20844114.4884
 11  7 29  1  6  0.0000000  0  9G17G28G12G10G09G04G05G27G02
 -11470552.830 7  -8891436.415 7  22362879.164
  -4966592.48646  -3831920.51343  23789177.0234                   23789179.0744
 -11246151.912 7  -8749847.945 7  22609358.773
 -16714206.68447 -12980675.47045  21421547.8674                   21421548.4964
  -8690874.08747  -6727853.32645  22574799.0394                   22574800.7154
 -22063344.92148 -17141822.78646  20493225.8134                   20493226.1024
  -5034491.711 7  -3908385.760 6  23792129.703
 -11840827.27747  -9181761.74344  22975117.5394                   22975119.0784
 -20153974.78848 -15657612.46646  20838079.4924                   20838077.5864
 11  7 29  1  6 30.0000000  0  9G17G28G12G10G09G04G05G27G02
 -11426723.501 7  -8857283.731 7  22371219.547
  -4870373.52046  -3756944.79543  23807487.1334                   23807489.0864
 -11332717.369 7  -8817301.534 7  22592886.125
 -16770459.36847 -13024508.70945  21410843.6094                   21410844.0744
  -8637220.76847  -6686045.57845  22585009.1724                   22585010.3444
 -22009841.77248 -17100132.03746  20503407.1174                   20503407.1994
  -5140568.110 7  -3991042.535 6  23771943.859
 -11792268.19747  -9143923.54144  22984358.2114                   22984359.4414
 -20185333.38648 -15682047.72746  20832112.1484                   20832110.0664
 11  7 29  1  7  0.0000000  0  9G17G28G12G10G09G04G05G27G02
 -11382782.316 7  -8823043.875 7  22379581.484
  -4773913.13746  -3681780.91643  23825843.0474                   23825844.1954
 -11419060.410 7  -8884581.809 7  22576455.438
 -16826224.79548 -13067962.26345  21400231.6484                   21400232.2074
  -8583118.28847  -6643887.84245  22595304.4454                   22595305.8054
 -21955984.02148 -17058164.97346  20513655.7734                   20513656.0744
  -5246611.923 7  -4073673.942 6  23751763.734
 -11743409.07247  -9105851.52744  22993655.4844                   22993657.0514
 -20216326.41248 -15706198.12846  20826213.9144                   20826212.3954
 11  7 29  1  7 30.0000000  0  9G17G28G12G10G09G04G05G27G02
 -11338730.470 7  -8788717.793 7  22387964.258
  -4677214.55847  -3606431.47343  23844244.4534                   23844245.7544
 -11505179.601 7  -8951687.661 7  22560067.383
 -16881501.95547 -13111035.34645  21389713.1334                   21389713.0824
  -8528571.09347  -6601383.57245  22605684.6724                   22605685.3914
 -21901775.49848 -17015924.57746  20523971.0634                   20523971.4104
  -5352621.529 7  -4156278.692 6  23731591.031
 -11694253.69747  -9067548.67444  23003009.4614                   23003011.1214
 -20246955.91248 -15730065.25646  20820385.8984                   20820383.7194
 11  7 29  1  8  0.0000000  0  9G17G28G12G10G09G04G05G27G02
 -11294565.895 7  -8754303.858 7  22396368.164
  -4580278.30846  -3530896.82643  23862690.7344                   23862692.7544
 -11591071.324 7  -9018616.266 7  22543722.516
 -16936287.33148 -13153725.22745  21379287.2194                   21379287.6844
  -8473580.62347  -6558533.90345  22616149.2504                   22616150.2854
 -21847217.02848 -16973411.50246  20534353.6804                   20534353.8594
  -5458592.480 7  -4238853.320 6  23711424.945
 -11644803.04847  -9029015.74544  23012419.7424                   23012420.8984
 -20277220.58548 -15753648.11246  20814626.4534                   20814624.4964
 11  7 29  1  8 30.0000000  0  9G17G28G12G10G09G04G05G27G02
 -11250288.108 7  -8719801.731 7  22404793.813
  -4483106.07046  -3455178.29843  23881182.4064                   23881182.9534
 -11676732.711 7  -9085365.389 7  22527422.016
 -16990578.03647 -13196029.64145  21368955.9614                   21368956.3554
  -8418150.10247  -6515341.32445  22626696.7424                   22626698.1684
 -21792311.05348 -16930627.64146  20544801.7504                   20544801.9964
  -5564521.938 7  -4321395.601 6  23691267.547
 -11595059.61847  -8990254.65444  23021885.3364                   23021886.9344
 -20307120.63048 -15776946.83746  20808936.8754                   20808935.0234
 11  7 29  1  9  0.0000000  0  9G17G28G12G10G09G04G05G27G02
 -11205897.135 7  -8685211.403 7  22413241.867
  -4385700.06546  -3379277.56543  23899717.6024                   23899718.8404
 -11762161.839 7  -9151933.521 7  22511165.305
 -17044372.02248 -13237947.00445  21358719.5704                   21358719.4694
  -8362283.17747  -6471808.68044  22637327.8284                   22637329.1294
 -21737060.64748 -16887575.39346  20555315.6484                   20555315.7544
  -5670407.780 7  -4403903.892 6  23671117.695
 -11545026.69947  -8951268.01144  23031406.1644                   23031407.3954
 -20336657.23948 -15799962.36546  20803316.1024                   20803314.2114
 11  7 29  1  9 30.0000000  0  9G17G28G12G10G09G04G05G27G02
 -11161392.805 7  -8650532.727 7  22421710.914
  -4288062.75646  -3303196.61343  23918298.2034                   23918299.5864
 -11847356.087 7  -9218318.643 7  22494953.641
 -17097666.51748 -13279475.15045  21348577.8444                   21348577.7664
  -8305982.62547  -6427938.16444  22648041.8674                   22648043.5554
 -21681467.77448 -16844256.28446  20565894.5394                   20565894.5354
  -5776247.372 7  -4486376.130 6  23650977.055
 -11494706.80147  -8912057.73344  23040981.9614                   23040983.1294
 -20365830.97148 -15822695.12946  20797764.3674                   20797762.3594
 11  7 29  1 10  0.0000000  0  9G17G28G12G10G09G04G05G27G02
 -11116773.642 7  -8615764.579 7  22430201.531
  -4190195.25546  -3226936.33842  23936921.5164                   23936923.0084
 -11932312.576 7  -9284518.487 7  22478786.781
 -17150458.48548 -13320611.73146  21338531.6644                   21338532.0984
  -8249250.80047  -6383731.57744  22658837.7734                   22658838.6054
 -21625534.51248 -16800671.94046  20576538.4534                   20576538.8134
  -5882036.978 7  -4568809.440 6  23630845.289
 -11444101.84747  -8872625.34644  23050612.1334                   23050613.6604
 -20394641.41148 -15845144.80846  20792282.1334                   20792279.8874
 11  7 29  1 10 30.0000000  0  9G17G28G12G10G09G04G05G27G02
 -11072040.170 7  -8580907.350 7  22438713.742
  -4092099.76146  -3150498.33942  23955588.4224                   23955590.5864
 -12017029.516 7  -9350531.672 7  22462665.836
 -17202746.03647 -13361355.25045  21328581.7114                   21328582.2464
  -8192091.76947  -6339192.10544  22669714.6334                   22669715.6764
 -21569263.78048 -16756824.63146  20587246.7974                   20587247.1334
  -5987774.673 7  -4651202.296 6  23610724.398
 -11393215.09447  -8832973.37444  23060295.6804                   23060297.0234
 -20423089.75648 -15867312.33446  20786868.5314                   20786866.4344
 11  7 29  1 11  0.0000000  0  9G17G28G12G10G09G04G05G27G02
 -11027190.540 7  -8545959.609 7  22447248.008
  -3993777.01946  -3073883.23542  23974298.2424                   23974300.7074
 -12101503.021 7  -9416355.163 7  22446590.797
 -17254525.77848 -13401703.06845  21318728.5004                   21318728.6484
  -8134506.96347  -6294320.87345  22680672.4614                   22680673.9614
 -21512656.81148 -16712715.31446  20598018.2424                   20598018.5824
  -6093456.091 7  -4733551.308 6  23590613.055
 -11342047.58947  -8793102.63744  23070032.2504                   23070033.6914
 -20451175.02048 -15889196.93346  20781524.1724                   20781521.9344
 11  7 29  1 11 30.0000000  0  9G17G28G12G10G09G04G05G27G02
 -10982225.911 7  -8510922.257 7  22455804.516
  -3895230.82846  -2997094.13443  23993051.6954                   23993053.1524
 -12185732.380 7  -9481988.405 7  22430562.734
 -17305796.79348 -13441654.48445  21308972.2424                   21308972.3594
  -8076501.60147  -6249121.93045  22691710.4774                   22691711.7774
 -21455717.93848 -16668347.37646  20608853.4224                   20608853.4844
  -6199080.450 7  -4815855.858 6  23570513.664
 -11290603.84947  -8753016.65644  23079821.6644                   23079823.2664
 -20478899.59748 -15910800.49146  20776248.4304                   20776246.1644
 11  7 29  1 12  0.0000000  0  9G17G28G12G10G09G04G05G27G02
 -10937144.069 7  -8475793.571 7  22464383.734
  -3796460.94146  -2920130.69143  24011846.1954                   24011848.8834
 -12269713.019 7  -9547427.830 7  22414581.461
 -17356554.49248 -13481205.90745  21299313.2424                   21299313.2034
  -8018076.36947  -6203595.81345  22702828.2344                   22702829.7584
 -21398446.92848 -16623720.62346  20619751.7814                   20619751.9964
  -6304642.588 7  -4898111.928 6  23550426.258
 -11238884.33447  -8712715.78844  23089663.8524                   23089665.2814
 -20506261.69948 -15932121.58546  20771041.2034                   20771039.4144
 11  7 29  1 12 30.0000000  0  9G17G28G12G10G09G04G05G27G02
 -10891945.994 7  -8440574.299 7  22472984.898
  -3697471.24946  -2842995.90143  24030683.1174                   24030685.4304
 -12353443.857 7  -9612672.606 7  22398648.008
 -17406798.29247 -13520356.89446  21289752.0164                   21289752.4024
  -7959236.24747  -6157746.39245  22714025.2734                   22714026.7894
 -21340848.17148 -16578838.48046  20630712.6024                   20630712.7974
  -6410141.640 7  -4980318.847 6  23530349.836
 -11186893.28847  -8672203.34344  23099557.8674                   23099559.1844
 -20533263.73148 -15953162.11346  20765903.3204                   20765900.7974
 11  7 29  1 13  0.0000000  0  9G17G28G12G10G09G04G05G27G02
 -10846630.003 7  -8405263.146 7  22481607.648
  -3598262.05646  -2765690.12543  24049562.3594                   24049564.3094
 -12436921.231 7  -9677719.870 7  22382762.523
 -17456524.68448 -13559104.69345  21280289.3914                   21280289.7194
  -7899983.10847  -6111575.15445  22725301.2584                   22725302.2154
 -21282922.81248 -16533701.84746  20641735.3134                   20641735.7154
  -6515572.982 7  -5062473.006 6  23510287.484
 -11134631.97047  -8631480.30144  23109502.2814                   23109503.5784
 -20559904.97148 -15973921.49246  20760833.5004                   20760831.2194
 11  7 29  1 13 30.0000000  0  9G17G28G12G10G09G04G05G27G02
 -10801197.301 7  -8369861.055 7  22490252.930
  -3498837.32846  -2688216.40843  24068483.0394                   24068485.1884
 -12520144.466 7  -9742569.113 7  22366925.875
 -17505732.71448 -13597448.58545  21270925.2974                   21270925.5904
  -7840321.82147  -6065085.86544  22736654.1724                   22736655.4614
 -21224674.89848 -16488313.87546  20652819.7504                   20652819.7384
  -6620935.662 7  -5144573.673 6  23490237.258
 -11082104.73047  -8590550.03744  23119497.8364                   23119500.0004
 -20586187.38648 -15994401.26546  20755831.9534                   20755829.6254
 11  7 29  1 14  0.0000000  0  9G17G28G12G10G09G04G05G27G02
 -10755645.488 7  -8334366.145 7  22498921.992
  -3399196.93746  -2610574.60343  24087443.1174                   24087446.4184
 -12603109.137 7  -9807216.866 7  22351137.984
 -17554418.14148 -13635385.24645  21261660.8674                   21261660.8444
  -7780253.61247  -6018279.50444  22748085.1804                   22748086.2624
 -21166104.86848 -16442674.88746  20663965.1334                   20663965.3444
  -6726225.245 7  -5226617.391 6  23470201.828
 -11029312.12847  -8549413.01244  23129543.8444                   23129545.6454
 -20612109.69348 -16014600.44246  20750898.8444                   20750896.8554
 11  7 29  1 14 30.0000000  0  9G17G28G12G10G09G04G05G27G02
 -10709974.769 7  -8298778.576 7  22507612.797
  -3299343.72646  -2532767.01243  24106445.4614                   24106447.2774
 -12685813.315 7  -9871661.642 7  22335399.891
 -17602579.36448 -13672913.43245  21252496.3914                   21252496.2194
  -7719782.26447  -5971158.99744  22759592.4454                   22759593.1604
 -21107215.79548 -16396787.30846  20675171.3834                   20675171.5274
  -6831439.328 7  -5308602.282 6  23450179.664
 -10976257.43347  -8508071.73944  23139640.2584                   23139641.6374
 -20637672.90948 -16034519.81046  20746034.6884                   20746032.9024
 11  7 29  1 15  0.0000000  0  9G17G28G12G10G09G04G05G27G02
 -10664184.493 7  -8263097.852 7  22516326.070
  -3199279.13646  -2454794.67443  24125486.6334                   24125488.8244
 -12768254.067 7  -9935901.151 7  22319712.242
 -17650213.88848 -13710031.21045  21243431.2814                   21243431.6374
  -7658910.81147  -5923726.73244  22771175.7814                   22771176.9144
 -21048009.74648 -16350652.72646  20686437.7344                   20686437.8484
  -6936574.364 7  -5390525.570 6  23430173.313
 -10922943.07547  -8466528.14844  23149785.6884                   23149787.1724
 -20662877.54748 -16054159.75746  20741238.0394                   20741235.9224
 11  7 29  1 15 30.0000000  0  9G17G28G12G10G09G04G05G27G02
 -10618274.153 7  -8227323.556 7  22525062.328
  -3099005.08746  -2376659.17443  24144567.4924                   24144571.0784
 -12850429.168 7  -9999933.669 7  22304074.453
 -17697319.57948 -13746736.91246  21234467.7034                   21234467.5164
  -7597642.25546  -5875985.03644  22782834.5314                   22782836.1884
 -20988489.18248 -16304273.06746  20697763.9694                   20697764.6134
  -7041627.996 7  -5472385.439 6  23410182.133
 -10869371.75647  -8424784.33244  23159979.7814                   23159981.4734
 -20687724.20848 -16073520.76446  20736509.8984                   20736508.0824
 11  7 29  1 16  0.0000000  0  9G17G28G12G10G09G04G05G27G02
 -10572243.849 7  -8191455.796 7  22533822.023
  -2998524.50146  -2298362.71043  24163689.6884                   24163691.5164
 -12932336.547 7 -10063757.565 7  22288488.117
 -17743894.37048 -13783028.91545  21225604.7274                   21225604.8524
  -7535980.50947  -5827936.96244  22794568.8364                   22794570.0514
 -20928657.16048 -16257650.71446  20709149.6804                   20709150.2814
  -7146597.845 7  -5554180.010 6  23390206.688
 -10815546.63647  -8382842.73444  23170222.8674                   23170224.0394
 -20712213.67348 -16092603.44046  20731850.0004                   20731847.4774
 11  7 29  1 16 30.0000000  0  9G17G28G12G10G09G04G05G27G02
 -10526091.733 7  -8155493.106 7  22542604.695
  -2897837.67245  -2219905.60342  24182849.8054                   24182851.7814
 -13013972.191 7 -10127369.721 7  22272953.258
 -17789934.76548 -13818904.51346  21216843.7814                   21216843.7504
  -7473927.37747  -5779583.90644  22806377.0634                   22806378.5394
 -20868514.71348 -16210786.47746  20720594.1254                   20720594.8204
  -7251479.615 7  -5635905.969 6  23370248.336
 -10761469.16847  -8340704.51444  23180513.1334                   23180515.1134
 -20736345.47448 -16111407.41246  20727257.6484                   20727255.5434
 11  7 29  1 17  0.0000000  0  9G17G28G12G10G09G04G05G27G02
 -10479818.907 7  -8119436.362 7  22551409.664
  -2796948.54645  -2141290.75742  24202047.6024                   24202050.5354
 -13095335.348 7 -10190769.552 7  22257470.328
 -17835440.38748 -13854363.40346  21208183.8284                   21208183.9104
  -7411487.81346  -5730929.74144  22818258.3754                   22818260.1024
 -20808065.75948 -16163683.39446  20732097.4534                   20732097.9264
  -7356271.911 7  -5717562.186 6  23350306.578
 -10707143.41347  -8298372.81644  23190851.2344                   23190852.8284
 -20760122.32448 -16129934.79946  20722732.8674                   20722730.7304
 11  7 29  1 17 30.0000000  0  9G17G28G12G10G09G04G05G27G02
 -10433423.777 7  -8083284.326 7  22560238.766
  -2695858.07945  -2062519.14542  24221284.4304                   24221287.6804
 -13176422.388 7 -10253954.233 7  22242040.164
 -17880407.80148 -13889402.91046  21199627.0164                   21199627.0274
  -7348664.12547  -5681976.24944  22830213.5234                   22830214.7704
 -20747311.76248 -16116342.61846  20743658.4614                   20743658.9224
  -7460971.086 7  -5799145.844 6  23330383.117
 -10652571.05847  -8255848.96444  23201235.3594                   23201237.6094
 -20783542.89448 -16148184.56546  20718276.1804                   20718273.8554
 11  7 29  1 18  0.0000000  0  9G17G28G12G10G09G04G05G27G02
 -10386906.025 7  -8047036.745 7  22569090.586
  -2594568.29646  -1983592.20542  24240559.9844                   24240562.7664
 -13257230.768 7 -10316921.785 7  22226662.891
 -17924834.96048 -13924021.44545  21191172.5864                   21191172.4924
  -7285459.58947  -5632726.00244  22842241.5784                   22842242.5354
 -20686254.88648 -16068765.83246  20755277.4774                   20755277.7504
  -7565574.262 7  -5880654.705 6  23310477.508
 -10597754.82347  -8213135.09044  23211667.0554                   23211668.5904
 -20806608.12648 -16166157.43346  20713887.1644                   20713884.9184
 11  7 29  1 18 30.0000000  0  9G17G28G12G10G09G04G05G27G02
 -10340265.183 7  -8010693.242 7  22577965.898
  -2493081.04246  -1904511.38442  24259871.5474                   24259875.2154
 -13337757.910 7 -10379670.183 7  22211339.102
 -17968719.65748 -13958217.27546  21182821.6484                   21182821.5274
  -7221877.16046  -5583181.29844  22854340.4614                   22854341.4964
 -20624897.76548 -16020955.09346  20766953.3444                   20766953.6484
  -7670078.145 7  -5962086.196 6  23290590.555
 -10542697.05747  -8170232.97744  23222144.6564                   23222146.2194
 -20829318.43248 -16183853.74546  20709565.2974                   20709563.2584
 11  7 29  1 19  0.0000000  0  9G17G28G12G10G09G04G05G27G02
 -10293500.549 7  -7974253.274 7  22586864.938
  -2391398.13046  -1825277.87242  24279221.2034                   24279225.1684
 -13418001.340 7 -10442197.515 7  22196069.141
 -18012059.37948 -13991988.45246  21174574.0234                   21174574.1844
  -7157919.98147  -5533344.57344  22866511.2344                   22866512.6294
 -20563242.42048 -15972911.97146  20778685.8754                   20778686.0824
  -7774479.984 7  -6043438.165 6  23270724.258
 -10487400.48347  -8127144.80744  23232666.6334                   23232668.8794
 -20851674.54548 -16201274.06646  20705311.3444                   20705308.9304
 11  7 29  1 19 30.0000000  0  9G17G28G12G10G09G04G05G27G02
 -10246612.793 7  -7937717.352 7  22595787.547
  -2289522.50346  -1745894.41042  24298608.4924                   24298611.3134
 -13497959.237 7 -10504502.344 7  22180853.742
 -18054853.51348 -14025334.49946  21166430.8444                   21166431.1454
  -7093592.56246  -5483219.37544  22878752.9384                   22878753.5394
 -20501292.45948 -15924639.27546  20790474.6414                   20790474.5864
  -7878777.865 7  -6124709.108 6  23250876.859
 -10431868.73747  -8083873.37844  23243234.5784                   23243236.2504
 -20873678.10448 -16218419.67446  20701124.2584                   20701121.4574
 11  7 29  1 20  0.0000000  0  9G17G28G12G10G09G04G05G27G02
 -10199599.593 7  -7901083.693 7  22604733.359
  -2187454.96146  -1666361.37043  24318030.8054                   24318034.2074
 -13577627.734 7 -10566581.681 7  22165693.063
 -18097098.06948 -14058252.29746  21158391.8364                   21158391.8364
  -7028896.60347  -5432806.98444  22891063.5314                   22891065.6604
 -20439048.44548 -15876137.45346  20802319.3674                   20802319.7344
  -7982967.274 7  -6205895.547 7  23231050.242
 -10376102.93547  -8040419.55244  23253845.6024                   23253847.5704
 -20895328.17848 -16235289.83146  20697004.4384                   20697001.9454
 11  7 29  1 20 30.0000000  0  8G17G12G10G09G04G05G27G02
 -10152456.878 7  -7864349.134 7  22613704.852
 -13657000.594 7 -10628430.643 7  22150589.008
 -18138786.95848 -14090737.12046  21150458.3444                   21150458.9384
  -6963831.52547  -5382106.97644  22903445.1724                   22903447.0394
 -20376509.20048 -15827405.57346  20814220.2974                   20814219.8134
  -8087041.489 7  -6286992.212 6  23211245.594
 -10320102.16947  -7996782.65844  23264502.2734                   23264504.3594
 -20916621.68648 -16251882.14146  20692952.1644                   20692949.7664
 11  7 29  1 21  0.0000000  0  8G17G12G10G09G04G05G27G02
 -10105193.725 7  -7827520.720 7  22622698.578
 -13736084.680 7 -10690054.594 7  22135539.914
 -18179927.93848 -14122794.99345  21142629.9614                   21142630.0904
  -6898410.26347  -5331129.42044  22915894.4384                   22915895.9574
 -20313686.80148 -15778453.06646  20826174.7734                   20826174.8714
  -8191007.550 7  -6368004.623 6  23191461.398
 -10263878.77747  -7952972.29044  23275201.8914                   23275203.6994
 -20937568.92048 -16268204.64346  20688966.1414                   20688963.8054
 11  7 29  1 21 30.0000000  0  8G17G12G10G09G04G05G27G02
 -10057802.433 7  -7790592.445 7  22631716.828
 -13814870.377 8 -10751446.020 7  22120547.531
 -18220511.99248 -14154418.89946  21134906.8914                   21134907.0354
  -6832628.87547  -5279871.26244  22928412.3284                   22928414.1724
 -20250576.17548 -15729275.97346  20838184.7114                   20838184.4024
  -8294855.034 7  -6448924.628 6  23171699.234
 -10207428.13247  -7908984.85244  23285943.7974                   23285946.0904
 -20958163.05448 -16284251.99846  20685047.2734                   20685044.7854
 11  7 29  1 22  0.0000000  0  8G17G12G10G09G04G05G27G02
 -10010285.728 7  -7753566.442 7  22640759.195
 -13893358.037 7 -10812605.213 7  22105611.313
 -18260540.65948 -14185610.04345  21127289.6254                   21127289.5744
  -6766494.09447  -5228337.72444  22940997.3204                   22940998.7734
 -20187183.20248 -15679878.86546  20850247.6484                   20850247.5944
  -8398584.436 7  -6529752.617 6  23151960.477
 -10150756.34347  -7864825.07444  23296728.2894                   23296730.3634
 -20978408.42048 -16300027.57146  20681194.5554                   20681192.2194
 11  7 29  1 22 30.0000000  0  8G17G12G10G09G04G05G27G02
  -9962640.128 7  -7716440.011 7  22649825.680
 -13971542.650 8 -10873528.268 7  22090733.586
 -18300008.43448 -14216364.12046  21119779.3674                   21119779.2274
  -6700006.09446  -5176528.94544  22953649.6954                   22953651.2074
 -20123507.02948 -15630261.07646  20862365.0164                   20862365.2584
  -8502189.735 7  -6610483.908 6  23132245.508
 -10093862.66947  -7820492.40844  23307554.7504                   23307556.8324
 -20998302.33648 -16315529.31146  20677408.7424                   20677406.6724
 11  7 29  1 23  0.0000000  0  8G17G12G10G09G04G05G27G02
  -9914867.599 7  -7679214.684 7  22658916.555
 -14049424.050 7 -10934215.049 7  22075913.570
 -18338915.99448 -14246681.67346  21112375.2974                   21112375.6214
  -6633170.96047  -5124449.67544  22966367.8364                   22966369.4614
 -20059552.51148 -15580426.40546  20874534.8914                   20874535.1564
  -8605670.440 7  -6691118.102 6  23112553.406
 -10036752.54947  -7775991.07244  23318422.6884                   23318424.7544
 -21017848.09548 -16330759.74946  20673689.6484                   20673687.0434
 11  7 29  1 23 30.0000000  0  8G17G12G10G09G04G05G27G02
  -9866966.693 7  -7641889.303 7  22668031.500
 -14126998.705 7 -10994662.804 7  22061151.313
 -18377260.32248 -14276560.34646  21105078.4064                   21105078.5944
  -6565990.77047  -5072101.53444  22979152.0234                   22979153.1684
 -19995321.23648 -15530376.07546  20886757.3984                   20886758.3444
  -8709022.825 7  -6771652.310 6  23092885.547
  -9979427.79547  -7731322.48044  23329331.2034                   23329333.0554
 -21037045.62548 -16345718.84446  20670036.1414                   20670033.7424
 11  7 29  1 24  0.0000000  0  8G17G12G10G09G04G05G27G02
  -9818936.314 7  -7604463.051 7  22677171.523
 -14204263.454 8 -11054869.074 7  22046448.375
 -18415038.87948 -14305998.16646  21097890.0394                   21097889.6954
  -6498468.05746  -5019486.49844  22992001.4144                   22992002.5824
 -19930814.87548 -15480111.40446  20899033.1644                   20899033.2974
  -8812243.277 7  -6852083.714 6  23073243.500
  -9921890.37946  -7686488.21744  23340280.1724                   23340282.2894
 -21055894.77648 -16360406.45746  20666449.0314                   20666446.7274
 11  7 29  1 24 30.0000000  0  8G17G12G10G09G04G05G27G02
  -9770776.643 7  -7566936.064 7  22686336.016
 -14281216.290 7 -11114832.300 7  22031804.648
 -18452250.67048 -14334994.34046  21090808.3054                   21090808.3444
  -6430607.24846  -4966608.00644  23004914.7584                   23004916.6334
 -19866036.38148 -15429634.66946  20911360.0784                   20911360.1294
  -8915329.676 7  -6932410.663 7  23053626.797
  -9864144.11247  -7641491.17744  23351268.5864                   23351271.2704
 -21074397.36248 -16374824.04246  20662928.0784                   20662925.9024
 11  7 29  1 25  0.0000000  0  8G17G12G10G09G04G05G27G02
  -9722486.890 7  -7529307.698 7  22695525.406
 -14357854.509 7 -11174550.357 7  22017220.625
 -18488893.46448 -14363547.15046  21083835.6954                   21083835.5744
  -6362411.19347  -4913468.27444  23017892.1094                   23017893.4734
 -19800988.01648 -15378947.64746  20923738.2504                   20923738.1374
  -9018278.477 7  -7012630.401 6  23034036.023
  -9806191.14447  -7596333.09544  23362297.3674                   23362299.4454
 -21092553.44148 -16388971.60846  20659473.2974                   20659470.6524
 11  7 29  1 25 30.0000000  0  8G17G12G10G09G04G05G27G02
  -9674066.170 7  -7491577.285 7  22704739.352
 -14434175.156 7 -11234020.958 7  22002697.680
 -18524964.76248 -14391654.63346  21076971.4384                   21076971.7074
  -6293882.82947  -4860069.59944  23030933.0314                   23030934.4924
 -19735671.40848 -15328051.60146  20936167.7034                   20936167.9264
  -9121086.460 7  -7092740.415 7  23014472.359
  -9748033.63947  -7551015.63044  23373364.0004                   23373366.4534
 -21110363.37348 -16402849.45546  20656084.0944                   20656081.7074
 11  7 29  1 26  0.0000000  0  8G17G12G10G09G04G05G27G02
  -9625515.394 7  -7453745.530 7  22713978.195
 -14510177.126 7 -11293243.250 7  21988235.070
 -18560464.52948 -14419316.76846  21070215.8364                   21070215.9384
  -6225027.10147  -4806415.83144  23044035.1174                   23044036.9734
 -19670090.46448 -15276949.58646  20948647.4144                   20948647.3834
  -9223752.336 7  -7172739.677 6  22994935.430
  -9689675.86547  -7505542.11744  23384469.8984                   23384471.2114
 -21127829.29348 -16416459.25046  20652760.1484                   20652757.6214
 11  7 29  1 26 30.0000000  0  8G17G12G10G09G04G05G27G02
  -9576832.410 7  -7415810.773 7  22723242.445
 -14585856.395 8 -11352214.087 7  21973833.539
 -18595389.05048 -14446530.66446  21063570.2344                   21063570.2464
  -6155845.55347  -4752508.19544  23057200.7034                   23057201.7114
 -19604245.94048 -15225642.17846  20961176.7734                   20961177.1374
  -9326271.518 7  -7252624.671 7  22975426.891
  -9631119.12747  -7459913.56544  23395613.0164                   23395615.0234
 -21144950.62948 -16429800.53746  20649502.4774                   20649499.9454
 11  7 29  1 27  0.0000000  0  8G17G12G10G09G04G05G27G02
  -9528016.468 7  -7377772.398 7  22732532.047
 -14661210.132 7 -11410931.260 7  21959494.336
 -18629736.29148 -14473294.72646  21057034.1414                   21057034.3204
  -6086341.36947  -4698349.15144  23070426.5394                   23070428.4384
 -19538139.95148 -15174131.02646  20973756.5634                   20973756.6684
  -9428640.718 7  -7332392.784 6  22955946.305
  -9572365.98646  -7414131.96144  23406792.4774                   23406794.9104
 -21161727.69548 -16442873.56646  20646309.7664                   20646307.4414
 11  7 29  1 27 30.0000000  0  8G17G12G10G09G04G05G27G02
  -9479067.799 7  -7339630.600 7  22741846.406
 -14736236.579 7 -11469393.429 7  21945216.828
 -18663505.43348 -14499608.32346  21050607.5554                   21050607.9574
  -6016518.65047  -4643941.89444  23083713.4694                   23083715.2854
 -19471775.44248 -15122418.42446  20986385.3524                   20986385.5594
  -9530857.504 7  -7412042.135 6  22936495.617
  -9513419.71946  -7368199.87144  23418010.2034                   23418012.2504
 -21178162.36248 -16455679.78746  20643182.6094                   20643179.9454
 11  7 29  1 28  0.0000000  0  8G17G12G10G09G04G05G27G02
  -9429986.528 7  -7301385.485 7  22751186.758
 -14810933.727 7 -11527598.980 7  21931002.531
 -18696695.56447 -14525470.73646  21044291.9384                   21044292.3634
  -5946381.75446  -4589289.83044  23097060.3364                   23097062.0314
 -19405155.73048 -15070506.97346  20999062.5314                   20999062.9144
  -9632920.012 7  -7491571.269 7  22917073.297
  -9454283.87946  -7322120.07744  23429263.6954                   23429265.5634
 -21194255.68148 -16468220.03146  20640120.0704                   20640117.7894
 11  7 29  1 28 30.0000000  0  8G17G12G10G09G04G05G27G02
  -9380771.048 7  -7263035.805 7  22760552.148
 -14885298.055 7 -11585545.182 7  21916851.500
 -18729303.90248 -14550879.80146  21038086.6724                   21038086.9414
  -5875932.73247  -4534394.56044  23110466.5084                   23110468.1294
 -19338282.09448 -15018397.64846  21011788.4224                   21011788.5084
  -9734824.108 7  -7570976.962 7  22897681.820
  -9394960.01146  -7275893.77644  23440552.3054                   23440554.9384
 -21210007.32448 -16480494.02646  20637122.6804                   20637120.0864
 11  7 29  1 29  0.0000000  0  8G17G12G10G09G04G05G27G02
  -9331421.462 7  -7224581.601 7  22769943.703
 -14959327.464 8 -11643230.438 7  21902764.500
 -18761329.24148 -14575834.57946  21031992.8594                   21031992.8014
  -5805175.39647  -4479259.02244  23123930.8204                   23123932.2814
 -19271156.84748 -14966092.26546  21024561.8204                   21024561.9614
  -9836567.045 7  -7650257.085 7  22878320.539
  -9335451.32946  -7229523.44744  23451876.5084                   23451879.2734
 -21225418.83648 -16492502.98446  20634189.9224                   20634187.3484
 11  7 29  1 29 30.0000000  0  8G17G12G10G09G04G05G27G02
  -9281937.224 7  -7186022.471 7  22779359.523
 -15033019.645 7 -11700652.907 7  21888740.688
 -18792769.79748 -14600333.69146  21026009.8364                   21026009.8554
  -5734113.46447  -4423886.14444  23137453.4304                   23137454.9534
 -19203782.68348 -14913592.91246  21037382.8754                   21037382.9144
  -9938146.230 7  -7729409.603 7  22858990.734
  -9275760.68246  -7183011.33644  23463235.5634                   23463237.5704
 -21240490.84548 -16504247.40146  20631321.7664                   20631319.1254
 11  7 29  1 30  0.0000000  0  8G17G12G10G09G04G05G27G02
  -9232317.310 7  -7147357.636 7  22788801.500
 -15106371.383 7 -11757810.102 7  21874782.836
 -18823623.26148 -14624375.32646  21020138.3674                   21020138.3594
  -5662749.66947  -4368278.05744  23151033.3284                   23151035.3524
 -19136161.21648 -14860900.86546  21050250.5164                   21050250.7464
 -10039557.960 7  -7808431.622 7  22839692.711
  -9215890.24846  -7136359.12643  23474628.2344                   23474630.4224
 -21255223.83648 -16515727.65146  20628518.2194                   20628515.7074
 11  7 29  1 30 30.0000000  0  8G17G12G10G09G04G05G27G02
  -9182560.586 7  -7108586.194 7  22798270.305
 -15179379.455 7 -11814699.502 7  21860889.680
 -18853887.35248 -14647957.69846  21014379.3594                   21014379.4224
  -5591086.61947  -4312436.79444  23164671.0234                   23164672.1724
 -19068294.25848 -14808017.52446  21063165.4844                   21063165.5784
 -10140798.855 7  -7887320.537 7  22820426.758
  -9155842.23147  -7089568.53044  23486055.4304                   23486057.1764
 -21269617.82448 -16526943.74746  20625779.2114                   20625776.6334
 11  7 29  1 31  0.0000000  0  8G17G12G10G09G04G05G27G02
  -9132668.767 7  -7069709.466 7  22807764.328
 -15252044.088 7 -11871321.285 7  21847062.203
 -18883563.13748 -14671081.66146  21008731.6884                   21008731.7934
  -5519130.09947  -4256366.84944  23178363.6334                   23178365.5234
 -19000186.54148 -14754946.58046  21076125.7664                   21076125.7304
 -10241868.289 7  -7966075.842 7  22801193.273
  -9095621.58747  -7042643.41944  23497515.0554                   23497517.1644
 -21283676.10948 -16537898.25646  20623103.7424                   20623101.3324
 11  7 29  1 31 30.0000000  0  8G17G12G10G09G04G05G27G02
  -9082639.735 7  -7030725.808 6  22817284.328
 -15324360.873 7 -11927672.024 7  21833300.680
 -18912647.44248 -14693744.72046  21003197.5474                   21003197.8524
  -5446882.07947  -4200069.75444  23192112.0394                   23192114.1804
 -18931838.56448 -14701688.42146  21089131.9224                   21089132.1884
 -10342761.313 7  -8044693.668 7  22781994.703
  -9035229.50746  -6995584.72443  23509007.2424                   23509008.7664
 -21297397.74548 -16548590.42646  20620492.4224                   20620490.1454
 11  7 29  1 32  0.0000000  0  8G17G12G10G09G04G05G27G02
  -9032472.695 7  -6991634.620 7  22826831.234
 -15396326.810 7 -11983749.371 7  21819606.172
 -18941138.19648 -14715945.27546  20997775.9064                   20997775.9924
  -5374345.55947  -4143547.84844  23205915.5554                   23205917.2544
 -18863252.28948 -14648244.57046  21102183.3984                   21102183.7544
 -10443475.032 7  -8123171.776 7  22762829.148
  -8974668.37746  -6948394.28743  23520531.3834                   23520533.5984
 -21310783.24948 -16559020.67646  20617945.3914                   20617942.9304
 11  7 29  1 32 30.0000000  0  8G17G12G10G09G04G05G27G02
  -8982167.233 7  -6952435.558 7  22836403.391
 -15467939.522 7 -12039551.466 7  21805978.438
 -18969033.82948 -14737682.10446  20992467.5634                   20992467.2274
  -5301523.81247  -4086803.70144  23219772.8834                   23219774.8954
 -18794429.86748 -14594616.71046  21115280.0784                   21115280.2504
 -10544006.390 7  -8201507.795 7  22743698.617
  -8913941.06946  -6901074.37443  23532087.2664                   23532089.7814
 -21323833.49948 -16569189.69946  20615462.0944                   20615459.2814
 11  7 29  1 33  0.0000000  0  8G17G12G10G09G04G05G27G02
  -8931722.848 7  -6913128.267 7  22846003.203
 -15539196.543 7 -12095076.398 7  21792418.953
 -18996333.36348 -14758954.44546  20987272.3284                   20987272.5514
  -5228420.70547  -4029840.30544  23233684.1564                   23233685.3834
 -18725374.08548 -14540807.01446  21128420.9694                   21128421.2934
 -10644352.541 7  -8279699.496 7  22724603.211
  -8853050.65446  -6853627.36343  23543674.9614                   23543676.7194
 -21336549.63548 -16579098.35846  20613042.3834                   20613039.6884
 11  7 29  1 33 30.0000000  0  8G17G12G10G09G04G05G27G02
  -8881140.147 7  -6873713.183 7  22855628.727
 -15610096.579 8 -12150323.159 7  21778926.820
 -19023036.03248 -14779761.68146  20982191.1804                   20982191.0824
  -5155040.79747  -3972661.21544  23247647.9774                   23247649.7934
 -18656088.08248 -14486817.92146  21141605.5164                   21141605.4614
 -10744511.466 7  -8357745.311 7  22705543.188
  -8792000.89847  -6806056.18143  23555292.2894                   23555294.6604
 -21348933.38048 -16588748.01746  20610685.6884                   20610682.8984
 11  7 29  1 34  0.0000000  0  8G17G12G10G09G04G05G27G02
  -8830417.125 7  -6834188.746 7  22865281.203
 -15680635.793 7 -12205288.759 7  21765503.914
 -19049139.41348 -14800101.94846  20977223.9924                   20977223.8444
  -5081385.82947  -3915267.80844  23261663.8674                   23261665.7664
 -18586572.71048 -14432650.10646  21154834.0634                   21154833.8164
 -10844478.919 7  -8435641.918 7  22686520.313
  -8730793.12247  -6758361.86243  23566939.9454                   23566941.4924
 -21360984.46148 -16598138.45846  20608392.0944                   20608389.7344
 11  7 29  1 34 30.0000000  0  8G17G12G10G09G04G05G27G02
  -8779553.771 7  -6794554.954 6  22874959.703
 -15750811.903 7 -12259971.404 7  21752149.898
 -19074642.25748 -14819974.27446  20972371.1644                   20972370.7234
  -5007459.63747  -3857663.04344  23275731.7194                   23275733.5474
 -18516830.73248 -14378305.71946  21168105.0234                   21168105.4774
 -10944252.648 7  -8513387.588 7  22667534.023
  -8669430.60946  -6710546.96344  23578616.5784                   23578618.5474
 -21372704.06848 -16607270.61846  20606162.1724                   20606159.7034
 11  7 29  1 35  0.0000000  0  9G17G25G12G10G09G04G05G27G02
  -8728549.387 7  -6754811.290 6  22884665.227
   -429649.55017   -321054.49016  24680039.539
 -15820622.104 8 -12314368.929 7  21738865.125
 -19099542.63448 -14839377.14046  20967632.5554                   20967631.9264
  -4933264.86747  -3799848.99244  23289850.8284                   23289852.7734
 -18446863.71648 -14323785.98446  21181419.6564                   21181419.7034
 -11043828.639 7  -8590979.168 7  22648585.617
  -8607915.27547  -6662612.99443  23590322.5474                   23590324.6564
 -21384092.39548 -16616144.63146  20603995.2424                   20603992.8714
 11  7 29  1 35 30.0000000  0  9G17G25G12G10G09G04G05G27G02
  -8677416.458 7  -6714967.462 7  22894396.016
   -533090.619 6   -401657.91315  24660355.102
 -15890077.524 8 -12368490.006 7  21725648.156
 -19123852.84948 -14858320.14846  20963006.7034                   20963006.5274
  -4858818.90147  -3741839.21644  23304017.4844                   23304018.9184
 -18376687.66748 -14269103.34946  21194773.7114                   21194774.0864
 -11143217.824 7  -8668425.192 7  22629672.125
  -8546263.76147  -6614572.88644  23602054.3984                   23602056.9614
 -21395163.91448 -16624771.77546  20601888.3364                   20601885.9654
 11  7 29  1 36  0.0000000  0  9G17G25G12G10G09G04G05G27G02
  -8626127.725 7  -6675002.245 6  22904156.055
   -636413.032 6   -482168.897 5  24640693.500
 -15959149.055 7 -12422311.950 7  21712504.820
 -19147545.20948 -14876781.70446  20958497.9064                   20958497.8204
  -4784098.65147  -3683615.71244  23318236.0084                   23318238.2304
 -18306278.27148 -14214238.90146  21208172.0474                   21208172.3674
 -11242390.664 7  -8745702.644 7  22610799.984
  -8484452.30947  -6566408.15744  23613816.7894                   23613819.1844
 -21405893.16048 -16633132.22246  20599846.5554                   20599844.2934
 11  7 29  1 36 30.0000000  0  9G17G25G12G10G09G04G05G27G02
  -8574697.581 7  -6634926.820 7  22913942.742
   -739628.147 6   -562596.280 5  24621052.586
 -16027848.244 8 -12475843.751 7  21699430.961
 -19170632.54448 -14894771.80946  20954104.4774                   20954104.3284
  -4709121.67447  -3625192.16744  23332503.9304                   23332505.9534
 -18235651.52648 -14159205.08646  21221612.1804                   21221612.1094
 -11341358.123 7  -8822820.046 7  22591967.008
  -8422497.60147  -6518131.83244  23625606.5084                   23625609.1414
 -21416294.98148 -16641237.52446  20597867.1174                   20597864.3794
 11  7 29  1 37  0.0000000  0  9G17G25G12G10G09G04G05G27G02
  -8523124.645 7  -6594740.134 6  22923757.195
   -842733.234 6   -642937.905 5  24601432.438
 -16096171.915 8 -12529082.949 7  21686429.742
 -19193112.67148 -14912288.76446  20949826.7734                   20949826.4264
  -4633890.81147  -3566570.78044  23346820.2034                   23346821.4574
 -18164809.52548 -14104003.52646  21235092.7504                   21235092.9884
 -11440117.077 7  -8899774.985 7  22573173.539
  -8360402.04146  -6469745.74744  23637423.3984                   23637425.3554
 -21426369.88448 -16649088.08146  20595949.7814                   20595947.0864
 11  7 29  1 37 30.0000000  0  9G17G25G12G10G09G04G05G27G02
  -8471407.290 7  -6554440.912 6  22933597.773
   -945724.926 6   -723191.115 5  24581833.516
 -16164117.053 8 -12582027.182 7  21673500.070
 -19214983.72648 -14929331.12146  20945664.8284                   20945664.7734
  -4558408.57547  -3507753.50444  23361183.5554                   23361185.1994
 -18093753.49848 -14048635.21446  21248614.2194                   21248614.6604
 -11538663.331 7  -8976564.184 7  22554420.820
  -8298167.56246  -6421251.40243  23649265.7034                   23649268.2664
 -21436117.71248 -16656683.78046  20594094.9534                   20594092.7034
 11  7 29  1 38  0.0000000  0  9G17G25G12G10G09G04G05G27G02
  -8419546.506 7  -6514029.943 6  22943466.523
  -1048602.218 6   -803355.177 6  24562256.344
 -16231682.621 8 -12634675.643 7  21660642.773
 -19236246.10948 -14945899.18946  20941618.3594                   20941618.5474
  -4482679.76147  -3448744.10744  23375594.4694                   23375595.9384
 -18022487.03248 -13993102.91346  21262175.4774                   21262176.3874
 -11636995.470 7  -9053186.548 7  22535709.086
  -8235798.34446  -6372652.08944  23661134.2974                   23661136.5664
 -21445541.15248 -16664026.70346  20592301.7114                   20592299.3404
 11  7 29  1 38 30.0000000  0  9G17G25G12G10G09G04G05G27G02
  -8367541.575 7  -6473506.658 6  22953363.219
  -1151362.118 6   -883427.804 6  24542702.172
 -16298865.568 8 -12687025.961 7  21647858.375
 -19256897.84648 -14961991.42746  20937688.8594                   20937688.5984
  -4406707.31347  -3389544.85944  23390052.0944                   23390053.4574
 -17951012.00448 -13937408.10046  21275776.8674                   21275777.0904
 -11735110.056 7  -9129639.388 7  22517037.961
  -8173296.70546  -6323949.56643  23673027.9844                   23673030.9264
 -21454640.33248 -16671116.96346  20590570.1254                   20590567.8594
 11  7 29  1 39  0.0000000  0  9G17G25G12G10G09G04G05G27G02
  -8315391.158 7  -6432869.996 6  22963286.938
  -1254001.379 6   -963406.425 6  24523170.883
 -16365662.686 8 -12739075.641 7  21635147.383
 -19276937.34048 -14977606.59046  20933875.0004                   20933875.3284
  -4330493.97347  -3330157.87144  23404554.4534                   23404556.1644
 -17879329.75248 -13881551.81046  21289417.7734                   21289418.1804
 -11833003.318 7  -9205919.759 7  22498409.672
  -8110664.60946  -6275145.40743  23684946.6804                   23684949.2424
 -21463415.52348 -16677954.76046  20588900.5474                   20588897.5394
 11  7 29  1 39 30.0000000  0  9G17G25G12G10G09G04G05G27G02
  -8263095.000 7  -6392119.816 6  22973238.891
  -1356517.925 7  -1043289.414 6  24503661.961
 -16432071.951 7 -12790823.085 7  21622509.836
 -19296363.51248 -14992743.84746  20930178.6564                   20930178.2934
  -4254043.57747  -3270586.18644  23419102.5784                   23419104.5554
 -17807442.86648 -13825536.06946  21303097.4614                   21303097.5664
 -11930672.884 7  -9282025.839 7  22479823.477
  -8047905.40746  -6226242.20843  23696889.0864                   23696892.1844
 -21471867.96448 -16684541.05946  20587291.8834                   20587289.2384
 11  7 29  1 40  0.0000000  0  9G17G25G12G10G09G04G05G27G02
  -8210653.789 7  -6351256.560 6  22983218.352
  -1458910.732 7  -1123075.965 6  24484177.258
 -16498091.956 8 -12842267.230 7  21609946.727
 -19315176.85348 -15007403.57646  20926598.3364                   20926598.3954
  -4177360.94647  -3210833.55244  23433695.3284                   23433696.6094
 -17735354.92048 -13769363.65046  21316815.4454                   21316815.7624
 -12028117.203 7  -9357956.391 7  22461280.641
  -7985023.17046  -6177243.13743  23708855.1334                   23708858.7974
 -21480000.38448 -16690878.00546  20585744.2814                   20585741.9144
 11  7 29  1 40 30.0000000  0  9G17G25G12G10G09G04G05G27G02
  -8158064.335 7  -6310277.785 6  22993225.039
  -1561174.316 7  -1202761.801 6  24464717.609
 -16563718.000 7 -12893404.384 7  21597458.148
 -19333373.36648 -15021582.65246  20923135.7734                   20923135.6414
  -4100446.61347  -3150900.36944  23448330.5314                   23448333.2194
 -17663065.32148 -13713034.11946  21330571.3204                   21330571.9104
 -12125330.112 7  -9433706.647 7  22442781.789
  -7922017.47546  -6128147.82843  23720845.3444                   23720847.3634
 -21487810.45648 -16696963.75946  20584258.2424                   20584255.8914
 11  7 29  1 41  0.0000000  0  9G17G25G12G10G09G04G05G27G02
  -8105329.046 7  -6269185.397 6  23003260.203
  -1663309.152 7  -1282347.292 6  24445281.563
 -16628950.463 8 -12944234.848 7  21585045.203
 -19350954.98048 -15035282.58446  20919790.1484                   20919789.6374
  -4023307.02347  -3090791.67444  23463010.5084                   23463012.4734
 -17590579.00848 -13656551.30446  21344365.4064                   21344365.6764
 -12222311.751 7  -9509276.673 7  22424326.742
  -7858894.24346  -6078960.96343  23732856.6334                   23732859.4694
 -21495302.03748 -16702801.35246  20582832.3204                   20582829.8714
 11  7 29  1 41 30.0000000  0  9G17G25G12G10G09G04G05G27G02
  -8052446.082 7  -6227977.897 6  23013323.789
  -1765310.958 7  -1361829.126 6  24425871.500
 -16693784.927 7 -12994755.189 7  21572707.688
 -19367918.82248 -15048501.14646  20916561.8674                   20916561.7304
  -3945943.80347  -3030508.68444  23477731.6644                   23477734.0784
 -17517896.46348 -13599915.54446  21358196.5004                   21358196.6374
 -12319057.455 7  -9584662.861 7  22405916.461
  -7795654.64846  -6029683.43143  23744891.9064                   23744894.1994
 -21502474.51048 -16708390.27846  20581467.6414                   20581465.1724
 11  7 29  1 42  0.0000000  0  9G17G25G12G10G09G04G05G27G02
  -7999414.452 7  -6186654.560 6  23023415.617
  -1867177.157 7  -1441205.303 6  24406486.523
 -16758218.978 7 -13044963.519 7  21560446.000
 -19384263.79548 -15061237.46146  20913451.3914                   20913451.1334
  -3868360.25747  -2970054.02443  23492495.8984                   23492497.0864
 -17445019.64848 -13543128.43446  21372064.4844                   21372064.7504
 -12415563.929 7  -9659862.639 7  22387551.875
  -7732301.25246  -5980317.20144  23756946.5474                   23756950.1914
 -21509328.68348 -16713731.18946  20580163.3754                   20580161.1954
 11  7 29  1 42 30.0000000  0  9G17G25G12G10G09G04G05G27G02
  -7946233.871 7  -6145215.210 7  23033535.648
  -1968905.650 6  -1520474.171 6  24387128.180
 -16822250.553 7 -13094858.230 7  21548261.391
 -19399989.03648 -15073490.86446  20910459.2424                   20910458.9614
  -3790560.24347  -2909430.65744  23507300.9384                   23507302.3324
 -17371951.20448 -13486191.99646  21385968.8594                   21385969.2504
 -12511829.013 7  -9734874.327 7  22369233.070
  -7668837.19446  -5930864.75643  23769023.9534                   23769026.8754
 -21515865.93148 -16718825.13346  20578919.4384                   20578916.9064
 11  7 29  1 43  0.0000000  0  9G17G25G12G10G09G04G05G27G02
  -7892903.937 7  -6103659.445 7  23043684.375
  -2070493.868 6  -1599633.745 6  24367796.680
 -16885877.155 8 -13144437.387 7  21536153.430
 -19415094.22548 -15085261.12846  20907584.6564                   20907584.4064
  -3712547.42247  -2848641.50543  23522145.6484                   23522147.0514
 -17298693.39648 -13429107.99346  21399909.5164                   21399909.6374
 -12607849.558 7  -9809695.455 7  22350960.641
  -7605265.46946  -5881328.40043  23781121.2194                   23781123.9734
 -21522087.39348 -16723673.02146  20577735.2894                   20577733.0354
 11  7 29  1 43 30.0000000  0  9G17G25G12G10G09G04G05G27G02
  -7839424.045 7  -6061986.855 7  23053861.367
  -2171939.183 6  -1678681.931 6  24348491.836
 -16949096.365 7 -13193699.087 7  21524123.414
 -19429578.00148 -15096547.16446  20904828.6334                   20904828.5234
  -3634324.96447  -2787688.97543  23537030.8754                   23537032.9614
 -17225248.20948 -13371877.98945  21413885.3754                   21413885.4804
 -12703622.558 7  -9884323.688 7  22332736.016
  -7541588.65646  -5831710.16043  23793238.4694                   23793241.2074
 -21527993.55848 -16728275.22746  20576611.1334                   20576608.6414
 11  7 29  1 44  0.0000000  0  9G17G25G12G10G09G04G05G27G02
  -7785793.599 7  -6020196.901 6  23064066.570
  -2273238.872 6  -1757616.656 6  24329214.875
 -17011905.737 8 -13242641.438 7  21512170.984
 -19443439.26148 -15107348.11946  20902190.7344                   20902190.8364
  -3555895.97247  -2726575.54244  23551955.7814                   23551957.6054
 -17151617.47348 -13314503.40146  21427897.0164                   21427897.2304
 -12799144.695 7  -9958756.463 7  22314558.500
  -7477809.06346  -5782011.81743  23805375.9064                   23805377.5594
 -21533585.40548 -16732632.49946  20575547.5084                   20575544.5904
 11  7 29  1 44 30.0000000  0  9G17G25G12G10G09G04G05G27G02
  -7732013.115 7  -5978290.013 6  23074300.438
  -2374391.623 6  -1836436.887 6  24309966.328
 -17074304.097 7 -13291263.524 7  21500296.961
 -19456678.59148 -15117664.45846  20899671.0634                   20899670.9024
  -3477265.22347  -2665304.89344  23566918.5474                   23566921.3554
 -17077804.42048 -13256986.75945  21441943.2114                   21441942.8094
 -12894414.126 7 -10032992.302 7  22296429.375
  -7413930.82747  -5732236.63243  23817531.4924                   23817533.3834
 -21538865.31848 -16736746.71646  20574542.7664                   20574539.7544
 11  7 29  1 45  0.0000000  0  9G17G25G12G10G09G04G05G27G02
  -7678082.170 7  -5936265.909 6  23084563.438
  -2475394.616 6  -1915140.461 6  24290745.969
 -17136288.676 7 -13339563.181 7  21488501.781
 -19469294.91948 -15127495.33246  20897270.5784                   20897269.9844
  -3398435.87747  -2603879.46544  23581919.6804                   23581921.2234
 -17003811.30248 -13199329.78545  21456023.7734                   21456024.0434
 -12989428.068 7 -10107029.071 7  22278349.133
  -7349956.65646  -5682386.67243  23829705.5164                   23829707.5984
 -21543833.73048 -16740618.19346  20573597.1024                   20573594.4064
 11  7 29  1 45 30.0000000  0  9G17G25G12G10G09G04G05G27G02
  -7623998.490 7  -5894122.811 7  23094854.891
  -2576243.685 6  -1993724.070 6  24271555.930
 -17197855.483 8 -13387537.309 7  21476786.148
 -19481285.68348 -15136838.76346  20894988.5704                   20894988.0864
  -3319409.74747  -2542300.71744  23596958.2584                   23596959.7734
 -16929638.23148 -13141532.60346  21470138.3284                   21470138.7114
 -13084181.713 7 -10180863.010 7  22260317.922
  -7285887.56746  -5632462.76643  23841897.2894                   23841899.3834
 -21548490.04748 -16744246.48046  20572711.0004                   20572708.4024
 11  7 29  1 46  0.0000000  0  9G17G25G12G10G09G04G05G27G02
  -7569762.903 7  -5851861.330 7  23105176.156
  -2676937.773 7  -2072186.941 6  24252394.359
 -17259003.277 8 -13435184.933 7  21465149.883
 -19492651.53548 -15145695.25246  20892825.7424                   20892825.8284
  -3240191.77947  -2480572.48444  23612032.6254                   23612034.5944
 -16855289.01848 -13083598.16245  21484286.3914                   21484286.3794
 -13178673.704 7 -10254493.062 7  22242336.547
  -7221727.69846  -5582468.12243  23854106.8364                   23854109.4024
 -21552836.94648 -16747633.66446  20571883.7114                   20571881.0944
 11  7 29  1 46 30.0000000  0  9G17G25G12G10G09G04G05G27G02
  -7515374.023 7  -5809480.403 7  23115525.594
  -2777473.142 7  -2150526.148 6  24233262.727
 -17319729.350 7 -13482503.941 7  21453593.867
 -19503390.65848 -15154063.37446  20890782.3834                   20890781.9104
  -3160784.31447  -2418696.57744  23627143.2344                   23627145.7234
 -16780764.55048 -13025527.16445  21498467.7344                   21498468.5164
 -13272899.957 7 -10327916.052 7  22224405.867
  -7157478.76746  -5532404.09043  23866332.4304                   23866335.5904
 -21556874.42748 -16750779.74246  20571115.8284                   20571112.5824
 11  7 29  1 47  0.0000000  0  9G17G25G12G10G09G04G05G27G02
  -7460831.956 7  -5766980.104 7  23125904.500
  -2877847.841 7  -2228740.190 6  24214162.406
 -17380031.597 8 -13529492.700 7  21442118.766
 -19513502.77048 -15161942.92646  20888857.9304                   20888857.8554
  -3081191.40547  -2356676.17444  23642289.1254                   23642291.3554
 -16706067.25048 -12967321.48945  21512682.1884                   21512682.7774
 -13366858.378 7 -10401130.339 7  22206525.773
  -7093144.20146  -5482273.35843  23878575.0004                   23878578.0434
 -21560603.96748 -16753685.86046  20570405.7974                   20570403.0864
 11  7 29  1 47 30.0000000  0  9G17G25G12G10G09G04G05G27G02
  -7406137.033 7  -5724360.691 6  23136313.172
  -2978060.391 7  -2306827.855 6  24195092.047
 -17439908.835 8 -13576150.287 7  21430724.563
 -19522988.45548 -15169334.35846  20887053.0234                   20887052.8834
  -3001417.43847  -2294514.69944  23657470.6564                   23657472.1844
 -16631200.58648 -12908983.84745  21526928.9224                   21526929.7504
 -13460546.708 7 -10474134.173 7  22188697.859
  -7028727.72746  -5432078.76343  23890833.0554                   23890836.4694
 -21564027.55448 -16756353.58146  20569754.4534                   20569751.8984
 11  7 29  1 48  0.0000000  0  9G17G25G12G10G09G04G05G27G02
  -7351286.529 7  -5681620.033 6  23146750.570
  -3078105.800 7  -2384785.292 6  24176054.703
 -17499356.041 8 -13622472.779 7  21419412.438
 -19531844.48448 -15176235.14346  20885367.7114                   20885367.6374
  -2921463.45847  -2232212.94044  23672684.4224                   23672686.6094
 -16556164.30548 -12850514.03745  21541207.7664                   21541208.3914
 -13553959.749 7 -10546923.479 7  22170922.070
  -6964229.78946  -5381820.69743  23903106.9534                   23903109.6684
 -21567143.94448 -16758781.92446  20569161.6484                   20569158.6764
 11  7 29  1 48 30.0000000  0  9G17G25G12G10G09G04G05G27G02
  -7296282.402 7  -5638759.676 6  23157217.063
  -3177984.078 7  -2462612.485 6  24157048.070
 -17558373.888 8 -13668460.709 7  21408181.563
 -19540073.40248 -15182647.28146  20883801.9614                   20883801.6214
  -2841335.38346  -2169775.53144  23687932.5394                   23687934.8834
 -16480962.96248 -12791915.61845  21555518.3284                   21555519.0084
 -13647097.234 7 -10619498.076 7  22153198.414
  -6899655.73446  -5331503.32443  23915394.6804                   23915397.6524
 -21569956.60848 -16760973.59746  20568625.6724                   20568623.3874
 11  7 29  1 49  0.0000000  0  9G17G25G12G10G09G04G05G27G02
  -7241122.117 6  -5595777.648 6  23167714.477
  -3277690.399 7  -2540305.683 6  24138074.203
 -17616957.746 8 -13714110.470 7  21397033.586
 -19547672.13748 -15188568.35746  20882356.1564                   20882355.4024
  -2761034.32946  -2107203.33743  23703213.1334                   23703215.5594
 -16405596.22148 -12733188.31745  21569860.2274                   21569860.4144
 -13739954.002 7 -10691853.924 7  22135528.094
  -6835006.29646  -5281127.18343  23927696.3444                   23927699.7774
 -21572464.48448 -16762927.76846  20568148.8364                   20568146.1604
 11  7 29  1 49 30.0000000  0  9G17G25G12G10G09G04G05G27G02
  -7185806.371 6  -5552674.480 7  23178240.586
  -3377223.468 7  -2617863.899 6  24119133.750
 -17675106.601 8 -13759421.263 7  21385968.063
 -19554641.19948 -15193998.78846  20881029.5554                   20881029.5984
  -2680565.23746  -2044500.22244  23718526.0944                   23718528.1054
 -16330067.50648 -12674334.79345  21584232.9844                   21584233.5314
 -13832528.652 7 -10763989.951 7  22117911.406
  -6770285.29646  -5230695.34543  23940013.1954                   23940016.2974
 -21574669.73848 -16764646.13346  20567729.0084                   20567726.2934
 11  7 29  1 50  0.0000000  0  9G17G25G12G10G09G04G05G27G02
  -7130335.026 6  -5509450.053 6  23188796.250
  -3476580.657 6  -2695285.044 6  24100225.984
 -17732818.078 8 -13804391.247 7  21374986.016
 -19560980.48947 -15198938.49646  20879822.9924                   20879822.9734
  -2599931.50046  -1981668.81943  23733870.7034                   23733872.4924
 -16254378.86048 -12615356.65245  21598635.4694                   21598636.3054
 -13924818.193 7 -10835903.824 7  22100349.188
  -6705495.58646  -5180209.94743  23952342.0864                   23952345.2034
 -21576573.79848 -16766129.80446  20567366.7974                   20567364.4144
 11  7 29  1 50 30.0000000  0  9G17G25G12G10G09G04G05G27G02
  -7074707.035 7  -5466103.585 6  23199382.227
  -3575759.000 6  -2772566.830 6  24081353.414
 -17790089.735 8 -13849018.513 7  21364087.273
 -19566688.48048 -15203386.27346  20878736.7114                   20878737.1844
  -2519136.02446  -1918711.37244  23749245.4454                   23749247.9144
 -16178532.01148 -12556255.23645  21613069.0704                   21613069.6844
 -14016818.954 7 -10907592.664 7  22082842.063
  -6640639.72546  -5129673.03843  23964684.2584                   23964687.1604
 -21578177.00548 -16767379.03846  20567061.7114                   20567059.1914
 11  7 29  1 51  0.0000000  0  9G17G25G12G10G09G04G05G27G02
  -7018921.886 6  -5422634.656 6  23209997.242
  -3674755.977 6  -2849707.290 6  24062514.859
 -17846919.223 8 -13893301.237 7  21353273.383
 -19571764.92948 -15207341.92146  20877771.1884                   20877770.7854
  -2438182.54946  -1855630.81044  23764650.2974                   23764652.7114
 -16102528.99848 -12497032.13145  21627531.6564                   21627532.2934
 -14108528.331 7 -10979054.451 7  22065390.383
  -6575720.27646  -5079086.54943  23977037.9454                   23977041.0944
 -21579480.61148 -16768394.81846  20566813.7344                   20566811.0434
 11  7 29  1 51 30.0000000  0  9G17G25G12G10G09G04G05G27G02
  -6962979.107 6  -5379042.906 6  23220642.406
  -3773568.894 7  -2926704.332 6  24043711.508
 -17903304.122 8 -13937237.511 7  21342543.313
 -19576209.67148 -15210805.34146  20876925.2424                   20876924.9614
  -2357074.25946  -1792429.63644  23780084.1954                   23780087.3244
 -16026371.79048 -12437688.87245  21642024.0704                   21642024.6764
 -14199943.485 7 -11050286.982 7  22047994.672
  -6510740.00446  -5028452.66143  23989403.1564                   23989406.1294
 -21580485.61348 -16769177.93246  20566622.5394                   20566619.8324
 11  7 29  1 52  0.0000000  0  9G17G25G12G10G09G04G05G27G02
  -6906878.500 6  -5335328.161 6  23231318.484
  -3872195.427 7  -3003556.119 6  24024943.477
 -17959242.504 8 -13980825.868 7  21331898.992
 -19580022.36148 -15213776.26046  20876199.8204                   20876199.3134
  -2275814.44446  -1729110.37344  23795548.1804                   23795550.6804
 -15950062.65148 -12378227.21945  21656545.4924                   21656546.2854
 -14291061.728 7 -11121288.152 7  22030655.398
  -6445701.87546  -4977773.70143  24001779.2504                   24001782.6214
 -21581193.25148 -16769729.32446  20566487.7894                   20566485.2584
 11  7 29  1 52 30.0000000  0  9G17G25G12G10G09G04G05G27G02
  -6850619.565 7  -5291490.011 6  23242024.523
  -3970632.856 7  -3080260.585 6  24006210.789
 -18014731.986 7 -14024064.419 7  21321339.516
 -19583202.62947 -15216254.38246  20875594.5164                   20875594.0124
  -2194406.92746  -1665676.01543  23811039.1484                   23811041.9454
 -15873603.53948 -12318648.71345  21671095.1804                   21671095.2304
 -14381880.171 7 -11192055.723 7  22013372.961
  -6380608.69446  -4927051.86043  24014167.1024                   24014169.7734
 -21581604.64648 -16770049.88146  20566409.5634                   20566406.7974
 11  7 29  1 53  0.0000000  0  9G17G25G12G10G09G04G05G27G02
  -6794201.408 7  -5247527.831 6  23252760.398
  -4068878.256 7  -3156815.405 6  23987516.586
 -18069770.478 7 -14066951.549 7  21310865.898
 -19585749.74248 -15218239.14146  20875109.9694                   20875109.6134
  -2112854.95847  -1602129.10443  23826558.6724                   23826560.5784
 -15796996.01348 -12258954.55545  21685673.1334                   21685673.3834
 -14472395.841 7 -11262587.359 7  21996148.234
  -6315463.00646  -4876289.05643  24026563.4844                   24026566.5824
 -21581720.38948 -16770140.05046  20566387.5164                   20566384.7344
 11  7 29  1 53 30.0000000  0  9G17G25G12G10G09G04G05G27G02
  -6737628.791 7  -5203445.275 6  23263525.617
  -4166934.104 7  -3233222.513 6  23968856.758
 -18124360.601 8 -14109489.298 7  21300477.984
 -19587668.72648 -15219734.44346  20874744.5784                   20874744.4104
  -2031166.93847  -1538476.16244  23842103.1954                   23842105.2424
 -15720247.30448 -12199150.39745  21700278.0004                   21700278.3054
 -14562610.473 7 -11332884.425 7  21978981.078
  -6250272.55546  -4825491.38343  24038969.1884                   24038971.9304
 -21581546.85248 -16770004.81746  20566420.7114                   20566417.9774
 11  7 29  1 54  0.0000000  0  9G17G25G12G10G09G04G05G27G02
  -6680891.274 7  -5159234.222 6  23274322.203
  -4264787.616 7  -3309471.982 6  23950235.094
 -18178489.768 8 -14151667.861 7  21290177.414
 -19588948.99048 -15220732.04446  20874501.1804                   20874500.9264
  -1949335.87647  -1474711.76044  23857675.0164                   23857677.5314
 -15643349.28048 -12139229.86745  21714910.8594                   21714911.3324
 -14652511.532 7 -11402937.156 7  21961873.141
  -6185029.86646  -4774653.00143  24051384.7664                   24051388.0984
 -21581074.93348 -16769637.07846  20566510.2894                   20566507.3954
 11  7 29  1 54 30.0000000  0  9G17G25G12G10G09G04G05G27G02
  -6623993.884 6  -5114898.617 6  23285149.914
  -4362441.832 7  -3385566.125 6  23931652.719
 -18232161.842 8 -14193490.241 7  21279963.641
 -19589595.55447 -15221235.85046  20874377.8984                   20874377.7664
  -1867370.76447  -1410842.92144  23873273.0634                   23873274.9574
 -15566309.33248 -12079198.75545  21729571.2734                   21729571.7544
 -14742101.378 7 -11472747.376 7  21944825.141
  -6119743.22646  -4723780.38743  24063807.8364                   24063811.0274
 -21580311.21948 -16769041.97046  20566655.2424                   20566652.7854
 11  7 29  1 55  0.0000000  0  9G17G25G12G10G09G04G05G27G02
  -6566935.620 7  -5070437.646 6  23296008.055
  -4459893.667 7  -3461502.597 6  23913108.320
 -18285374.187 8 -14234954.387 7  21269837.891
 -19589608.08548 -15221245.60846  20874375.4304                   20874375.2894
  -1785274.67147  -1346872.00544  23888895.1334                   23888896.3554
 -15489129.09048 -12019058.31745  21744258.2814                   21744258.5434
 -14831377.022 7 -11542312.762 7  21927836.625
  -6054415.08246  -4672875.40143  24076240.1174                   24076242.2704
 -21579256.51048 -16768220.11046  20566856.2034                   20566853.8404
 11  7 29  1 55 30.0000000  0  9G17G25G12G10G09G04G05G27G02
  -6509716.218 7  -5025851.083 6  23306896.102
  -4557140.648 7  -3537279.428 6  23894602.547
 -18338124.386 8 -14276058.428 7  21259800.078
 -19588986.44348 -15220761.19646  20874493.8364                   20874493.6094
  -1703051.21047  -1282801.85144  23904541.7974                   23904544.6454
 -15411810.53448 -11958810.10545  21758971.3834                   21758971.8094
 -14920335.691 7 -11611631.163 7  21910908.398
  -5989048.32546  -4621940.35243  24088678.8134                   24088681.8324
 -21577911.99448 -16767172.42646  20567112.1484                   20567109.5314
 11  7 29  1 56  0.0000000  0  9G17G25G12G10G09G04G05G27G02
  -6452335.420 7  -4981138.762 6  23317815.820
  -4654179.887 7  -3612894.371 6  23876136.320
 -18390410.501 8 -14316800.836 7  21249850.383
 -19587730.40647 -15219782.46246  20874733.0314                   20874732.6334
  -1620703.23847  -1218634.64743  23920211.7114                   23920214.3244
 -15334355.65948 -11898455.67045  21773710.3984                   21773710.9774
 -15008974.254 8 -11680700.129 7  21894040.938
  -5923645.53546  -4570977.24943  24101124.5394                   24101127.3444
 -21576278.37348 -16765899.47646  20567422.9454                   20567420.5204
 11  7 29  1 56 30.0000000  0  9G17G25G12G10G09G04G05G27G02
  -6394791.688 7  -4936299.509 6  23328765.750
  -4751008.079 7  -3688344.853 6  23857710.891
 -18442229.676 8 -14357179.396 7  21239989.281
 -19585838.94148 -15218308.58946  20875092.7584                   20875092.3244
  -1538233.48147  -1154372.57843  23935905.0784                   23935907.6334
 -15256765.61848 -11837995.91645  21788475.7424                   21788476.0314
 -15097289.539 7 -11749517.188 7  21877235.203
  -5858208.52646  -4519987.45043  24113576.9064                   24113579.9774
 -21574356.16848 -16764401.64846  20567788.7194                   20567786.2234
 11  7 29  1 57  0.0000000  0  9G17G25G12G10G09G04G05G27G02
  -6337085.607 7  -4891333.740 6  23339746.617
  -4847623.454 7  -3763629.507 6  23839324.977
 -18493580.211 8 -14397192.775 7  21230217.414
 -19583312.69748 -15216340.07146  20875573.2584                   20875573.5554
  -1455646.43047  -1090019.09843  23951621.3054                   23951623.7344
 -15179043.07048 -11777432.90345  21803265.5784                   21803266.1604
 -15185279.308 7 -11818080.603 7  21860491.555
  -5792741.27446  -4468974.09543  24126034.7814                   24126038.0004
 -21572147.46348 -16762680.57946  20568209.1414                   20568206.1374
 11  7 29  1 57 30.0000000  0  9G17G25G12G10G09G04G05G27G02
  -6279217.065 7  -4846241.395 6  23350758.938
  -4944023.553 7  -3838746.400 6  23820980.844
 -18544460.598 8 -14436839.805 7  21220535.766
 -19580152.02848 -15213877.21346  20876175.3054                   20876174.8164
  -1372945.64847  -1025576.99343  23967359.0634                   23967361.1254
 -15101190.32148 -11716768.42845  21818081.0004                   21818080.9224
 -15272941.019 7 -11886388.375 7  21843809.891
  -5727246.41746  -4417939.24543  24138498.1254                   24138501.6954
 -21569653.54748 -16760737.25646  20568683.7034                   20568681.0824
 11  7 29  1 58  0.0000000  0  9G17G25G12G10G09G04G05G27G02
  -6221184.665 7  -4801021.371 6  23361802.063
  -5040205.011 7  -3913692.937 6  23802678.523
 -18594868.481 8 -14476118.653 7  21210942.844
 -19576356.22447 -15210919.43246  20876897.3444                   20876897.1524
  -1290133.70047   -961048.27543  23983117.0784                   23983119.7194
 -15023208.30248 -11656003.23045  21832919.9844                   21832920.4804
 -15360271.049 7 -11954437.707 7  21827191.070
  -5661725.94045  -4366884.41742  24150966.3754                   24150969.3444
 -21566874.59947 -16758571.84146  20569212.4534                   20569209.6564
 11  7 29  1 58 30.0000000  0  9G17G25G12G10G09G04G05G27G02
  -6162988.630 7  -4755673.815 6  23372876.305
  -5136165.713 7  -3988467.464 6  23784417.773
 -18644801.771 8 -14515027.690 7  21201441.219
 -19571925.72248 -15207467.08246  20877740.4384                   20877740.0234
  -1207214.39847   -896435.87843  23998896.6334                   23998898.7424
 -14945099.69748 -11595139.39345  21847783.7344                   21847784.2734
 -15447267.124 7 -12022226.801 7  21810636.648
  -5596183.11746  -4315812.16742  24163438.5394                   24163442.0594
 -21563812.59648 -16756185.85946  20569795.0634                   20569792.2234
 11  7 29  1 59  0.0000000  0  9G17G25G12G10G09G04G05G27G02
  -6104629.324 7  -4710199.029 6  23383981.734
  -5231903.296 7  -4063068.154 6  23766199.063
 -18694258.659 8 -14553565.500 7  21192030.016
 -19566860.93548 -15203520.48746  20878704.0784                   20878703.7034
  -1124191.57346   -831742.84543  24014695.6174                   24014697.7154
 -14866866.46048 -11534178.43345  21862670.8364                   21862671.4024
 -15533926.734 7 -12089753.721 7  21794145.430
  -5530621.07246  -4264724.89743  24175914.1024                   24175917.8834
 -21560468.84848 -16753580.33746  20570431.3984                   20570428.6724
 11  7 29  1 59 30.0000000  0  9G17G25G12G10G09G04G05G27G02
  -6046104.741 7  -4664595.488 6  23395118.523
  -5327414.185 7  -4137492.201 6  23748024.109
 -18743236.470 8 -14591730.004 7  21182709.516
 -19561160.98848 -15199078.96346  20879788.8444                   20879788.7544
  -1041067.49446   -766970.89643  24030513.1094                   24030515.0744
 -14788509.69248 -11473121.21845  21877581.7734                   21877582.1684
 -15620246.263 7 -12157015.642 7  21777719.469
  -5465041.53346  -4213624.01243  24188394.8444                   24188397.0984
 -21556843.40348 -16750755.32546  20571121.1254                   20571118.4144
 11  7 29  2  0  0.0000000  0  9G17G25G12G10G09G04G05G27G02
  -5987415.388 7  -4618863.550 6  23406286.859
  -5422696.693 7  -4211738.297 6  23729892.445
 -18791733.290 8 -14629519.710 7  21173480.664
 -19554826.81048 -15194143.24846  20880994.1954                   20880993.7384
   -957846.67746   -702123.57843  24046349.6174                   24046351.9694
 -14710032.23348 -11411969.94245  21892515.6174                   21892515.6954
 -15706223.918 7 -12224011.170 7  21761358.156
  -5399448.27946  -4162512.47243  24200876.8524                   24200879.7544
 -21552938.42348 -16747712.49246  20571864.5234                   20571861.9804
 11  7 29  2  0 30.0000000  0  9G17G25G12G10G09G04G05G27G02
  -5928560.037 7  -4573002.265 6  23417486.047
  -5517746.902 7  -4285803.410 6  23711804.641
 -18839746.640 8 -14666932.688 7  21164344.391
 -19547857.05648 -15188712.26646  20882320.4304                   20882320.0864
   -874531.06846   -637202.41943  24062204.2274                   24062206.9734
 -14631434.72648 -11350725.13645  21907472.4694                   21907472.8364
 -15791855.668 7 -12290737.153 7  21745062.930
  -5333842.79346  -4111391.39543  24213360.8054                   24213364.0234
 -21548753.82848 -16744451.78546  20572660.5394                   20572658.2304
 11  7 29  2  1  0.0000000  0  9G17G25G12G10G09G04G05G27G02
  -5869540.721 7  -4527013.242 6  23428717.813
  -5612564.829 7  -4359687.493 6  23693762.414
 -18887277.155 8 -14703969.437 7  21155299.328
 -19540254.43748 -15182788.13446  20883767.4384                   20883766.8244
   -791126.57046   -572212.00343  24078075.0944                   24078078.8834
 -14552721.57948 -11289390.21645  21922450.5234                   21922450.8954
 -15877141.418 7 -12357193.529 7  21728833.813
  -5268230.28046  -4060264.85543  24225845.7344                   24225849.9344
 -21544293.46448 -16740976.18346  20573509.2734                   20573506.5594
 11  7 29  2  1 30.0000000  0  9G17G25G12G10G09G04G05G27G02
  -5810352.917 7  -4480892.914 6  23439980.703
  -5707143.447 7  -4433385.115 6  23675763.836
 -18934318.393 8 -14740624.929 7  21146347.922
 -19532015.12348 -15176367.87246  20885335.2114                   20885334.8364
   -707632.60746   -507151.85544  24093964.1884                   24093966.9804
 -14473890.20748 -11227963.15145  21937451.5084                   21937452.0004
 -15962074.150 8 -12423374.837 7  21712671.383
  -5202609.36746  -4009131.77943  24238333.7274                   24238337.2854
 -21539553.85548 -16737282.97746  20574411.5864                   20574408.8554
 11  7 29  2  2  0.0000000  0  9G17G25G12G10G09G04G05G27G02
  -5751000.002 6  -4434643.906 6  23451275.289
  -5801484.033 7  -4506897.282 6  23657812.266
 -18980872.484 8 -14776900.824 7  21137488.867
 -19523143.08848 -15169454.59346  20887023.5474                   20887023.1054
   -624056.09446   -442027.40643  24109868.5944                   24109871.1844
 -14394946.68648 -11166448.71545  21952473.7114                   21952474.5274
 -16046654.876 8 -12489281.841 7  21696575.930
  -5136986.39646  -3957997.09243  24250821.4774                   24250824.8954
 -21534540.12148 -16733376.17246  20575365.7664                   20575362.9104
 11  7 29  2  2 30.0000000  0  9G17G25G12G10G09G04G05G27G02
  -5691480.266 7  -4388264.918 6  23462601.758
  -5895582.253 7  -4580220.580 6  23639905.961
 -19026935.648 8 -14812794.183 7  21128723.586
 -19513637.13448 -15162047.34146  20888832.3204                   20888832.1644
   -540398.58346   -376839.79844  24125788.0474                   24125790.8834
 -14315891.03847 -11104846.90645  21967518.3444                   21967518.3794
 -16130879.403 8 -12554911.303 7  21680548.617
  -5071362.50446  -3906861.69143  24263309.2664                   24263312.7624
 -21529252.11348 -16729255.64646  20576371.9144                   20576369.2114
 11  7 29  2  3  0.0000000  0  9G17G25G12G10G09G04G05G27G02
  -5631793.449 6  -4341755.728 6  23473959.313
  -5989436.017 7  -4653353.393 6  23622045.625
 -19072506.260 8 -14848303.737 7  21120051.664
 -19503497.87448 -15154146.60546  20890761.5234                   20890761.3674
   -456664.22846   -311592.33143  24141721.4694                   24141725.3244
 -14236725.44347 -11043159.40745  21982582.7194                   21982583.2504
 -16214745.615 7 -12620261.550 7  21664589.430
  -5005741.08446  -3855728.20843  24275797.2584                   24275799.8674
 -21523691.62248 -16724922.79246  20577429.8524                   20577427.5784
 11  7 29  2  3 30.0000000  0  9G17G25G12G10G09G04G05G27G02
  -5571937.438 7  -4295114.698 6  23485349.570
  -6083040.620 7  -4726292.041 6  23604233.289
 -19117580.511 8 -14883426.518 7  21111474.344
 -19492723.58948 -15145751.03346  20892811.8364                   20892811.5044
   -372854.23346   -246285.93843  24157670.5704                   24157673.6484
 -14157450.06047 -10981386.37045  21997668.3444                   21997668.6804
 -16298248.510 8 -12685328.699 7  21648699.789
  -4940122.74146  -3804597.11743  24288283.5864                   24288286.8484
 -21517857.42148 -16720376.65946  20578540.1804                   20578537.4494
 11  7 29  2  4  0.0000000  0  9G17G25G12G10G09G04G05G27G02
  -5511914.172 7  -4248343.335 6  23496772.039
  -6176395.937 7  -4799036.432 6  23586468.141
 -19162159.342 8 -14918163.267 7  21102990.898
 -19481317.28148 -15136863.00046  20894982.5164                   20894982.2344
   -288974.36046   -180925.06143  24173632.6254                   24173635.6334
 -14078069.00148 -10919530.97645  22012773.8674                   22012774.3954
 -16381388.083 8 -12750112.737 7  21632878.555
  -4874512.58546  -3753472.39343  24300768.6024                   24300772.5434
 -21511752.81248 -16715619.82146  20579702.0394                   20579699.3524
 11  7 29  2  4 30.0000000  0  9G17G25G12G10G09G04G05G27G02
  -5451722.839 7  -4201441.025 6  23508225.813
  -6269498.524 7  -4871583.869 6  23568751.367
 -19206239.792 8 -14952511.656 7  21094602.805
 -19469278.19748 -15127481.88646  20897273.4694                   20897273.1334
   -205027.19446   -115511.75943  24189607.2894                   24189610.2974
 -13998583.27947 -10857594.02645  22027899.7504                   22027900.1954
 -16464160.831 8 -12814610.936 7  21617127.523
  -4808912.50946  -3702355.54143  24313252.0944                   24313256.0434
 -21505378.55948 -16710652.86146  20580914.7504                   20580912.2274
 11  7 29  2  5  0.0000000  0  9G17G25G12G10G09G04G05G27G02
  -5391362.649 7  -4154407.109 6  23519712.398
  -6362345.160 7  -4943931.869 6  23551083.000
 -19249819.708 7 -14986470.036 7  21086309.570
 -19456606.14648 -15117607.56046  20899684.8674                   20899684.2344
   -121015.16446    -50047.90343  24205594.0004                   24205597.0984
 -13918994.29547 -10795576.61745  22043045.1334                   22043045.3914
 -16546563.475 8 -12878820.745 7  21601446.508
  -4743324.66546  -3651248.18343  24325733.6644                   24325736.5824
 -21498734.90448 -16705475.97446  20582178.9384                   20582176.3754
 11  7 29  2  5 30.0000000  0  9G17G25G12G10G09G04G05G27G02
  -5330833.169 7  -4107241.300 6  23531230.492
  -6454933.567 7  -5016078.651 6  23533463.688
 -19292897.205 8 -15020036.907 7  21078112.813
 -19443302.18748 -15107240.82946  20902216.3914                   20902216.0514
    -36942.23046     15463.40744  24221592.9844                   24221595.4694
 -13839303.87847 -10733480.17545  22058209.5944                   22058209.8014
 -16628593.858 8 -12942740.481 7  21585836.961
  -4677752.21546  -3600152.88043  24338211.0704                   24338214.9924
 -21491824.06148 -16700090.89246  20583493.9774                   20583491.3204
 11  7 29  2  6  0.0000000  0  9G17G25G12G10G09G04G05G27G02
  -5270134.386 7  -4059943.564 6  23542780.672
  -6547261.214 7  -5088022.220 6  23515894.719
 -19335470.922 8 -15053211.231 7  21070010.727
 -19429366.79648 -15096382.08046  20904868.0704                   20904867.9064
     47188.08847     81019.44244  24237602.5704                   24237605.2774
 -13759514.34447 -10671306.48745  22073393.2974                   22073393.1294
 -16710249.432 8 -13006368.159 7  21570298.125
  -4612197.96746  -3549071.73843  24350685.5944                   24350689.4804
 -21484647.05848 -16694498.41946  20584859.6414                   20584856.8594
 11  7 29  2  6 30.0000000  0  9G17G25G12G10G09G04G05G27G02
  -5209265.099 7  -4012512.958 6  23554363.938
  -6639324.661 7  -5159759.925 6  23498375.703
 -19377537.926 8 -15085990.725 7  21062006.211
 -19414799.58548 -15085030.99046  20907640.1644                   20907639.9104
    131373.22847    146618.21544  24253622.4924                   24253625.2934
 -13679626.42247 -10609056.14045  22088595.1644                   22088595.4924
 -16791526.773 8 -13069701.098 7  21554831.797
  -4546663.81446  -3498006.25443  24363156.3054                   24363160.0864
 -21477204.13148 -16688698.72746  20586276.2114                   20586273.8444
 11  7 29  2  7  0.0000000  0  9G17G25G12G10G09G04G05G27G02
  -5148226.735 7  -3964950.609 6  23565979.313
  -6731122.662 7  -5231290.783 6  23480907.094
 -19419098.212 8 -15118375.370 7  21054097.211
 -19399602.48948 -15073189.09346  20910532.6484                   20910532.1374
    215608.69847    212256.19944  24269652.1724                   24269654.9844
 -13599643.35047 -10546731.64345  22103815.2034                   22103815.5634
 -16872424.500 8 -13132738.242 7  21539437.305
  -4481153.76446  -3446959.56943  24375622.4144                   24375626.4924
 -21469498.09748 -16682694.01346  20587742.9224                   20587740.1414
 11  7 29  2  7 30.0000000  0  9G17G25G12G10G09G04G05G27G02
  -5087016.902 7  -3917254.617 6  23577627.563
  -6822650.838 7  -5302611.373 6  23463489.914
 -19460148.143 8 -15150362.328 7  21046285.625
 -19383774.37147 -15060855.48446  20913544.1094                   20913543.6994
    299892.93647    277932.17444  24285690.4534                   24285693.3874
 -13519564.93447 -10484332.86145  22119053.5004                   22119053.8484
 -16952938.554 8 -13195476.427 7  21524116.016
  -4415668.88146  -3395932.50043  24388084.2274                   24388088.2234
 -21461528.07748 -16676483.60546  20589259.2034                   20589256.3914
 11  7 29  2  8  0.0000000  0  9G17G25G12G10G09G04G05G27G02
  -5025636.052 7  -3869425.379 6  23589307.805
  -6913907.270 7  -5373720.206 6  23446123.656
 -19500686.500 8 -15181950.668 7  21038571.594
 -19367316.39447 -15048031.08146  20916676.2194                   20916675.5944
    384222.00946    343643.10643  24301737.5554                   24301740.6054
 -13439393.86847 -10421861.87145  22134310.1414                   22134309.8594
 -17033067.068 7 -13257914.185 7  21508867.703
  -4350212.34845  -3344927.49943  24400539.8984                   24400544.5274
 -21453296.06248 -16670069.04946  20590825.6174                   20590823.0204
 11  7 29  2  8 30.0000000  0  9G17G25G12G10G09G04G05G27G02
  -4964085.125 7  -3821463.633 6  23601020.297
  -7004890.384 7  -5444616.068 6  23428810.766
 -19540712.708 8 -15213139.920 7  21030954.648
 -19350230.06147 -15034717.04846  20919927.3364                   20919926.9064
    468591.32946    409385.38843  24317792.5394                   24317795.9144
 -13359132.96047 -10359320.88545  22149583.3054                   22149583.1644
 -17112808.231 7 -13320050.114 7  21493693.695
  -4284787.85146  -3293947.51543  24412990.7894                   24412994.6254
 -21444804.50248 -16663452.23846  20592441.8284                   20592438.9024
 11  7 29  2  9  0.0000000  0  9G17G25G12G10G09G04G05G27G02
  -4902361.687 7  -3773367.448 6  23612765.953
  -7095595.367 7  -5515295.196 6  23411549.914
 -19580222.870 8 -15243927.056 7  21023436.383
 -19332514.17347 -15020912.44746  20923298.6254                   20923298.0234
    552999.60146    475158.02643  24333855.0164                   24333857.9454
 -13278781.85847 -10296709.62145  22164873.1094                   22164873.2974
 -17192157.264 8 -13381880.493 7  21478593.930
  -4219396.12046  -3242993.01743  24425434.4384                   24425438.1134
 -21436052.10848 -16656632.17646  20594106.9844                   20594104.5904
 11  7 29  2  9 30.0000000  0  9G17G25G12G10G09G04G05G27G02
  -4840467.101 6  -3725137.927 6  23624543.930
  -7186021.391 7  -5585756.958 7  23394342.867
 -19619216.828 7 -15274311.955 7  21016016.133
 -19314171.05647 -15006619.11046  20926789.2034                   20926788.8714
    637442.02646    540957.28243  24349924.0944                   24349927.0164
 -13198343.96447 -10234030.70745  22180180.4304                   22180180.5434
 -17271113.611 8 -13443404.876 7  21463568.828
  -4154041.61446  -3192067.51243  24437871.0394                   24437874.9844
 -21427042.01748 -16649611.32046  20595821.9694                   20595819.1884
 11  7 29  2 10  0.0000000  0  9G17G25G12G10G09G04G05G27G02
  -4778399.999 7  -3676773.974 6  23636355.102
  -7276164.919 7  -5655998.603 6  23377189.164
 -19657692.616 8 -15304293.078 7  21008694.242
 -19295200.55748 -14991836.89646  20930399.3754                   20930398.8954
    721916.33846    606781.39443  24365999.3834                   24366001.8244
 -13117820.13147 -10171284.84645  22195502.9694                   22195503.4574
 -17349673.811 8 -13504620.579 7  21448619.445
  -4088725.97846  -3141172.32543  24450299.8984                   24450304.4384
 -21417774.73448 -16642390.05746  20597585.3364                   20597582.4964
 11  7 29  2 10 30.0000000  0  9G17G25G12G10G09G04G05G27G02
  -4716160.506 7  -3628275.706 6  23648198.867
  -7366023.416 7  -5726018.153 6  23360089.328
 -19695648.392 8 -15333869.004 7  21001471.734
 -19275603.66147 -14976566.57646  20934128.3364                   20934128.1804
    806419.08646    672627.68243  24382079.5394                   24382082.2424
 -13037211.97847 -10108473.27445  22210842.5004                   22210842.7034
 -17427835.496 8 -13565525.747 7  21433745.766
  -4023452.17246  -3090309.75642  24462721.1884                   24462725.9844
 -21408251.50248 -16634969.34546  20599397.3134                   20599394.8714
 11  7 29  2 11  0.0000000  0  9G17G25G12G10G09G04G05G27G02
  -4653747.959 6  -3579642.539 6  23660075.469
  -7455593.929 7  -5795813.281 6  23343044.547
 -19733082.073 8 -15363038.102 7  20994347.695
 -19255380.48047 -14960808.24746  20937977.0314                   20937976.5274
    890947.35346    738493.78843  24398164.9924                   24398167.2934
 -12956521.03647 -10045597.20045  22226197.5944                   22226197.8874
 -17505595.622 8 -13626118.016 7  21418948.766
  -3958222.38346  -3039481.45142  24475134.1954                   24475138.0394
 -21398473.04548 -16627349.75746  20601258.0084                   20601256.1724
 11  7 29  2 11 30.0000000  0  9G17G25G12G10G09G04G05G27G02
  -4591163.352 6  -3530875.352 6  23671985.016
  -7544874.856 7  -5865382.763 6  23326054.352
 -19769993.045 8 -15391799.880 7  20987324.188
 -19234532.84248 -14944563.32346  20941943.9224                   20941943.4844
    975496.75846    804376.40243  24414253.8524                   24414256.2274
 -12875750.02147  -9982658.72445  22241567.2034                   22241567.6134
 -17582952.977 8 -13686396.430 7  21404228.344
  -3893040.28046  -2988690.25342  24487538.2424                   24487542.1334
 -21388441.49048 -16619532.94346  20603166.8914                   20603164.3954
 11  7 29  2 12  0.0000000  0  8G17G25G12G10G09G04G05G02
  -4528400.553 6  -3481969.305 6  23683928.102
  -7633857.829 7  -5934720.079 6  23309121.922
 -19806374.056 7 -15420148.701 7  20980401.297
 -19213055.88747 -14927828.02646  20946030.6884                   20946030.6454
   1060070.20746    870277.68543  24430347.2814                   24430350.3014
 -12794894.94147  -9919654.74745  22256953.3914                   22256953.8674
 -17659899.058 7 -13746354.381 7  21389585.469
 -21378152.32047 -16611515.39346  20605124.8674                   20605122.2424
 11  7 29  2 12 30.0000000  0  8G17G25G12G10G09G04G05G02
  -4465468.536 6  -3432931.421 6  23695903.539
  -7722549.513 7  -6003830.422 6  23292244.172
 -19842232.837 8 -15448090.589 7  20973577.250
 -19190959.83147 -14910610.31446  20950235.4304                   20950235.6524
   1144654.95246    936187.79143  24446443.1724                   24446446.4964
 -12713966.72647  -9856593.78445  22272354.0164                   22272354.0664
 -17736440.696 8 -13805997.181 7  21375020.234
 -21367616.05548 -16603305.29246  20607130.3284                   20607127.2544
 11  7 29  2 13  0.0000000  0  8G17G25G12G10G09G04G05G02
  -4402361.696 6  -3383757.294 6  23707911.836
  -7810941.867 7  -6072707.515 6  23275423.570
 -19877562.352 8 -15475620.072 7  20966854.180
 -19168240.14747 -14892906.66046  20954559.0004                   20954558.4494
   1229253.36446   1002108.58243  24462542.5314                   24462545.0004
 -12632961.70947  -9793472.98745  22287768.3444                   22287768.6764
 -17812570.041 8 -13865318.704 7  21360533.523
 -21356828.58648 -16594899.45746  20609182.8674                   20609180.0474
 11  7 29  2 13 30.0000000  0  8G17G25G12G10G09G04G05G02
  -4339083.609 6  -3334449.717 6  23719953.969
  -7899035.960 7  -6141352.205 6  23258659.719
 -19912364.884 8 -15502738.915 7  20960231.578
 -19144901.20847 -14874720.46246  20959000.3674                   20958999.9024
   1313858.06346   1068034.29643  24478642.3834                   24478645.1764
 -12551885.19447  -9730296.48145  22303196.7664                   22303197.0004
 -17888288.551 8 -13924320.098 7  21346124.477
 -21345794.65848 -16586301.57546  20611282.3204                   20611279.8984
 11  7 29  2 14  0.0000000  0  8G17G25G12G10G09G04G05G02
  -4275628.276 6  -3285004.039 6  23732029.930
  -7986823.557 7  -6209758.081 6  23241954.570
 -19946633.257 8 -15529441.535 7  20953710.523
 -19120938.59147 -14856048.28146  20963560.1884                   20963559.4104
   1398471.74446   1133966.98843  24494743.6724                   24494746.8444
 -12470733.09447  -9667061.09245  22318639.8364                   22318640.1844
 -17963587.990 8 -13982994.950 7  21331795.539
 -21334510.09448 -16577508.40246  20613429.6564                   20613427.4494
 11  7 29  2 14 30.0000000  0  8G17G25G12G10G09G04G05G02
  -4211999.372 6  -3235423.083 6  23744137.578
  -8074305.861 7  -6277926.074 6  23225306.664
 -19980369.566 8 -15555729.556 7  20947290.508
 -19096356.89548 -14836893.70246  20968237.9774                   20968237.6094
   1483086.97646   1199900.90443  24510845.9694                   24510848.3554
 -12389510.87247  -9603771.05345  22334095.7424                   22334096.0204
 -18038469.731 8 -14041344.320 7  21317545.617
 -21322979.90348 -16568523.82746  20615623.9304                   20615621.5124
 11  7 29  2 15  0.0000000  0  8G17G25G12G10G09G04G05G02
  -4148195.142 6  -3185705.532 6  23756278.703
  -8161478.938 7  -6345853.110 6  23208718.125
 -20013570.840 8 -15581600.668 7  20940972.961
 -19071155.64548 -14817256.35146  20973033.5704                   20973033.5474
   1567702.24546   1265834.85143  24526947.8674                   24526949.9534
 -12308218.84747  -9540426.65345  22349564.8364                   22349565.1844
 -18112929.952 8 -14099365.231 7  21303376.508
 -21311203.71448 -16559347.56646  20617864.8204                   20617862.1094
 11  7 29  2 15 30.0000000  0  8G17G25G12G10G09G04G05G02
  -4084215.774 6  -3135851.524 6  23768453.852
  -8248340.262 7  -6413537.228 6  23192189.195
 -20046236.251 8 -15607054.224 7  20934756.648
 -19045335.65448 -14797136.86246  20977946.9384                   20977946.6844
   1652314.25946   1331766.24643  24543048.6884                   24543051.2274
 -12226858.73247  -9477029.18245  22365047.4144                   22365048.0594
 -18186966.352 8 -14157055.894 7  21289287.695
 -21299182.83248 -16549980.62646  20620152.1484                   20620149.3444
 11  7 29  2 16  0.0000000  0  8G17G25G12G10G09G04G05G02
  -4020060.899 6  -3085860.746 6  23780662.883
  -8334887.253 7  -6480976.422 6  23175720.352
 -20078364.285 8 -15632089.041 7  20928642.688
 -19018898.33447 -14776536.34146  20982977.5944                   20982977.5664
   1736919.92146   1397692.67443  24559148.4534                   24559151.5084
 -12145432.14247  -9413579.93045  22380542.6644                   22380542.7934
 -18260576.741 8 -14214414.600 7  21275280.188
 -21286918.90848 -16540424.30446  20622485.7814                   20622483.4454
 11  7 29  2 16 30.0000000  0  8G17G25G12G10G09G04G05G02
  -3955731.366 7  -3035733.875 6  23792904.039
  -8421118.471 7  -6548169.564 7  23159310.734
 -20109954.539 8 -15656704.809 7  20922631.586
 -18991845.98748 -14755456.57946  20988125.6804                   20988125.3054
   1821514.96846   1463610.83144  24575246.2814                   24575249.6414
 -12063941.88647  -9350081.07245  22396049.2814                   22396049.9804
 -18333759.795 8 -14271440.322 7  21261353.961
 -21274413.69348 -16530679.97146  20624865.9304                   20624863.1764
 11  7 29  2 17  0.0000000  0  8G17G25G12G10G09G04G05G02
  -3891225.635 6  -2985469.689 6  23805178.852
  -8507029.705 7  -6615113.365 6  23142962.344
 -20141003.951 8 -15680899.153 7  20916722.977
 -18964178.01748 -14733897.09946  20993390.1884                   20993390.0474
   1906097.66546   1529519.36944  24591341.7274                   24591345.4414
 -11982387.98147  -9286532.61845  22411568.8914                   22411569.0314
 -18406511.641 8 -14328130.037 7  21247509.617
 -21261666.93248 -16520747.40946  20627291.2974                   20627288.6414
 11  7 29  2 17 30.0000000  0  8G17G25G12G10G09G04G05G02
  -3826543.284 7  -2935067.896 6  23817487.953
  -8592618.186 7  -6681805.672 7  23126675.633
 -20171510.989 8 -15704670.859 7  20910917.406
 -18935895.55348 -14711858.80546  20998772.5634                   20998772.2384
   1990665.20646   1595416.08944  24607434.9144                   24607438.5314
 -11900771.51747  -9222935.41445  22427099.3444                   22427100.6174
 -18478829.721 8 -14384481.754 7  21233748.016
 -21248679.83648 -16510627.58846  20629762.5474                   20629760.0004
 11  7 29  2 18  0.0000000  0  8G17G25G12G10G09G04G05G02
  -3761685.294 7  -2884529.257 6  23829830.281
  -8677882.387 7  -6748245.295 7  23110450.539
 -20201475.455 8 -15728019.787 7  20905215.859
 -18907000.76448 -14689343.37446  21004270.9844                   21004271.2344
   2075213.13946   1661297.51443  24623523.5944                   24623527.0004
 -11819095.47947  -9159291.79945  22442642.2504                   22442642.9964
 -18550712.828 8 -14440494.517 7  21220069.094
 -21235454.64248 -16500322.22946  20632279.2584                   20632276.6564
 11  7 29  2 18 30.0000000  0  8G17G25G12G10G09G04G05G02
  -3696650.479 7  -2833852.787 6  23842204.914
  -8762818.744 7  -6814429.466 7  23094286.977
 -20230894.782 8 -15750943.932 7  20899617.102
 -18877493.47848 -14666350.66446  21009885.9924                   21009886.0044
   2159739.27046   1727161.96743  24639608.7194                   24639611.8054
 -11737360.38247  -9095602.16445  22458196.2584                   22458196.3634
 -18622157.402 8 -14496165.580 7  21206473.547
 -21221991.56648 -16489831.51146  20634841.2034                   20634838.7974
 11  7 29  2 19  0.0000000  0  8G17G25G12G10G09G04G05G02
  -3631438.783 6  -2783038.531 6  23854614.930
  -8847424.678 7  -6880356.162 7  23078187.320
 -20259768.014 8 -15773442.541 7  20894122.734
 -18847375.26948 -14642881.91146  21015617.4614                   21015617.0514
   2244240.26246   1793006.84843  24655688.9924                   24655691.5274
 -11655567.70947  -9031867.66144  22473761.1174                   22473761.2274
 -18693161.429 8 -14551493.361 7  21192961.859
 -21208291.80148 -16479156.36646  20637447.8984                   20637445.5234
 11  7 29  2 19 30.0000000  0  8G17G25G12G10G09G04G05G02
  -3566049.700 7  -2732086.021 6  23867058.141
  -8931697.302 7  -6946023.144 7  23062151.039
 -20288093.482 8 -15795514.332 7  20888732.609
 -18816646.91348 -14618937.73346  21021464.6804                   21021464.2234
   2328713.57746   1858830.10943  24671763.3754                   24671766.5744
 -11573718.64447  -8968089.20745  22489336.1024                   22489336.7234
 -18763722.144 8 -14606475.699 7  21179534.492
 -21194356.53348 -16468297.70846  20640100.1094                   20640097.7034
 11  7 29  2 20  0.0000000  0  8G17G25G12G10G09G04G05G02
  -3500484.871 6  -2680996.545 6  23879534.219
  -9015635.862 7  -7011429.823 7  23046177.500
 -20315871.074 8 -15817159.195 7  20883446.688
 -18785311.74048 -14594520.70346  21027427.3834                   21027427.1484
   2413154.30446   1924628.01943  24687831.1414                   24687835.2544
 -11491816.70147  -8904269.56745  22504921.9224                   22504922.2464
 -18833839.178 8 -14661112.305 7  21166191.742
 -21180188.75748 -16457257.88146  20642796.1484                   20642793.6454
 11  7 29  2 20 30.0000000  0  8G17G25G12G10G09G04G05G02
  -3434742.001 7  -2629768.355 6  23892045.313
  -9099235.845 7  -7076572.684 7  23030269.586
 -20343098.539 8 -15838375.394 7  20878265.516
 -18753368.58047 -14569629.91946  21033506.1254                   21033505.9414
   2497561.24646   1990399.56543  24703893.9774                   24703896.7274
 -11409861.33747  -8840408.28744  22520517.1954                   22520517.5084
 -18903508.320 8 -14715399.916 7  21152934.055
 -21165787.13948 -16446035.84046  20645536.9144                   20645534.1994
 11  7 29  2 21  0.0000000  0  8G17G25G12G10G09G04G05G02
  -3368821.455 6  -2578401.652 6  23904589.047
  -9182495.150 7  -7141450.072 6  23014425.695
 -20369774.756 8 -15859162.049 7  20873189.320
 -18720819.50148 -14544266.99546  21039699.8984                   21039699.7384
   2581930.57645   2056141.83443  24719949.0164                   24719951.9844
 -11327854.62747  -8776506.99445  22536122.5864                   22536122.6644
 -18972727.769 8 -14769337.115 7  21139761.914
 -21151153.48548 -16434632.99146  20648321.3284                   20648318.5204
 11  7 29  2 21 30.0000000  0  8G17G25G12G10G09G04G05G02
  -3302722.459 6  -2526895.950 6  23917167.133
  -9265410.299 7  -7206059.279 6  22998647.500
 -20395897.718 8 -15879517.587 7  20868218.148
 -18687664.78248 -14518432.12746  21046009.1644                   21046008.5784
   2666260.66646   2121853.50643  24735996.0784                   24736000.2704
 -11245797.17347  -8712566.15244  22551737.7584                   22551738.1134
 -19041494.416 8 -14822921.487 7  21126675.922
 -21136288.40248 -16423049.81146  20651150.1094                   20651147.2704
 11  7 29  2 22  0.0000000  0  8G17G25G12G10G09G04G05G02
  -3236446.299 6  -2475252.183 6  23929779.664
  -9347980.102 7  -7270399.370 7  22982934.602
 -20421467.277 8 -15899441.914 7  20863352.563
 -18653907.07848 -14492127.40946  21052433.0084                   21052432.6684
   2750546.57646   2187530.70743  24752035.4144                   24752039.6054
 -11163691.47147  -8648587.71744  22567362.1174                   22567361.7234
 -19109807.483 8 -14876152.409 7  21113676.805
 -21121194.28048 -16411288.15246  20654022.1954                   20654019.8914
 11  7 29  2 22 30.0000000  0  8G17G25G12G10G09G04G05G02
  -3169991.786 6  -2423469.450 6  23942425.055
  -9430200.970 7  -7334467.569 6  22967288.375
 -20446481.562 8 -15918933.557 7  20858592.523
 -18619546.96748 -14465353.27646  21058971.8524                   21058971.3954
   2834786.35646   2253172.05042  24768065.5864                   24768069.4064
 -11081538.48947  -8584572.44344  22582995.5004                   22582995.2274
 -19177663.697 8 -14929027.351 7  21100763.953
 -21105871.50748 -16399348.32846  20656938.0634                   20656935.7424
 11  7 29  2 23  0.0000000  0  8G17G25G12G10G09G04G05G02
  -3103359.804 6  -2371548.420 6  23955105.375
  -9512071.745 7  -7398262.953 6  22951709.148
 -20470940.450 8 -15937992.416 7  20853937.977
 -18584587.20548 -14438111.88546  21065623.8054                   21065623.9384
   2918975.67846   2318774.00642  24784086.5784                   24784090.4574
 -10999340.68247  -8520522.22244  22598636.5554                   22598637.0864
 -19245062.377 8 -14981545.773 7  21087938.625
 -21090322.56448 -16387232.25946  20659897.3364                   20659894.6374
 11  7 29  2 23 30.0000000  0  8G17G25G12G10G09G04G05G02
  -3036549.507 7  -2319488.416 6  23967818.930
  -9593588.737 7  -7461782.666 6  22936197.078
 -20494842.013 8 -15956616.995 7  20849389.781
 -18549027.89548 -14410403.32246  21072391.0474                   21072390.7814
   3003112.66946   2384335.26543  24800096.5474                   24800101.2344
 -10917098.57847  -8456437.51144  22614287.3134                   22614287.5474
 -19311999.955 8 -15033704.889 7  21075200.523
 -21074547.50248 -16374940.00346  20662899.1094                   20662896.3984
 11  7 29  2 24  0.0000000  0  8G17G25G12G10G09G04G05G02
  -2969559.786 6  -2267288.624 6  23980566.133
  -9674748.304 7  -7525023.860 6  22920752.977
 -20518183.730 8 -15974805.341 7  20844947.727
 -18512869.43848 -14382227.88946  21079271.7424                   21079271.1764
   3087195.31446   2449854.11243  24816098.2974                   24816101.3404
 -10834812.54847  -8392318.55844  22629945.5084                   22629946.0904
 -19378473.771 8 -15085502.637 7  21062550.938
 -21058546.28548 -16362471.51846  20665943.8204                   20665941.0664
 11  7 29  2 24 30.0000000  0  8G17G25G12G10G09G04G05G02
  -2902392.670 6  -2214950.555 6  23993347.711
  -9755550.214 7  -7587986.343 7  22905376.945
 -20540967.073 8 -15992558.584 7  20840612.469
 -18476115.74248 -14353588.61646  21086265.5864                   21086265.2234
   3171218.30946   2515326.49343  24832087.3444                   24832090.3134
 -10752486.24947  -8328168.21844  22645611.6804                   22645612.2704
 -19444483.177 8 -15136938.511 7  21049990.266
 -21042322.61848 -16349829.69146  20669031.0864                   20669028.7814
 11  7 29  2 25  0.0000000  0  8G17G25G12G10G09G04G05G02
  -2835046.120 6  -2162472.714 6  24006163.023
  -9835989.953 7  -7650666.605 7  22890069.578
 -20563189.010 8 -16009874.367 7  20836383.445
 -18438766.21348 -14324485.07146  21093372.7504                   21093372.9304
   3255180.34646   2580751.37743  24848065.4694                   24848068.0634
 -10670119.07847  -8263986.04344  22661285.3674                   22661285.9494
 -19510024.482 8 -15188009.636 7  21037517.781
 -21025875.74848 -16337013.93846  20672160.8524                   20672158.4104
 11  7 29  2 25 30.0000000  0  7G17G25G12G10G04G05G02
  -2767500.129 6  -2109839.485 6  24019017.594
  -9916044.937 7  -7713047.060 7  22874835.133
 -20584828.404 8 -16026736.233 7  20832265.898
 -18400802.40048 -14294902.86346  21100597.3364                   21100596.9104
 -10587692.57247  -8199757.63344  22676971.2894                   22676971.3834
 -19575075.570 8 -15238698.763 8  21025138.891
 -21009186.60348 -16324009.40546  20675336.5554                   20675334.3244
 11  7 29  2 26  0.0000000  0  7G17G25G12G10G04G05G02
  -2699796.539 6  -2057083.433 6  24031899.594
  -9995754.665 7  -7775158.476 7  22859667.313
 -20605926.237 8 -16043176.092 7  20828251.102
 -18362267.95848 -14264876.00146  21107930.1724                   21107929.7934
 -10505249.95147  -8135516.65244  22692659.3834                   22692659.8594
 -19639676.368 8 -15289037.006 7  21012845.586
 -20992298.34948 -16310849.70646  20678550.4694                   20678547.8094
 11  7 29  2 26 30.0000000  0  7G17G25G12G10G04G05G02
  -2631913.469 6  -2004187.508 6  24044818.063
 -10075095.019 7  -7836982.067 7  22844569.523
 -20626459.553 8 -16059176.068 7  20824343.352
 -18323142.62948 -14234388.71646  21115375.4384                   21115375.1174
 -10422771.11647  -8071247.45444  22708354.3054                   22708355.1484
 -19703803.074 8 -15339005.828 7  21000642.836
 -20975190.56648 -16297518.96446  20681806.1024                   20681803.6724
 11  7 29  2 27  0.0000000  0  7G17G25G12G10G04G05G02
  -2563851.595 6  -1951152.253 6  24057769.273
 -10154063.920 7  -7898516.214 7  22829541.695
 -20646428.373 8 -16074736.180 7  20820543.633
 -18283428.57748 -14203442.67846  21122932.6094                   21122932.0704
 -10340257.81947  -8006951.40544  22724056.1724                   22724056.4844
 -19767453.992 8 -15388603.910 7  20988530.633
 -20957864.83848 -16284018.39546  20685102.8834                   20685100.3134
 11  7 29  2 27 30.0000000  0  7G17G25G12G10G04G05G02
  -2495609.320 6  -1897976.432 6  24070755.367
 -10232657.612 7  -7959757.984 7  22814585.805
 -20665830.460 8 -16089854.681 7  20816851.813
 -18243126.09648 -14172038.12645  21130602.3444                   21130601.6684
 -10257710.05147  -7942628.48944  22739764.3984                   22739764.7894
 -19830626.136 8 -15437828.926 7  20976509.383
 -20940321.34748 -16270348.14146  20688441.2344                   20688438.5164
 11  7 29  2 28  0.0000000  0  7G17G25G12G10G04G05G02
  -2427188.720 6  -1844661.662 6  24083775.891
 -10310875.359 7  -8020706.817 7  22799701.414
 -20684666.395 8 -16104532.022 7  20813267.508
 -18202238.53148 -14140177.65446  21138382.6174                   21138382.0084
 -10175131.09647  -7878281.25945  22755479.1414                   22755479.7384
 -19893319.130 8 -15486680.583 7  20964578.789
 -20922562.89448 -16256510.38446  20691820.4774                   20691818.0514
 11  7 29  2 28 30.0000000  0  7G17G25G12G10G04G05G02
  -2358588.982 6  -1791207.317 6  24096829.961
 -10388714.036 7  -8081360.261 7  22784889.344
 -20702934.577 8 -16118766.961 7  20809790.891
 -18160767.05548 -14107862.18946  21146274.2424                   21146273.9614
 -10092521.56347  -7813910.20244  22771198.7664                   22771199.4454
 -19955530.066 8 -15535156.594 7  20952740.742
 -20904589.92048 -16242505.46646  20695240.8674                   20695237.9844
 11  7 29  2 29  0.0000000  0  7G17G25G12G10G04G05G02
  -2289808.540 6  -1737612.161 6  24109918.266
 -10466169.989 7  -8141715.484 7  22770150.000
 -20720633.230 8 -16132558.113 7  20806423.297
 -18118711.88548 -14075091.88846  21154276.9924                   21154276.8164
 -10009881.71647  -7749515.52744  22786925.0004                   22786924.9574
 -20017256.147 8 -15583254.815 7  20940994.547
 -20886402.63648 -16228333.55646  20698701.8444                   20698698.7034
 11  7 29  2 29 30.0000000  0  7G17G25G12G10G04G05G02
  -2220849.541 6  -1683877.905 6  24123040.563
 -10543242.478 7  -8201771.916 7  22755483.313
 -20737762.935 8 -16145905.925 7  20803163.336
 -18076076.57848 -14041869.53946  21162390.3364                   21162389.7584
  -9927214.65447  -7685099.65044  22802655.9924                   22802656.3444
 -20078496.981 8 -15630974.909 7  20929340.891
 -20868003.82448 -16213996.80946  20702202.9694                   20702199.7814
 11  7 29  2 30  0.0000000  0  7G17G25G12G10G04G05G02
  -2151710.764 7  -1630003.545 6  24136198.164
 -10619927.806 7  -8261526.663 7  22740890.945
 -20754321.819 8 -16158808.945 7  20800012.227
 -18032861.85948 -14008195.70045  21170613.5164                   21170613.2934
  -9844520.35147  -7620662.53844  22818392.2504                   22818393.0514
 -20139249.501 8 -15678314.497 7  20917780.195
 -20849393.21948 -16199495.03246  20705744.2894                   20705741.4654
 11  7 29  2 30 30.0000000  0  7G17G25G12G10G04G05G02
  -2082391.768 7  -1575988.729 6  24149388.977
 -10696222.986 7  -8320977.412 7  22726372.063
 -20770308.386 8 -16171266.000 7  20796970.039
 -17989069.02248 -13974071.38145  21178947.4774                   21178946.7424
  -9761799.64047  -7556204.85944  22834133.2894                   22834133.4304
 -20199511.272 8 -15725271.685 7  20906312.414
 -20830571.40448 -16184828.68246  20709326.0784                   20709323.3484
 11  7 29  2 31  0.0000000  0  7G17G25G12G10G04G05G02
  -2012893.979 6  -1521834.619 6  24162614.039
 -10772127.479 7  -8380123.741 7  22711927.945
 -20785723.808 8 -16183278.010 7  20794036.633
 -17944701.41148 -13939499.18646  21187390.1884                   21187389.6994
  -9679055.75447  -7491729.13144  22849879.0704                   22849880.0904
 -20259282.148 7 -15771846.370 7  20894938.422
 -20811541.72048 -16170000.36446  20712947.4924                   20712944.3594
 11  7 29  2 31 30.0000000  0  7G17G25G12G10G04G05G02
  -1943216.366 7  -1467540.361 6  24175872.570
 -10847637.664 7  -8438962.813 7  22697558.438
 -20800566.494 8 -16194843.724 7  20791212.445
 -17899759.72148 -13904479.65346  21195942.3444                   21195941.8054
  -9596288.78347  -7427235.39244  22865629.5704                   22865629.4774
 -20318558.860 8 -15818035.987 7  20883658.430
 -20792304.05548 -16155009.98346  20716607.9224                   20716604.9304
 11  7 29  2 32  0.0000000  0  7G17G25G12G10G04G05G02
  -1873358.148 7  -1413105.400 6  24189166.016
 -10922750.185 7  -8497492.029 7  22683265.523
 -20814834.355 8 -16205961.535 7  20788496.953
 -17854244.94848 -13869013.55146  21204603.6724                   21204603.1484
  -9513498.93547  -7362723.78344  22881383.0944                   22881383.5204
 -20377338.956 7 -15863838.639 7  20872472.977
 -20772858.64248 -16139857.69046  20720308.5554                   20720305.3714
 11  7 29  2 32 30.0000000  0  7G17G25G12G10G04G05G02
  -1803320.415 7  -1358530.517 6  24202494.313
 -10997463.649 7  -8555710.298 7  22669047.844
 -20828527.997 8 -16216631.896 7  20785891.492
 -17808160.05748 -13833103.21146  21213373.1334                   21213372.8014
  -9430688.67747  -7298196.30044  22897142.0864                   22897142.2734
 -20435621.648 7 -15909253.698 7  20861382.141
 -20753207.71648 -16124545.29146  20724047.8204                   20724045.0394
 11  7 29  2 33  0.0000000  0  7G17G25G12G10G04G05G02
  -1733103.027 7  -1303815.667 6  24215855.969
 -11071775.436 7  -8613615.574 7  22654906.914
 -20841646.415 8 -16226854.038 7  20783394.844
 -17761506.49548 -13796749.74846  21222251.2274                   21222250.6524
  -9347859.12447  -7233653.80344  22912904.1804                   22912904.6954
 -20493404.734 8 -15954279.449 7  20850386.523
 -20733352.19548 -16109073.46546  20727826.2894                   20727823.6254
 11  7 29  2 33 30.0000000  0  7G17G25G12G10G04G05G02
  -1662706.225 7  -1248960.986 6  24229252.344
 -11145683.448 7  -8671206.226 7  22640842.445
 -20854189.169 8 -16236627.601 7  20781008.055
 -17714286.64747 -13759955.02345  21231236.3134                   21231236.0784
  -9265011.76447  -7169097.39444  22928668.1094                   22928669.4454
 -20550686.753 8 -15998914.758 7  20839485.500
 -20713293.68648 -16093443.46946  20731643.1024                   20731640.3054
 11  7 29  2 34  0.0000000  0  7G17G25G12G10G04G05G02
  -1592129.457 7  -1193966.109 6  24242682.336
 -11219184.763 7  -8728479.979 7  22626855.766
 -20866155.353 8 -16245951.904 7  20778731.086
 -17666501.81648 -13722720.06145  21240329.7114                   21240329.2774
  -9182147.25447  -7104527.64144  22944437.8674                   22944438.1254
 -20607465.280 8 -16043157.727 7  20828681.500
 -20693032.67348 -16077655.67846  20735498.6644                   20735495.7774
 11  7 29  2 34 30.0000000  0  8G17G25G12G10G29G04G05G02
  -1521372.582 7  -1138830.861 6  24256147.406
 -11292276.605 7  -8785434.670 7  22612947.133
 -20877543.780 8 -16254825.992 7  20776564.156
 -17618153.44547 -13685045.97745  21249530.0474                   21249529.6994
   -187313.74116                  24656650.969
  -9099266.56347  -7039945.23744  22960208.3134                   22960209.6524
 -20663738.834 8 -16087007.211 7  20817972.898
 -20672569.78948 -16061710.57846  20739392.8364                   20739389.9694
 11  7 29  2 35  0.0000000  0  8G17G25G12G10G29G04G05G02
  -1450446.473 6  -1083563.752 6  24269643.961
 -11364967.185 7  -8842076.685 7  22599114.352
 -20888364.093 8 -16263257.404 7  20774505.070
 -17569254.22947 -13646942.66846  21258835.2974                   21258834.5984
   -267432.287 6   -195067.05715  24641404.336
  -9016381.30747  -6975359.33144  22975981.8054                   22975982.3754
 -20719515.328 8 -16130469.384 7  20807358.680
 -20651916.84148 -16045617.38346  20743322.7424                   20743320.1254
 11  7 29  2 35 30.0000000  0  8G17G25G12G10G29G04G05G02
  -1379330.534 6  -1028148.711 6  24283176.930
 -11437233.808 7  -8898388.345 7  22585362.469
 -20898596.042 8 -16271230.351 7  20772557.852
 -17519785.87547 -13608395.87745  21268248.5634                   21268248.4224
   -347610.116 6   -257543.268 5  24626146.742
  -8933472.45047  -6910755.02244  22991758.9454                   22991758.6454
 -20774773.055 8 -16173527.317 7  20796843.742
 -20631054.65348 -16029361.12946  20747293.1804                   20747290.0514
 11  7 29  2 36  0.0000000  0  8G17G25G12G10G29G04G05G02
  -1308033.557 6   -972592.617 6  24296743.813
 -11509082.948 7  -8954374.690 7  22571690.148
 -20908247.762 8 -16278751.162 7  20770720.953
 -17469759.00847 -13569413.89145  21277768.4454                   21277767.9144
   -427855.491 6   -320072.125 5  24610876.727
  -8850550.22346  -6846140.25244  23007538.4534                   23007538.2304
 -20829519.194 8 -16216186.623 7  20786425.680
 -20609993.25048 -16012949.65246  20751300.5164                   20751298.0124
 11  7 29  2 36 30.0000000  0  8G17G25G12G10G29G04G05G02
  -1236557.353 6   -916896.884 6  24310345.680
 -11580514.010 7  -9010035.251 7  22558097.273
 -20917320.358 8 -16285820.719 7  20768994.711
 -17419177.71147 -13529999.87745  21287393.3834                   21287393.4264
   -508169.713 6   -382654.656 6  24595593.930
  -8767617.43347  -6781517.28644  23023320.1414                   23023319.9804
 -20883753.821 8 -16258447.337 7  20776105.047
 -20588735.49548 -15996385.17646  20755346.1724                   20755343.0354
 11  7 29  2 37  0.0000000  0  8G17G25G12G10G29G04G05G02
  -1164901.513 6   -861061.181 6  24323981.164
 -11651523.782 7  -9065367.528 7  22544584.195
 -20925812.435 8 -16292437.920 7  20767378.836
 -17368043.14247 -13490154.74845  21297124.1254                   21297123.8524
   -588551.732 5   -445289.959 6  24580297.250
  -8684674.35047  -6716886.24944  23039102.5164                   23039103.3874
 -20937474.376 8 -16300307.489 7  20765882.625
 -20567281.63448 -15979667.89346  20759428.2504                   20759425.8594
 11  7 29  2 37 30.0000000  0  8G17G25G12G10G29G04G05G02
  -1093066.023 6   -805085.431 5  24337650.773
 -11722110.001 7  -9120369.760 7  22531152.367
 -20933723.797 8 -16298602.625 7  20765873.602
 -17316357.13847 -13449879.92745  21306959.8364                   21306959.3754
   -669001.214 6   -507977.831 5  24564988.063
  -8601722.26847  -6652248.30844  23054888.0394                   23054889.4884
 -20990679.255 8 -16341765.801 7  20755757.477
 -20545632.94448 -15962798.78146  20763547.9534                   20763545.1564
 11  7 29  2 38  0.0000000  0  8G17G25G12G10G29G04G05G02
  -1021051.057 6   -748969.855 5  24351355.039
 -11792270.457 7  -9175040.211 7  22517801.102
 -20941054.059 8 -16304314.522 7  20764478.492
 -17264121.87248 -13409177.12045  21316900.1644                   21316899.7114
   -749517.421 6   -570717.754 5  24549666.641
  -8518762.34147  -6587604.23944  23070676.9454                   23070675.6454
 -21043367.149 8 -16382821.276 7  20745732.016
 -20523790.75648 -15945778.89446  20767704.7814                   20767701.8444
 11  7 29  2 38 30.0000000  0  8G17G25G12G10G29G04G05G02
   -948857.151 6   -692714.809 5  24365093.078
 -11862003.274 7  -9229377.446 7  22504531.336
 -20947803.022 8 -16309573.458 7  20763194.250
 -17211339.74447 -13368048.18146  21326943.6024                   21326943.2974
   -830100.354 6   -633509.679 6  24534332.625
  -8435796.32947  -6522955.31444  23086462.7034                   23086463.4144
 -21095536.498 8 -16423472.689 7  20735804.195
 -20501756.32348 -15928609.19546  20771897.6414                   20771895.0394
 11  7 29  2 39  0.0000000  0  8G17G25G12G10G29G04G05G02
   -876482.947 6   -636319.342 5  24378865.313
 -11931304.090 7  -9283378.043 7  22491343.742
 -20953968.684 8 -16314377.867 7  20762020.758
 -17158011.00247 -13326493.32346  21337092.2034                   21337091.7704
   -910747.370 6   -696351.522 6  24518986.289
  -8352823.32246  -6458301.02844  23102251.6724                   23102253.6604
 -21147183.677 8 -16463717.218 7  20725976.273
 -20479528.70248 -15911288.96546  20776127.2894                   20776124.5204
 11  7 29  2 39 30.0000000  0  8G17G25G12G10G29G04G05G02
   -803930.402 6   -579784.873 5  24392671.391
 -12000173.213 7  -9337042.254 7  22478238.500
 -20959553.179 8 -16318729.422 7  20760957.930
 -17104140.43347 -13284516.26645  21347343.6414                   21347343.0084
   -991460.927 7   -759245.224 6  24503626.836
  -8269846.97747  -6393644.19144  23118043.0084                   23118043.4144
 -21198309.942 8 -16503555.848 8  20716246.953
 -20457111.69348 -15893821.16946  20780393.3134                   20780390.4614
 11  7 29  2 40  0.0000000  0  8G17G25G12G10G29G04G05G02
   -731197.896 6   -523110.251 5  24406511.969
 -12068606.441 7  -9390366.800 7  22465215.375
 -20964553.958 8 -16322626.135 7  20760006.336
 -17049728.33747 -13242117.23045  21357697.7424                   21357697.0594
  -1072238.399 7   -822188.714 6  24488255.523
  -8186866.34947  -6328983.93244  23133833.7274                   23133833.4104
 -21248911.857 8 -16542985.889 8  20706617.758
 -20434504.39648 -15876205.09246  20784695.3134                   20784692.4064
 11  7 29  2 40 30.0000000  0  8G17G25G12G10G29G04G05G02
   -658286.160 6   -466295.890 5  24420387.117
 -12136601.959 7  -9443350.266 7  22452276.461
 -20968971.136 8 -16326068.095 7  20759166.063
 -16994777.09847 -13199298.09745  21368154.7344                   21368154.0514
  -1153079.462 6   -885181.723 6  24472871.664
  -8103883.09746  -6264321.61744  23149623.3674                   23149625.0864
 -21298988.218 8 -16582006.402 7  20697088.742
 -20411708.60948 -15858442.14346  20789033.0164                   20789030.2624
 11  7 29  2 41  0.0000000  0  8G17G25G12G10G29G04G05G02
   -585196.717 6   -409343.083 5  24434295.539
 -12204158.576 7  -9495991.739 7  22439421.141
 -20972805.730 8 -16329056.097 7  20758436.133
 -16939290.07647 -13156061.45945  21378713.5084                   21378712.7624
  -1233984.628 7   -948224.688 6  24457475.859
  -8020899.44046  -6199659.09344  23165416.4224                   23165415.8634
 -21348538.535 8 -16620617.018 8  20687659.570
 -20388726.25048 -15840533.83046  20793406.5634                   20793403.6844
 11  7 29  2 41 30.0000000  0  8G17G25G12G10G29G04G05G02
   -511927.149 6   -352249.911 6  24448238.234
 -12271272.034 7  -9548287.897 7  22426649.586
 -20976055.303 8 -16331588.231 7  20757817.734
 -16883267.32647 -13112407.37845  21389374.1954                   21389373.4224
  -1314951.668 6  -1011315.864 6  24442068.133
  -7937914.36347  -6134995.39844  23181207.2424                   23181207.3674
 -21397559.564 8 -16658815.196 8  20678330.531
 -20365556.54548 -15822479.54146  20797815.4144                   20797812.8134
 11  7 29  2 42  0.0000000  0  8G17G25G12G10G29G04G05G02
   -438479.347 6   -295017.869 5  24462214.641
 -12337941.835 7  -9600238.346 7  22413963.398
 -20978721.549 8 -16333665.828 7  20757310.711
 -16826713.05447 -13068339.13245  21400136.1804                   21400135.8524
  -1395981.319 6  -1074455.799 6  24426648.984
  -7854930.73247  -6070332.77944  23196997.3914                   23196998.6374
 -21446051.250 8 -16696600.901 8  20669103.445
 -20342202.23048 -15804281.38046  20802259.8444                   20802256.9494
 11  7 29  2 42 30.0000000  0  8G17G25G12G10G29G04G05G02
   -364851.720 6   -237645.686 5  24476225.789
 -12404163.832 7  -9651839.855 7  22401361.266
 -20980802.191 8 -16335287.106 7  20756914.477
 -16769627.44147 -13023856.84545  21410999.4774                   21410998.7234
  -1477071.426 6  -1137642.833 6  24411218.227
  -7771947.72146  -6005670.73943  23212789.2734                   23212790.2344
 -21494010.386 8 -16733971.630 7  20659977.078
 -20318662.29348 -15785938.58146  20806739.3364                   20806736.6644
 11  7 29  2 43  0.0000000  0  8G17G25G12G10G29G04G05G02
   -291046.427 7   -180135.072 6  24490270.305
 -12469937.655 8  -9703092.138 7  22388845.242
 -20982298.910 8 -16336453.385 7  20756629.609
 -16712014.56047 -12978963.70245  21421962.3754                   21421962.1604
  -1558223.122 6  -1200877.852 6  24395775.320
  -7688968.15246  -5941011.33343  23228579.9774                   23228580.1374
 -21541437.308 8 -16770927.645 7  20650952.070
 -20294939.99948 -15767453.67746  20811253.5704                   20811250.4964
 11  7 29  2 43 30.0000000  0  8G17G25G12G10G29G04G05G02
   -217063.135 7   -122485.779 6  24504348.680
 -12535260.650 7  -9753993.117 7  22376414.313
 -20983211.196 8 -16337164.257 7  20756456.305
 -16653876.20947 -12933661.10945  21433025.7194                   21433025.5744
  -1639435.307 6  -1264159.981 6  24380320.609
  -7605992.57347  -5876355.04244  23244370.9534                   23244369.4654
 -21588330.234 8 -16807467.564 8  20642028.297
 -20271035.82548 -15748827.04346  20815801.9924                   20815799.6604
 11  7 29  2 44  0.0000000  0  7G25G12G10G29G04G05G02
 -12600127.778 7  -9804538.890 7  22364070.836
 -20983535.792 8 -16337417.196 7  20756394.492
 -16595211.84547 -12887948.61745  21444189.3134                   21444188.7854
  -1720704.609 6  -1327486.620 6  24364855.867
  -7523019.26147  -5811700.51943  23260158.8444                   23260158.8404
 -21634684.973 8 -16843588.111 8  20633207.422
 -20246947.80448 -15730057.15046  20820385.8364                   20820383.2774
 11  7 29  2 44 30.0000000  0  7G25G12G10G29G04G05G02
 -12664539.443 7  -9854729.743 7  22351813.148
 -20983275.566 8 -16337214.419 7  20756443.852
 -16536026.60847 -12841830.26145  21455451.5554                   21455451.4844
  -1802032.967 6  -1390859.261 6  24349379.945
  -7440051.77747  -5747050.54344  23275946.5474                   23275947.0004
 -21680502.647 8 -16879290.173 8  20624488.625
 -20222679.58748 -15711146.83446  20825004.1334                   20825001.3834
 11  7 29  2 45  0.0000000  0  7G25G12G10G29G04G05G02
 -12728494.869 7  -9904565.102 7  22339643.156
 -20982431.494 8 -16336556.697 7  20756604.352
 -16476323.96147 -12795308.73445  21466813.0554                   21466812.6954
  -1883421.073 6  -1454278.470 5  24333891.453
  -7357092.58746  -5682407.03443  23291733.9614                   23291733.5164
 -21725783.151 8 -16914573.657 7  20615871.797
 -20198233.79448 -15692098.14046  20829655.8594                   20829653.2774
 11  7 29  2 45 30.0000000  0  7G25G12G10G29G04G05G02
 -12791990.191 7  -9954041.940 7  22327560.266
 -20981001.855 8 -16335442.688 7  20756876.367
 -16416104.36147 -12748384.37645  21478272.1484                   21478271.3984
  -1964866.598 6  -1517742.404 6  24318393.375
  -7274140.76047  -5617769.26744  23307519.7194                   23307519.3484
 -21770523.739 8 -16949436.428 8  20607357.844
 -20173610.08748 -15672910.81446  20834341.4844                   20834338.7194
 11  7 29  2 46  0.0000000  0  7G25G12G10G29G04G05G02
 -12855022.736 7 -10003158.178 7  22315565.563
 -20978985.846 7 -16333871.767 7  20757260.141
 -16355369.75947 -12701058.72045  21489829.2584                   21489829.4264
  -2046368.321 6  -1581250.151 6  24302883.961
  -7191197.03547  -5553137.80244  23323303.2424                   23323303.4454
 -21814722.749 8 -16983877.200 8  20598947.023
 -20148808.50148 -15653584.87946  20839061.2194                   20839058.3444
 11  7 29  2 46 30.0000000  0  7G25G12G10G29G04G05G02
 -12917590.537 7 -10051912.273 7  22303659.180
 -20976383.985 8 -16331844.336 7  20757755.109
 -16294122.76247 -12653333.81245  21501484.7814                   21501484.5394
  -2127925.652 6  -1644801.220 5  24287363.820
  -7108262.29347  -5488513.35644  23339084.5704                   23339085.1804
 -21858378.546 8 -17017894.685 8  20590640.031
 -20123830.21948 -15634121.23746  20843814.5864                   20843811.9654
 11  7 29  2 47  0.0000000  0  7G25G12G10G29G04G05G02
 -12979692.483 7 -10100303.367 7  22291841.578
 -20973197.260 8 -16329361.166 7  20758361.727
 -16232366.37547 -12605211.97945  21513236.2894                   21513235.8954
  -2209539.243 6  -1708396.129 5  24271832.961
  -7025338.65247  -5423897.53444  23354864.3134                   23354865.1214
 -21901491.134 8 -17051488.885 8  20582435.555
 -20098677.20448 -15614521.44746  20848600.8834                   20848598.1914
 11  7 29  2 47 30.0000000  0  7G25G12G10G29G04G05G02
 -13041325.687 7 -10148329.215 7  22280112.875
 -20969425.124 7 -16326421.838 7  20759079.203
 -16170102.48747 -12556694.68045  21525084.9924                   21525084.7734
  -2291207.515 6  -1772033.628 5  24256291.375
  -6942426.24747  -5359290.50244  23370642.6334                   23370643.0704
 -21944058.335 8 -17084658.114 8  20574335.266
 -20073349.56448 -15594785.56946  20853420.2034                   20853417.7504
 11  7 29  2 48  0.0000000  0  7G25G12G10G29G04G05G02
 -13102487.889 7 -10195988.043 7  22268474.570
 -20965066.974 8 -16323025.868 7  20759908.977
 -16107333.30047 -12507783.63345  21537029.1724                   21537029.2504
  -2372929.238 6  -1835712.812 6  24240741.172
  -6859525.92947  -5294692.87544  23386417.7584                   23386418.2974
 -21986079.122 8 -17117401.561 8  20566339.195
 -20047848.67248 -15574914.68946  20858272.7734                   20858270.4774
 11  7 29  2 48 30.0000000  0  7G25G12G10G29G04G05G02
 -13163176.400 8 -10243277.766 7  22256925.492
 -20960122.410 8 -16319172.957 7  20760849.844
 -16044060.60647 -12458480.25345  21549069.7814                   21549069.6294
  -2454703.483 6  -1899432.906 6  24225179.820
  -6776637.78746  -5230104.77044  23402190.2344                   23402191.1994
 -22027551.640 8 -17149717.787 8  20558447.125
 -20022174.81448 -15554909.01746  20863158.5084                   20863156.1454
 11  7 29  2 49  0.0000000  0  7G25G12G10G29G04G05G02
 -13223391.585 8 -10290198.665 7  22245467.227
 -20954593.825 8 -16314864.961 7  20761901.828
 -15980289.42747 -12408788.45845  21561204.9454                   21561205.1414
  -2536531.994 6  -1963195.274 6  24209608.203
  -6693765.17046  -5165528.69744  23417960.6254                   23417961.5554
 -22068476.995 8 -17181607.650 8  20550659.156
 -19996331.37948 -15534771.19646  20868076.0474                   20868073.6134
 11  7 29  2 49 30.0000000  0  7G25G12G10G29G04G05G02
 -13283128.162 8 -10336746.621 7  22234099.586
 -20948478.684 8 -16310099.910 7  20763065.609
 -15916018.89947 -12358707.52645  21573435.3674                   21573435.0784
  -2618410.716 6  -2026996.741 6  24194027.234
  -6610906.02946  -5100963.19244  23433728.8284                   23433729.7624
 -22108850.737 8 -17213067.680 8  20542976.609
 -19970316.00548 -15514499.40746  20873026.8914                   20873024.0784
 11  7 29  2 50  0.0000000  0  7G25G12G10G29G04G05G02
 -13342386.641 8 -10382922.037 7  22222822.938
 -20941779.519 8 -16304879.773 7  20764340.180
 -15851254.00347 -12308241.38345  21585759.9144                   21585759.4964
  -2700341.749 6  -2090838.961 6  24178436.398
  -6528063.68946  -5036410.76844  23449492.8594                   23449494.1604
 -22148674.384 8 -17244099.076 8  20535398.125
 -19944132.51348 -15494096.61746  20878009.5164                   20878006.8834
 11  7 29  2 50 30.0000000  0  7G25G12G10G29G04G05G02
 -13401163.940 8 -10428722.502 7  22211638.023
 -20934495.163 8 -16299203.652 7  20765726.523
 -15785996.03747 -12257391.03645  21598177.9144                   21598177.3134
  -2782322.741 7  -2154720.130 6  24162835.406
  -6445237.87046  -4971871.18344  23465253.0704                   23465255.1954
 -22187945.712 8 -17274700.086 8  20527925.125
 -19917780.41948 -15473562.44846  20883023.7034                   20883021.0864
 11  7 29  2 51  0.0000000  0  7G25G12G10G29G04G05G02
 -13459456.611 8 -10474145.343 7  22200545.297
 -20926624.671 8 -16293070.796 7  20767223.977
 -15720246.05647 -12206157.28845  21610690.0474                   21610689.3204
  -2864351.673 7  -2218638.658 6  24147226.203
  -6362428.20246  -4907344.22144  23481012.6804                   23481013.0784
 -22226662.500 8 -17304868.985 8  20520557.453
 -19891259.53548 -15452896.74946  20888070.6884                   20888067.5554
 11  7 29  2 51 30.0000000  0  7G25G12G10G29G04G05G02
 -13517266.544 8 -10519192.016 7  22189544.391
 -20918171.935 8 -16286484.242 7  20768832.797
 -15654010.60347 -12154545.24745  21623293.7664                   21623293.4884
  -2946431.655 7  -2282596.940 6  24131607.117
  -6279639.21047  -4842833.33044  23496767.2664                   23496767.2424
 -22264827.086 8 -17334607.603 8  20513295.047
 -19864574.82248 -15432103.40146  20893148.6564                   20893145.8484
 11  7 29  2 52  0.0000000  0  7G25G12G10G29G04G05G02
 -13574586.422 8 -10563856.824 7  22178636.750
 -20909132.232 8 -16279440.327 8  20770552.789
 -15587286.68047 -12102552.60945  21635991.1094                   21635990.6604
  -3028556.692 6  -2346590.329 6  24115979.328
  -6196866.51647  -4778335.13444  23512517.3914                   23512518.7544
 -22302433.395 8 -17363911.203 8  20506138.750
 -19837721.47648 -15411178.64746  20898258.2114                   20898255.3484
 11  7 29  2 52 30.0000000  0  7G25G12G10G29G04G05G02
 -13631419.013 8 -10608141.926 7  22167822.047
 -20899510.305 8 -16271942.720 7  20772383.672
 -15520081.69347 -12050185.08345  21648779.8594                   21648779.3094
  -3110730.554 6  -2410621.789 6  24100341.469
  -6114115.80646  -4713854.11843  23528264.9454                   23528265.8324
 -22339485.204 8 -17392782.725 8  20499088.164
 -19810705.44148 -15390127.13246  20903399.1884                   20903396.6094
 11  7 29  2 53  0.0000000  0  7G25G12G10G29G04G05G02
 -13687758.092 8 -10652042.475 7  22157100.578
 -20889302.184 8 -16263988.343 7  20774326.531
 -15452393.96847 -11997441.42045  21661660.6174                   21661659.7464
  -3192948.399 6  -2474687.514 6  24084695.438
  -6031383.72947  -4649387.57743  23544008.2504                   23544009.1334
 -22375977.208 8 -17421218.041 8  20492143.930
 -19783523.34848 -15368946.22746  20908571.8984                   20908569.3204
 11  7 29  2 53 30.0000000  0  7G25G12G10G29G04G05G02
 -13743605.884 8 -10695560.198 7  22146473.359
 -20878512.236 8 -16255580.598 7  20776379.719
 -15384229.97947 -11944326.64245  21674631.3914                   21674631.3204
  -3275213.576 6  -2538790.145 6  24069041.422
  -5948675.09147  -4584939.27344  23559747.2504                   23559747.1454
 -22411912.440 8 -17449219.507 8  20485305.516
 -19756180.59548 -15347640.13346  20913774.9694                   20913772.2664
 11  7 29  2 54  0.0000000  0  7G25G12G10G29G04G05G02
 -13798958.548 8 -10738692.122 7  22135939.891
 -20867139.217 8 -16246718.503 7  20778543.789
 -15315590.38147 -11890841.24245  21687693.4384                   21687693.0514
  -3357523.065 6  -2602927.321 6  24053377.688
  -5865988.72747  -4520508.31843  23575481.6724                   23575481.8874
 -22447288.219 8 -17476785.036 8  20478573.672
 -19728676.03348 -15326207.95646  20919008.8444                   20919005.8714
 11  7 29  2 54 30.0000000  0  7G25G12G10G29G04G05G02
 -13853815.409 8 -10781437.694 7  22125501.141
 -20855184.497 8 -16237403.143 7  20780818.773
 -15246478.96747 -11836988.22345  21700844.9534                   21700844.5944
  -3439877.479 6  -2667099.509 6  24037707.023
  -5783326.71146  -4456096.38344  23591212.0784                   23591212.2814
 -22482104.410 8 -17503914.530 8  20471948.492
 -19701011.83748 -15304651.41246  20924273.1564                   20924270.3054
 11  7 29  2 55  0.0000000  0  7G25G12G10G29G04G05G02
 -13908171.015 8 -10823792.682 7  22115157.555
 -20842645.051 7 -16227632.153 7  20783204.922
 -15176894.85447 -11782766.85045  21714086.0864                   21714085.9304
  -3522272.143 6  -2731303.061 6  24022027.516
  -5700686.28647  -4391701.25343  23606937.9694                   23606938.5784
 -22516357.399 8 -17530605.165 8  20465430.563
 -19673185.25048 -15282968.33546  20929568.3054                   20929565.5664
 11  7 29  2 55 30.0000000  0  7G25G12G10G29G04G05G02
 -13962026.606 8 -10865758.058 7  22104909.188
 -20829524.477 8 -16217408.336 7  20785701.750
 -15106843.72547 -11728181.57345  21727416.6174                   21727415.9494
  -3604709.727 6  -2795540.086 6  24006340.422
  -5618071.39547  -4327326.01243  23622659.2424                   23622659.2734
 -22550048.892 8 -17556858.269 8  20459018.953
 -19645200.44448 -15261161.96346  20934893.8134                   20934890.9344
 11  7 29  2 56  0.0000000  0  7G25G12G10G29G04G05G02
 -14015379.547 8 -10907331.758 7  22094756.289
 -20815822.329 8 -16206731.337 7  20788309.188
 -15036327.06647 -11673233.54245  21740835.3054                   21740835.4454
  -3687188.362 6  -2859809.113 6  23990644.617
  -5535482.05547  -4262970.63843  23638375.0314                   23638375.1954
 -22583177.205 8 -17582672.534 8  20452715.219
 -19617057.61548 -15239232.47746  20940249.0234                   20940246.1804
 11  7 29  2 56 30.0000000  0  7G25G12G10G29G04G05G02
 -14068227.851 8 -10948512.224 7  22084700.094
 -20801539.005 8 -16195601.485 7  20791027.555
 -14965347.76147 -11617925.01545  21754342.0164                   21754341.6644
  -3769707.177 6  -2924109.440 6  23974941.992
  -5452918.69847  -4198635.56243  23654086.3834                   23654086.1684
 -22615741.501 8 -17608047.310 8  20446518.359
 -19588757.21748 -15217180.22746  20945634.8594                   20945632.0554
 11  7 29  2 57  0.0000000  0  7G25G12G10G29G04G05G02
 -14120569.227 8 -10989297.675 7  22074739.578
 -20786674.321 8 -16184018.615 7  20793855.531
 -14893907.92447 -11562257.63245  21767937.1024                   21767936.6644
  -3852264.704 6  -2988439.958 6  23959231.656
  -5370381.75847  -4134321.08443  23669792.5864                   23669792.6644
 -22647740.848 8 -17632981.861 8  20440428.852
 -19560299.74748 -15195005.57846  20951050.0234                   20951047.0514
 11  7 29  2 57 30.0000000  0  7G25G12G10G29G04G05G02
 -14172401.265 7 -11029686.246 7  22064876.023
 -20771228.546 8 -16171982.950 7  20796795.117
 -14822009.46147 -11506232.85745  21781618.9384                   21781618.3204
  -3934859.275 6  -3052799.324 6  23943514.125
  -5287871.19946  -4070027.17043  23685493.5554                   23685494.6024
 -22679173.150 8 -17657474.555 8  20434447.336
 -19531685.67648 -15172708.88746  20956495.1254                   20956492.2624
 11  7 29  2 58  0.0000000  0  7G25G12G10G29G04G05G02
 -14223725.712 8 -11069679.291 7  22055109.469
 -20755205.568 8 -16159497.513 7  20799843.914
 -14749658.24247 -11449855.28745  21795386.6024                   21795386.1994
  -4017493.644 6  -3117189.713 6  23927789.766
  -5205391.42447  -4005757.26343  23701189.3674                   23701189.7624
 -22710041.770 8 -17681528.024 8  20428573.180
 -19502919.46448 -15150293.65346  20961968.8284                   20961966.1374
 11  7 29  2 58 30.0000000  0  7G25G12G10G29G04G05G02
 -14274536.751 7 -11109272.285 7  22045440.453
 -20738602.321 8 -16146559.928 7  20803003.531
 -14676853.39747 -11393124.25345  21809241.2734                   21809240.8554
  -4100162.923 7  -3181607.306 6  23912057.625
  -5122939.04947  -3941508.67143  23716879.7114                   23716880.1994
 -22740341.691 8 -17705138.347 8  20422807.609
 -19473997.72448 -15127757.23546  20967472.7664                   20967470.0784
 11  7 29  2 59  0.0000000  0  7G25G12G10G29G04G05G02
 -14324835.749 8 -11148466.283 7  22035869.016
 -20721422.396 8 -16133172.972 7  20806272.953
 -14603600.51547 -11336044.09245  21823180.5784                   21823180.5164
  -4182869.446 6  -3246053.913 6  23896319.250
  -5040517.94547  -3877284.43743  23732563.4224                   23732563.7424
 -22770075.142 8 -17728307.271 8  20417149.258
 -19444924.80048 -15105103.02546  20973005.2504                   20973002.4844
 11  7 29  2 59 30.0000000  0  7G25G12G10G29G04G05G02
 -14374618.171 8 -11187257.765 7  22026395.703
 -20703663.251 8 -16119334.675 7  20809652.055
 -14529899.23147 -11278614.52445  21837205.9454                   21837205.1334
  -4265609.168 7  -3310526.407 6  23880574.633
  -4958126.20346  -3813083.13843  23748242.0004                   23748242.9344
 -22799238.887 8 -17751032.266 8  20411599.625
 -19415698.38748 -15082329.20946  20978566.8834                   20978563.8094
 11  7 29  3  0  0.0000000  0  7G25G12G10G29G04G05G02
 -14423883.627 8 -11225646.404 7  22017020.711
 -20685327.098 8 -16105046.763 7  20813141.703
 -14455753.65047 -11220838.74645  21851314.9224                   21851314.8364
  -4348382.355 7  -3375024.985 6  23864823.172
  -4875765.51346  -3748906.02743  23763914.7584                   23763916.1054
 -22827833.632 8 -17773313.882 8  20406158.648
 -19386320.80748 -15059437.59746  20984156.7664                   20984154.3134
 11  7 29  3  0 30.0000000  0  7G25G12G10G29G04G05G02
 -14472629.747 8 -11263630.377 7  22007744.477
 -20666414.065 8 -16090309.331 7  20816740.352
 -14381165.90247 -11162718.41445  21865508.4304                   21865508.1214
  -4431187.294 7  -3439548.276 6  23849066.430
  -4793435.99846  -3684753.19443  23779581.6564                   23779582.6024
 -22855857.911 8 -17795150.984 8  20400825.398
 -19356792.38348 -15036428.46246  20989776.3134                   20989773.7034
 11  7 29  3  1  0.0000000  0  7G25G12G10G29G04G05G02
 -14520857.680 8 -11301210.557 7  21998567.188
 -20646927.423 8 -16075124.938 7  20820448.711
 -14306141.68647 -11104257.98245  21879784.9774                   21879784.3874
  -4514026.140 7  -3504097.972 6  23833302.477
  -4711141.18846  -3620627.38943  23795241.0864                   23795242.4734
 -22883314.170 8 -17816545.468 8  20395600.813
 -19327116.89448 -15013304.73546  20995423.2814                   20995420.4774
 11  7 29  3  1 30.0000000  0  7G25G12G10G29G04G05G02
 -14568562.337 8 -11338382.999 7  21989489.578
 -20626864.314 8 -16059491.350 7  20824266.875
 -14230680.11347 -11045456.75445  21894145.1414                   21894144.5394
  -4596894.596 7  -3568670.749 6  23817532.742
  -4628878.27846  -3556526.46843  23810896.1724                   23810897.1024
 -22910198.645 8 -17837494.408 8  20390484.906
 -19297291.49048 -14990064.18446  21001098.7344                   21001095.7894
 11  7 29  3  2  0.0000000  0  7G25G12G10G29G04G05G02
 -14615743.438 8 -11375147.477 7  21980510.773
 -20606227.528 8 -16043410.743 7  20828193.820
 -14154785.26247 -10986317.91045  21908587.6094                   21908587.2384
  -4679792.709 6  -3633266.609 6  23801758.109
  -4546649.35946  -3492452.00743  23826544.0164                   23826544.5594
 -22936511.158 8 -17857997.661 8  20385477.602
 -19267318.66448 -14966708.74346  21006802.5314                   21006799.5664
 11  7 29  3  2 30.0000000  0  7G25G12G10G29G04G05G02
 -14662399.526 8 -11411502.848 7  21971632.281
 -20585017.488 8 -16026883.441 7  20832229.695
 -14078459.83147 -10926843.54645  21923110.9144                   21923111.1884
  -4762719.903 6  -3697885.134 6  23785976.398
  -4464455.21046  -3428404.66443  23842185.5554                   23842185.3404
 -22962252.020 8 -17878055.472 8  20380579.313
 -19237199.19748 -14943239.03146  21012533.7504                   21012530.9574
 11  7 29  3  3  0.0000000  0  7G25G12G10G29G04G05G02
 -14708526.856 8 -11447446.197 7  21962854.773
 -20563233.331 8 -16009908.765 7  20836375.156
 -14001704.42647 -10867034.14345  21937717.9454                   21937717.3444
  -4845673.078 6  -3762523.898 6  23770191.125
  -4382294.33347  -3364383.21044  23857819.9924                   23857820.5434
 -22987418.492 8 -17897665.691 8  20375790.586
 -19206931.52348 -14919653.85946  21018293.6094                   21018291.1134
 11  7 29  3  3 30.0000000  0  7G25G12G10G29G04G05G02
 -14754127.434 8 -11482979.097 7  21954177.078
 -20540879.504 8 -15992490.198 7  20840629.094
 -13924525.55947 -10806894.76045  21952404.0474                   21952403.8754
  -4928654.890 6  -3827185.012 6  23754400.531
  -4300170.98447  -3300391.00444  23873447.4304                   23873448.1454
 -23012013.858 8 -17916830.894 8  20371109.953
 -19176520.33648 -14895956.85346  21024080.9064                   21024077.9574
 11  7 29  3  4  0.0000000  0  7G25G12G10G29G04G05G02
 -14799197.291 8 -11518098.444 7  21945600.813
 -20517954.057 8 -15974626.226 7  20844991.445
 -13846923.39447 -10746425.55345  21967171.5554                   21967170.9804
  -5011661.813 7  -3891865.666 6  23738605.203
  -4218083.25647  -3236426.52444  23889068.3364                   23889068.6884
 -23036035.034 8 -17935548.673 8  20366538.742
 -19145964.03848 -14872146.76046  21029895.5164                   21029892.9024
 11  7 29  3  4 30.0000000  0  7G25G12G10G29G04G05G02
 -14843734.253 8 -11552802.542 7  21937125.500
 -20494457.351 8 -15956317.109 7  20849462.766
 -13768900.22547 -10685628.26845  21982018.8054                   21982018.0984
  -5094691.708 7  -3956564.229 6  23722804.688
  -4136031.21046  -3172489.88344  23904682.2274                   23904682.9494
 -23059481.164 8 -17953818.356 8  20362077.344
 -19115262.82448 -14848223.75846  21035737.9384                   21035735.1054
 11  7 29  3  5  0.0000000  0  7G25G12G10G29G04G05G02
 -14887739.120 8 -11587092.025 7  21928751.977
 -20470392.738 8 -15937565.462 7  20854042.102
 -13690461.26747 -10624506.99145  21996945.1644                   21996944.5594
  -5177746.081 7  -4021281.863 6  23707000.344
  -4054017.75746  -3108583.32343  23920288.8364                   23920290.0394
 -23082353.886 8 -17971641.224 8  20357724.508
 -19084419.94948 -14824190.37146  21041606.8364                   21041604.0664
 11  7 29  3  5 30.0000000  0  7G25G12G10G29G04G05G02
 -14931207.981 8 -11620963.835 7  21920479.711
 -20445758.727 8 -15918370.137 7  20858729.703
 -13611606.82447 -10563061.97945  22011950.5784                   22011950.5704
  -5260821.624 7  -4086015.992 6  23691191.828
  -3972041.19846  -3044705.49543  23935887.9924                   23935889.1994
 -23104650.464 8 -17989015.147 8  20353481.531
 -19053433.49248 -14800045.08746  21047503.6024                   21047500.6094
 11  7 29  3  6  0.0000000  0  7G25G12G10G29G04G05G02
 -14974141.275 8 -11654418.326 7  21912310.008
 -20420558.348 8 -15898733.484 7  20863525.461
 -13532341.25447 -10501296.60045  22027034.2664                   22027034.0634
  -5343919.327 7  -4150767.395 6  23675378.523
  -3890103.81346  -2980858.16843  23951480.7034                   23951480.6524
 -23126372.780 8 -18005941.578 8  20349348.242
 -19022306.33748 -14775790.18146  21053426.6254                   21053423.8594
 11  7 29  3  6 30.0000000  0  7G25G12G10G29G04G05G02
 -15016536.655 7 -11687453.663 7  21904242.273
 -20394791.162 8 -15878655.170 7  20868428.820
 -13452666.64147 -10439212.48245  22042195.8674                   22042195.5514
  -5427036.950 7  -4215534.330 6  23659561.922
  -3808205.59747  -2917041.39543  23967064.8284                   23967065.6524
 -23147519.280 8 -18022419.316 8  20345324.148
 -18991038.58748 -14751425.71046  21059376.9614                   21059374.0554
 11  7 29  3  7  0.0000000  0  7G25G12G10G29G04G05G02
 -15058393.837 8 -11720069.621 7  21896277.320
 -20368459.900 8 -15858137.308 7  20873439.547
 -13372587.13747 -10376812.86045  22057434.3444                   22057434.4384
  -5510174.853 7  -4280317.038 6  23643741.023
  -3726347.83346  -2853256.10643  23982642.3364                   23982642.0044
 -23168090.628 8 -18038448.878 8  20341409.422
 -18959631.87648 -14726952.94946  21065353.3674                   21065350.8524
 11  7 29  3  7 30.0000000  0  7G25G12G10G29G04G05G02
 -15099707.708 8 -11752262.228 7  21888415.664
 -20341561.845 8 -15837177.789 7  20878558.133
 -13292101.87047 -10314097.07245  22072750.6254                   22072750.0514
  -5593327.991 7  -4345111.640 6  23627917.477
  -3644527.68246  -2789500.12443  23998210.9844                   23998212.9304
 -23188083.295 8 -18054027.512 8  20337604.836
 -18928083.41148 -14702369.73846  21071356.8444                   21071354.0664
 11  7 29  3  8  0.0000000  0  7G25G12G10G29G04G05G02
 -15140482.549 8 -11784034.808 7  21880656.258
 -20314103.426 8 -15815781.632 7  20883782.945
 -13211218.97547 -10251071.45745  22088142.0004                   22088141.8284
  -5676500.963 7  -4409921.722 6  23612090.289
  -3562751.29246  -2725778.27143  24013773.2114                   24013773.9924
 -23207502.680 8 -18069159.429 8  20333909.313
 -18896399.63548 -14677681.09046  21077385.8594                   21077383.2774
 11  7 29  3  8 30.0000000  0  7G25G12G10G29G04G05G02
 -15180711.831 8 -11815382.274 7  21873000.539
 -20286081.144 8 -15793946.095 7  20889115.141
 -13129936.08347 -10187734.15545  22103609.4844                   22103609.3984
  -5759687.503 7  -4474742.341 6  23596260.016
  -3481014.08146  -2662086.94943  24029327.1564                   24029328.0394
 -23226343.329 8 -18083840.379 8  20330323.984
 -18864576.13648 -14652883.56246  21083441.8284                   21083439.2304
 11  7 29  3  9  0.0000000  0  7G25G12G10G29G04G05G02
 -15220397.932 8 -11846306.493 7  21865448.805
 -20257499.459 8 -15771674.659 7  20894554.531
 -13048260.08947 -10124090.53045  22119152.0864                   22119151.4304
  -5842890.281 7  -4539575.584 6  23580427.391
  -3399320.24246  -2598429.43643  24044873.8594                   24044875.2424
 -23244608.602 8 -18098072.979 8  20326848.156
 -18832617.48348 -14627980.72946  21089523.3754                   21089520.6804
 11  7 29  3  9 30.0000000  0  7G25G12G10G29G04G05G02
 -15259536.395 8 -11876803.980 7  21858001.055
 -20228356.447 8 -15748965.826 7  20900100.070
 -12966190.57447 -10060140.29345  22134769.0164                   22134769.2114
  -5926105.012 7  -4604418.156 6  23564591.234
  -3317667.38146  -2534803.78743  24060411.4614                   24060411.8874
 -23262295.448 8 -18111854.868 8  20323482.641
 -18800521.05348 -14602970.53146  21095631.3134                   21095628.6334
 11  7 29  3 10  0.0000000  0  7G25G12G10G29G04G05G02
 -15298128.314 8 -11906875.586 7  21850657.375
 -20198655.658 8 -15725822.367 7  20905752.039
 -12883732.78447  -9995887.49345  22150460.9534                   22150460.5274
  -6009332.854 6  -4669270.919 6  23548754.016
  -3236058.18446  -2471212.26643  24075940.6954                   24075942.5044
 -23279405.957 8 -18125187.669 8  20320226.438
 -18768290.19348 -14577855.58646  21101764.6954                   21101762.0314
 11  7 29  3 10 30.0000000  0  7G25G12G10G29G04G05G02
 -15336170.457 8 -11936518.795 7  21843418.023
 -20168396.449 8 -15702243.768 7  20911510.242
 -12800887.35747  -9931332.61445  22166225.5084                   22166225.2424
  -6092570.798 7  -4734131.552 6  23532914.297
  -3154491.23046  -2407653.62643  24091463.1884                   24091463.9494
 -23295938.047 8 -18138069.759 8  20317080.289
 -18735923.85348 -14552635.07146  21107923.7894                   21107920.8714
 11  7 29  3 11  0.0000000  0  7G25G12G10G29G04G05G02
 -15373663.035 8 -11965733.773 7  21836283.445
 -20137581.613 8 -15678232.209 7  20917373.820
 -12717659.00347  -9866479.33445  22182063.1954                   22182063.1054
  -6175819.059 6  -4799000.241 6  23517071.992
  -3072968.76546  -2344129.64143  24106975.1414                   24106976.6844
 -23311893.156 8 -18150502.257 8  20314044.133
 -18703423.95948 -14527310.48546  21114108.2894                   21114105.3244
 11  7 29  3 11 30.0000000  0  7G25G12G10G29G04G05G02
 -15410603.962 8 -11994518.890 7  21829253.961
 -20106211.167 8 -15653787.709 7  20923343.594
 -12634049.52447  -9801329.10345  22197974.4534                   22197973.6214
  -6259075.876 7  -4863875.593 6  23501228.914
  -2991490.09446  -2280639.75943  24122481.2504                   24122481.1954
 -23327270.356 8 -18162484.440 8  20311117.977
 -18670790.59848 -14501881.90146  21120318.3594                   21120315.2504
 11  7 29  3 12  0.0000000  0  7G25G12G10G29G04G05G02
 -15446994.265 8 -12022874.946 7  21822328.867
 -20074288.902 8 -15628913.220 7  20929418.086
 -12550063.88747  -9735885.74344  22213955.8444                   22213955.6334
  -6342342.076 7  -4928758.270 6  23485384.023
  -2910058.13446  -2217186.35543  24137977.1954                   24137978.0664
 -23342071.814 8 -18174017.992 8  20308301.227
 -18638026.68048 -14476351.59246  21126552.9384                   21126550.4024
 11  7 29  3 12 30.0000000  0  7G25G12G10G29G04G05G02
 -15482829.594 8 -12050798.548 7  21815509.570
 -20041812.623 8 -15603607.045 7  20935598.250
 -12465702.07347  -9670149.28245  22230009.3134                   22230008.3954
  -6425613.432 7  -4993644.971 6  23469538.359
  -2828670.17246  -2153767.17043  24153465.1024                   24153465.3284
 -23356294.335 8 -18185100.435 8  20305594.938
 -18605129.86148 -14450717.71346  21132813.0004                   21132810.1994
 11  7 29  3 13  0.0000000  0  7G25G12G10G29G04G05G02
 -15518110.748 8 -12078290.334 7  21808795.898
 -20008786.200 8 -15577872.168 7  20941882.813
 -12380968.79247  -9604123.34645  22246133.1954                   22246132.7504
  -6508890.558 7  -5058536.163 6  23453690.859
  -2747328.71447  -2090384.20243  24168943.9454                   24168944.2114
 -23369940.432 8 -18195733.723 8  20302998.047
 -18572102.42448 -14424982.05546  21139098.0004                   21139095.0434
 11  7 29  3 13 30.0000000  0  7G25G12G10G29G04G05G02
 -15552834.001 8 -12105347.394 7  21802188.078
 -19975208.095 8 -15551707.410 7  20948272.727
 -12295864.57247  -9537808.38945  22262328.3984                   22262327.7344
  -6592169.672 7  -5123428.915 6  23437843.328
  -2666031.61746  -2027035.83243  24184413.6094                   24184414.3524
 -23383006.921 8 -18205915.375 8  20300511.906
 -18538942.84548 -14399143.42446  21145407.8834                   21145405.3594
 11  7 29  3 14  0.0000000  0  7G25G12G10G29G04G05G02
 -15587002.791 8 -12131972.410 7  21795686.078
 -19941084.032 8 -15525117.230 7  20954766.422
 -12210396.81547  -9471210.14645  22278592.5164                   22278591.7384
  -6675454.211 7  -5188325.899 6  23421994.969
  -2584783.72646  -1963725.77243  24199874.5234                   24199875.7194
 -23395498.455 8 -18215649.014 8  20298134.625
 -18505656.30748 -14373205.86446  21151742.0944                   21151739.1954
 11  7 29  3 14 30.0000000  0  7G25G12G10G29G04G05G02
 -15620610.273 8 -12158160.036 7  21789290.711
 -19906410.119 8 -15498098.600 7  20961364.508
 -12124562.41047  -9404326.19745  22294926.0704                   22294925.8244
  -6758737.269 7  -5253221.714 6  23406146.445
  -2503579.97846  -1900450.13343  24215328.0554                   24215327.4384
 -23407409.413 8 -18224930.263 8  20295867.922
 -18472237.81448 -14347165.48646  21158101.8754                   21158098.7194
 11  7 29  3 15  0.0000000  0  7G25G12G10G29G04G05G02
 -15653658.422 8 -12183911.816 7  21783001.875
 -19871190.496 8 -15470654.739 7  20968066.648
 -12038367.19847  -9337161.10645  22311328.6254                   22311328.2074
  -6842020.545 7  -5318117.722 6  23390298.398
  -2422423.68146  -1837211.47343  24230770.7194                   24230771.7854
 -23418743.181 8 -18233761.760 8  20293711.234
 -18438691.05048 -14321025.15346  21164485.2424                   21164482.4614
 11  7 29  3 15 30.0000000  0  7G25G12G10G29G04G05G02
 -15686147.913 8 -12209228.283 7  21776819.180
 -19835428.329 8 -15442788.114 7  20974872.180
 -11951815.96247  -9269718.58645  22327798.6414                   22327798.1414
  -6925304.583 7  -5383014.308 6  23374449.672
  -2341317.27446  -1774011.70143  24246204.7114                   24246205.8794
 -23429501.383 8 -18242144.775 8  20291663.773
 -18405018.39148 -14294786.72246  21170893.0704                   21170890.2934
 11  7 29  3 16  0.0000000  0  7G25G12G10G29G04G05G02
 -15718074.098 8 -12234105.805 7  21770743.781
 -19799121.669 8 -15414497.208 7  20981780.750
 -11864907.93947  -9201998.05744  22344336.8674                   22344336.4064
  -7008584.375 7  -5447907.569 6  23358602.352
  -2260257.33846  -1710848.15043  24261630.1724                   24261631.6524
 -23439680.797 8 -18250076.790 8  20289726.969
 -18371216.80447 -14268447.82046  21177325.2584                   21177322.0234
 11  7 29  3 16 30.0000000  0  7G25G12G10G29G04G05G02
 -15749438.056 8 -12258545.229 7  21764775.516
 -19762273.557 8 -15385784.399 7  20988792.602
 -11777648.05147  -9134003.32145  22360941.6484                   22360941.0004
  -7091860.887 7  -5512798.289 6  23342754.945
  -2179246.31046  -1647722.72143  24277046.3984                   24277047.0434
 -23449283.527 8 -18257559.432 8  20287899.422
 -18337289.27448 -14242010.78646  21183781.1334                   21183778.8324
 11  7 29  3 17  0.0000000  0  7G25G12G10G29G04G05G02
 -15780237.889 8 -12282545.086 7  21758914.555
 -19724885.537 8 -15356650.879 7  20995907.695
 -11690038.30347  -9065735.98544  22377612.9844                   22377612.7624
  -7175132.014 7  -5577684.803 6  23326909.344
  -2098283.97946  -1584635.23343  24292452.8134                   24292453.9694
 -23458308.958 8 -18264592.236 8  20286182.055
 -18303235.44648 -14215475.33146  21190261.5084                   21190258.7304
 11  7 29  3 17 30.0000000  0  7G25G12G10G29G04G05G02
 -15810474.078 8 -12306105.732 7  21753160.750
 -19686959.908 8 -15327098.439 7  21003124.766
 -11602083.13947  -8997199.50344  22394350.3284                   22394350.3714
  -7258397.788 6  -5642567.171 6  23311063.617
  -2017371.95246  -1521586.94543  24307849.9064                   24307850.9534
 -23466758.672 8 -18271176.432 8  20284574.023
 -18269057.55248 -14188843.20546  21196765.2894                   21196762.2704
 11  7 29  3 18  0.0000000  0  7G25G12G10G29G04G05G02
 -15840144.299 8 -12329225.376 7  21747514.625
 -19648496.597 8 -15297127.027 7  21010443.766
 -11513783.93247  -8928394.94244  22411153.2424                   22411153.0944
  -7341655.394 6  -5707443.138 6  23295220.438
  -1936509.20446  -1458577.05243  24323237.0164                   24323238.0704
 -23474631.349 8 -18277310.982 8  20283075.914
 -18234754.67148 -14162113.69146  21203292.9694                   21203290.3204
 11  7 29  3 18 30.0000000  0  8G26G25G12G10G29G04G05G02
   -228160.31116                  24804691.727
 -15869247.305 8 -12351903.026 7  21741976.828
 -19609497.729 8 -15266738.296 7  21017865.422
 -11425143.41747  -8859324.41844  22428021.1414                   22428020.7664
  -7424903.214 7  -5772311.495 6  23279379.008
  -1855695.91546  -1395605.68243  24338615.5084                   24338616.4224
 -23481927.292 8 -18282996.144 8  20281687.609
 -18200326.98348 -14135286.92646  21209844.3364                   21209841.8484
 11  7 29  3 19  0.0000000  0  8G26G25G12G10G29G04G05G02
   -323033.70446   -214806.08352  24786636.3984                   24786639.4414
 -15897786.776 8 -12374141.566 7  21736545.516
 -19569968.654 8 -15235936.415 7  21025387.070
 -11336168.97947  -8789993.69744  22444952.5784                   22444951.8204
  -7508144.552 7  -5837174.803 6  23263538.086
  -1774936.92146  -1332676.64143  24353983.8594                   24353984.2504
 -23488651.369 8 -18288235.679 8  20280407.945
 -18165779.95648 -14108367.16846  21216418.4224                   21216416.0084
 11  7 29  3 19 30.0000000  0  8G26G25G12G10G29G04G05G02
   -418023.20046   -288823.74942  24768561.0394                   24768563.6054
 -15925754.267 8 -12395934.393 7  21731223.563
 -19529903.950 8 -15204717.168 7  21033011.156
 -11246856.14747  -8720399.30344  22461948.1484                   22461947.6094
  -7591370.506 7  -5902026.128 6  23247701.250
  -1694225.01746  -1269784.25243  24369342.9384                   24369343.4224
 -23494796.351 8 -18293023.971 8  20279238.406
 -18131106.61248 -14081348.98146  21223016.4384                   21223013.8404
 11  7 29  3 20  0.0000000  0  8G26G25G12G10G29G04G05G02
   -513129.51146   -362932.51742  24750463.2274                   24750464.3594
 -15953152.221 8 -12417283.431 7  21726009.930
 -19489308.349 8 -15173084.243 7  21040736.352
 -11157210.77647  -8650545.79444  22479006.8364                   22479006.7624
  -7674583.218 7  -5966867.128 6  23231866.320
  -1613564.01746  -1206931.51543  24384692.2974                   24384692.6484
 -23500365.888 8 -18297363.859 8  20278179.211
 -18096310.85348 -14054235.39646  21229638.1174                   21229635.4344
 11  7 29  3 20 30.0000000  0  8G26G25G12G10G29G04G05G02
   -608348.89645   -437129.26642  24732341.9844                   24732344.2194
 -15979979.410 8 -12438187.712 7  21720904.570
 -19448183.155 8 -15141038.649 7  21048562.047
 -11067235.68447  -8580435.31644  22496128.8834                   22496128.2194
  -7757780.809 7  -6031696.327 6  23216034.492
  -1532953.74246  -1144118.29042  24400031.4454                   24400032.0554
 -23505359.521 8 -18301255.000 8  20277228.578
 -18061392.67648 -14027026.43146  21236282.7814                   21236279.8054
 11  7 29  3 21  0.0000000  0  8G26G25G12G10G29G04G05G02
   -703680.97246   -511413.85843  24714202.3524                   24714203.8324
 -16006237.390 8 -12458648.456 7  21715907.992
 -19406532.110 8 -15108583.290 7  21056488.180
 -10976935.72147  -8510071.71944  22513311.9844                   22513311.7074
  -7840963.823 7  -6096514.200 6  23200204.961
  -1452396.77046  -1081346.65142  24415361.1644                   24415362.4024
 -23509780.205 8 -18304699.687 8  20276387.055
 -18026354.93448 -13999724.29546  21242950.1024                   21242947.1174
 11  7 29  3 21 30.0000000  0  8G26G25G12G10G29G04G05G02
   -799119.92746   -585781.80443  24696040.9144                   24696041.8834
 -16031922.382 8 -12478662.711 7  21711020.320
 -19364354.238 8 -15075717.422 7  21064514.203
 -10886311.05647  -8439455.10444  22530557.2344                   22530556.7974
  -7924128.458 7  -6161317.745 6  23184379.539
  -1371890.44846  -1018614.46242  24430680.1484                   24430682.3554
 -23513625.769 8 -18307696.221 8  20275655.891
 -17991195.49148 -13972327.33646  21249640.8984                   21249637.9574
 11  7 29  3 22  0.0000000  0  8G26G25G12G10G29G04G05G02
   -894664.88246   -660232.33743  24677858.9064                   24677859.7814
 -16057035.854 8 -12498231.632 7  21706241.445
 -19321653.239 8 -15042443.932 7  21072639.945
 -10795366.73347  -8368589.38544  22547863.0234                   22547863.1054
  -8007275.380 7  -6226107.506 6  23168556.977
  -1291437.52946   -955923.94642  24445991.1564                   24445991.8834
 -23516898.500 8 -18310246.393 8  20275032.953
 -17955917.09948 -13944837.68846  21256353.9304                   21256351.1994
 11  7 29  3 22 30.0000000  0  8G26G25G12G10G29G04G05G02
   -990311.52146   -734762.11243  24659657.1724                   24659658.8754
 -16081575.416 8 -12517353.350 7  21701571.758
 -19278429.291 8 -15008762.939 7  21080865.359
 -10704104.13947  -8297475.70044  22565230.7424                   22565229.7624
  -8090401.492 7  -6290881.043 6  23152738.500
  -1211036.66646   -893273.99442  24461290.4694                   24461291.8014
 -23519597.095 8 -18312349.187 8  20274519.281
 -17920518.83048 -13917254.62246  21263090.0864                   21263087.3364
 11  7 29  3 23  0.0000000  0  8G26G25G12G10G29G04G05G02
  -1086058.00046   -809369.70143  24641438.4224                   24641439.0664
 -16105541.745 8 -12536028.393 7  21697011.383
 -19234685.591 8 -14974676.959 7  21089189.484
 -10612527.68747  -8226117.42044  22582656.7034                   22582656.3634
  -8173506.634 7  -6355638.236 6  23136924.305
  -1130689.45146   -830665.77642  24476579.9774                   24476580.9774
 -23521723.750 8 -18314006.309 8  20274114.617
 -17885002.45748 -13889579.53946  21269848.6174                   21269845.8554
 11  7 29  3 23 30.0000000  0  8G26G25G12G10G29G04G05G02
  -1181899.79146   -884051.54443  24623200.0394                   24623200.7504
 -16128932.732 8 -12554255.116 7  21692559.563
 -19190422.496 8 -14940186.255 7  21097612.820
 -10520638.57446  -8154515.52544  22600143.0554                   22600142.2464
  -8256587.941 7  -6420376.842 6  23121114.305
  -1050394.58246   -768098.39543  24491859.8054                   24491860.1684
 -23523277.282 8 -18315216.832 8  20273818.820
 -17849367.02948 -13861811.69246  21276630.1254                   21276626.8554
 11  7 29  3 24  0.0000000  0  8G26G25G12G10G29G04G05G02
  -1277836.25746   -958807.17943  24604944.0084                   24604944.7504
 -16151749.908 8 -12572034.717 7  21688217.883
 -19145643.893 8 -14905293.852 7  21106134.055
 -10428441.93947  -8082674.00244  22617687.1334                   22617686.7584
  -8339646.430 7  -6485097.692 6  23105308.844
   -970154.70946   -705573.79743  24507129.2274                   24507129.0634
 -23524260.953 8 -18315983.315 8  20273631.969
 -17813615.50948 -13833953.37246  21283433.5234                   21283430.6884
 11  7 29  3 24 30.0000000  0  8G26G25G12G10G29G04G05G02
  -1373862.28346  -1033632.56043  24586670.0864                   24586671.6174
 -16173990.425 8 -12589364.976 7  21683985.617
 -19100349.576 8 -14869999.585 7  21114752.469
 -10335938.65547  -8010593.53744  22635289.9694                   22635289.6174
  -8422678.554 7  -6549797.993 6  23089507.523
   -889967.70346   -643090.44943  24522388.2664                   24522388.1254
 -23524672.493 8 -18316303.981 8  20273553.539
 -17777746.03848 -13806003.13146  21290258.5234                   21290256.0044
 11  7 29  3 25  0.0000000  0  8G26G25G12G10G29G04G05G02
  -1469975.75246  -1108526.17143  24568380.9144                   24568381.3714
 -16195654.778 8 -12606246.270 7  21679863.063
 -19054542.239 8 -14834305.572 7  21123469.891
 -10243132.40346  -7938277.00144  22652950.6094                   22652949.8524
  -8505683.509 7  -6614477.103 6  23073712.445
   -809835.14546   -580649.54443  24537636.2274                   24537637.7504
 -23524513.795 8 -18316180.303 8  20273583.578
 -17741760.17948 -13777962.18746  21297106.5394                   21297103.6214
 11  7 29  3 25 30.0000000  0  8G26G25G12G10G29G04G05G02
  -1566172.38546  -1183484.48743  24550075.1724                   24550075.5394
 -16216740.876 8 -12622676.985 7  21675850.375
 -19008222.765 8 -14798212.484 7  21132284.500
 -10150024.92247  -7865725.72244  22670668.6094                   22670667.4884
  -8588658.485 7  -6679132.866 6  23057923.055
   -729755.84646   -518250.09843  24552875.1024                   24552875.9534
 -23523783.927 8 -18315611.558 8  20273722.539
 -17705656.86948 -13749829.73446  21303977.1414                   21303974.3874
 11  7 29  3 26  0.0000000  0  8G26G25G12G10G29G04G05G02
  -1662451.58646  -1258507.16043  24531753.5084                   24531754.1524
 -16237250.502 8 -12638658.505 7  21671947.508
 -18961394.701 8 -14761723.089 7  21141195.023
 -10056621.37047  -7792943.73544  22688442.3444                   22688441.7854
  -8671604.223 7  -6743765.860 6  23042138.938
   -649732.14646   -455894.00043  24568103.7114                   24568104.5394
 -23522485.857 8 -18314600.050 8  20273969.469
 -17669439.46248 -13721608.37646  21310869.2734                   21310866.3164
 11  7 29  3 26 30.0000000  0  8G26G25G12G10G29G04G05G02
  -1758807.31446  -1333589.50143  24513417.6334                   24513418.5354
 -16257180.537 8 -12654188.384 7  21668154.953
 -18914057.773 8 -14724837.179 7  21150203.227
  -9962921.98547  -7719931.25344  22706272.9304                   22706272.3054
  -8754517.111 7  -6808373.249 6  23026361.008
   -569762.02246   -393579.68043  24583320.7584                   24583321.9024
 -23520617.685 8 -18313144.320 8  20274325.086
 -17633105.66848 -13693296.33346  21317782.7734                   21317780.3674
 11  7 29  3 27  0.0000000  0  8G26G25G12G10G29G04G05G02
  -1855239.08546  -1408731.05543  24495068.5084                   24495067.7464
 -16276532.815 8 -12669268.065 7  21664472.734
 -18866215.838 8 -14687557.753 7  21159307.344
  -9868931.97047  -7646692.29344  22724158.4144                   22724158.0084
  -8837397.769 7  -6872955.527 6  23010589.109
   -489847.66646   -331308.71643  24598528.5704                   24598529.1884
 -23518182.385 8 -18311246.662 8  20274788.297
 -17596658.07048 -13664895.61546  21324718.6484                   21324716.0124
 11  7 29  3 27 30.0000000  0  8G26G25G12G10G29G04G05G02
  -1951742.43146  -1483928.44743  24476703.3524                   24476704.1134
 -16295305.645 8 -12683896.230 7  21660900.000
 -18817870.264 8 -14649885.880 7  21168507.094
  -9774653.30147  -7573228.40344  22742098.9384                   22742098.5634
  -8920243.278 7  -6937510.410 6  22994824.445
   -409988.31546   -269080.73943  24613724.8054                   24613726.2154
 -23515179.692 8 -18308906.884 8  20275359.445
 -17560096.34148 -13636405.95746  21331676.1954                   21331673.4804
 11  7 29  3 28  0.0000000  0  8G26G25G12G10G29G04G05G02
  -2048315.90046  -1559180.45342  24458325.7424                   24458326.3914
 -16313499.694 8 -12698073.399 7  21657437.922
 -18769023.577 8 -14611823.534 7  21177802.109
  -9680089.58047  -7499542.37644  22760094.0394                   22760093.5634
  -9003053.560 7  -7002037.829 6  22979066.266
   -330185.36646   -206896.60243  24628911.6884                   24628911.7034
 -23511611.375 8 -18306126.363 8  20276038.852
 -17523421.70748 -13607828.33346  21338655.1954                   21338652.7154
 11  7 29  3 28 30.0000000  0  8G26G25G12G10G29G04G05G02
  -2144952.85546  -1634481.91343  24439936.5234                   24439937.3834
 -16331111.469 8 -12711796.853 7  21654086.313
 -18719674.960 8 -14573370.059 7  21187192.797
  -9585240.44647  -7425633.98244  22778143.1954                   22778142.5514
  -9085823.562 7  -7066533.855 6  22963315.688
   -250436.07446   -144754.28643  24644086.8524                   24644087.8484
 -23507475.253 8 -18302903.391 8  20276825.828
 -17486631.86648 -13579160.92246  21345656.5554                   21345653.3794
 11  7 29  3 29  0.0000000  0  8G26G25G12G10G29G04G05G02
  -2241654.23346  -1709833.57643  24421534.1884                   24421536.0044
 -16348144.469 8 -12725069.313 7  21650845.148
 -18669830.131 8 -14534529.933 7  21196678.070
  -9490113.09247  -7351508.80644  22796245.5944                   22796245.1884
  -9168556.041 7  -7131000.638 6  22947571.609
   -170744.27546    -82656.78543  24659251.8834                   24659252.9924
 -23502775.409 8 -18299241.164 8  20277720.055
 -17449731.03148 -13550407.01146  21352678.0004                   21352675.4104
 11  7 29  3 29 30.0000000  0  8G26G25G12G10G29G04G05G02
  -2338414.40546  -1785231.09543  24403121.7194                   24403122.6764
 -16364595.676 8 -12737888.421 7  21647714.391
 -18619488.639 7 -14495302.802 7  21206257.758
  -9394707.67247  -7277166.92744  22814400.5634                   22814400.1844
  -9251246.447 7  -7195434.606 6  22931836.531
    -91107.72846    -20602.37142  24674406.5704                   24674407.4804
 -23497510.527 8 -18295138.643 8  20278721.758
 -17412717.07848 -13521564.96346  21359721.5474                   21359718.7274
 11  7 29  3 30  0.0000000  0  7G26G25G12G10G29G05G02
  -2435234.43546  -1860675.18943  24384697.5474                   24384698.5274
 -16380468.785 8 -12750257.065 7  21644693.961
 -18568656.608 8 -14455693.431 7  21215930.719
  -9299031.29547  -7202613.90544  22832606.5944                   22832606.5984
  -9333897.602 7  -7259838.010 6  22916108.383
 -23491685.346 8 -18290599.530 8  20279830.594
 -17375594.52648 -13492638.29046  21366785.6484                   21366783.4304
 11  7 29  3 30 30.0000000  0  7G26G25G12G10G29G05G02
  -2532104.48646  -1936158.30443  24366263.3594                   24366264.0354
 -16395757.057 8 -12762169.990 7  21641784.813
 -18517329.633 8 -14415698.387 7  21225698.070
  -9203080.61346  -7127847.15244  22850865.6094                   22850865.7624
  -9416501.561 7  -7324204.621 6  22900388.953
 -23485294.282 8 -18285619.466 8  20281046.703
 -17338357.46847 -13463622.38446  21373871.5704                   21373869.1804
 11  7 29  3 31  0.0000000  0  7G26G25G12G10G29G05G02
  -2629025.80446  -2011681.35343  24347820.2274                   24347821.1484
 -16410464.561 8 -12773630.370 7  21638985.992
 -18465514.082 8 -14375322.643 7  21235558.141
  -9106862.56247  -7052872.05144  22869174.7034                   22869175.2274
  -9499061.117 7  -7388536.670 6  22884678.602
 -23478342.604 8 -18280202.563 8  20282369.383
 -17301010.74748 -13434521.03146  21380978.3754                   21380976.0004
 11  7 29  3 31 30.0000000  0  7G26G25G12G10G29G05G02
  -2725993.34746  -2087240.43243  24329368.1024                   24329368.8134
 -16424589.016 8 -12784636.421 7  21636298.375
 -18413209.987 8 -14334566.211 7  21245511.211
  -9010378.15947  -6977689.42344  22887535.7504                   22887535.0554
  -9581572.502 7  -7452831.167 6  22868977.016
 -23470829.135 8 -18274347.902 8  20283799.305
 -17263552.62448 -13405332.87046  21388106.6254                   21388103.9304
 11  7 29  3 32  0.0000000  0  7G26G25G12G10G29G05G02
  -2823004.30146  -2162833.28443  24310907.1564                   24310908.2734
 -16438130.670 8 -12795188.368 7  21633721.445
 -18360420.222 8 -14293431.337 7  21255556.836
  -8913630.64146  -6902301.75244  22905946.2894                   22905945.9264
  -9664034.482 7  -7517087.131 6  22853285.633
 -23462755.210 8 -18268056.529 8  20285335.477
 -17225984.02848 -13376058.63546  21395255.5394                   21395253.1134
 11  7 29  3 32 30.0000000  0  7G26G25G12G10G29G05G02
  -2920056.27446  -2238458.17543  24292438.4694                   24292439.9534
 -16451089.734 8 -12805286.302 7  21631255.547
 -18307147.232 8 -14251919.930 7  21265694.281
  -8816623.35147  -6826711.67844  22924406.7894                   22924405.9734
  -9746446.459 7  -7581304.146 6  22837602.648
 -23454122.411 8 -18261329.663 8  20286978.031
 -17188305.92348 -13346699.06246  21402425.5704                   21402422.8164
 11  7 29  3 33  0.0000000  0  7G26G25G12G10G29G05G02
  -3017145.72446  -2314112.20943  24273963.5784                   24273964.3164
 -16463466.086 8 -12814930.188 7  21628900.141
 -18253393.140 8 -14210033.629 7  21275923.711
  -8719359.08447  -6750921.35344  22942915.8054                   22942914.2974
  -9828806.243 7  -7645480.438 6  22821929.898
 -23444931.695 8 -18254168.061 8  20288727.203
 -17150518.97748 -13317254.67646  21409615.9384                   21409613.3554
 11  7 29  3 33 30.0000000  0  7G26G25G12G10G29G05G02
  -3114270.61446  -2389793.90243  24255481.3444                   24255481.8204
 -16475260.270 8 -12824120.442 7  21626655.813
 -18199160.913 8 -14167774.759 7  21286243.461
  -8621841.57647  -6674933.65344  22961471.4534                   22961471.5744
  -9911113.378 7  -7709615.728 6  22806267.094
 -23435185.321 8 -18246573.473 8  20290582.141
 -17112624.33948 -13287726.37946  21416827.1644                   21416824.6954
 11  7 29  3 34  0.0000000  0  7G26G25G12G10G29G05G02
  -3211424.79946  -2465498.37843  24236993.3914                   24236993.9884
 -16486469.598 8 -12832854.954 7  21624522.875
 -18144450.188 8 -14125143.035 7  21296654.594
  -8524071.13047  -6598748.92544  22980077.3284                   22980077.0394
  -9993363.597 7  -7773706.677 7  22790614.891
 -23424880.758 8 -18238543.931 8  20292542.930
 -17074619.65448 -13258112.33346  21424059.4694                   21424056.5274
 11  7 29  3 34 30.0000000  0  7G26G25G12G10G29G05G02
  -3308608.21146  -2541225.68143  24218499.2584                   24218500.6054
 -16497096.812 8 -12841135.872 7  21622500.477
 -18089266.125 8 -14082142.473 7  21307155.820
  -8426053.63947  -6522371.66244  22998727.6484                   22998728.4024
 -10075558.004 7  -7837754.142 7  22774974.234
 -23414022.502 8 -18230082.939 8  20294609.367
 -17036508.04548 -13228414.95946  21431311.4774                   21431309.1174
 11  7 29  3 35  0.0000000  0  7G26G25G12G10G29G05G02
  -3405815.20746  -2616971.31543  24200002.0474                   24200002.3204
 -16507139.430 8 -12848961.253 7  21620589.313
 -18033608.244 8 -14038772.699 7  21317746.930
  -8327789.67047  -6445802.37244  23017428.1484                   23017428.1174
 -10157692.696 7  -7901755.109 7  22759344.500
 -23402608.775 8 -18221189.117 8  20296781.086
 -16998287.63948 -13198632.81546  21438584.9454                   21438582.1724
 11  7 29  3 35 30.0000000  0  7G26G25G12G10G29G05G02
  -3503044.57545  -2692734.35843  24181499.7814                   24181500.5204
 -16516599.495 8 -12856332.715 7  21618788.648
 -17977481.141 7 -13995037.303 7  21328427.703
  -8229283.91447  -6369044.61744  23036172.1334                   23036173.0864
 -10239767.900 7  -7965709.730 7  22743725.984
 -23390642.889 8 -18211865.034 8  20299058.414
 -16959960.99848 -13168767.89246  21445878.0004                   21445875.1134
 11  7 29  3 36  0.0000000  0  7G26G25G12G10G29G05G02
  -3600292.17346  -2768511.64143  24162993.8984                   24162994.7234
 -16525476.060 8 -12863249.501 7  21617099.758
 -17920886.283 7 -13950937.420 7  21339197.633
  -8130538.27747  -6292099.99244  23054963.6884                   23054963.1804
 -10321781.088 7  -8029616.033 7  22728119.094
 -23378125.219 8 -18202110.996 8  20301440.203
 -16921527.57548 -13138819.76946  21453191.5944                   21453189.0044
 11  7 29  3 36 30.0000000  0  7G26G25G12G10G29G05G02
  -3697553.63646  -2844299.73943  24144485.2504                   24144486.3484
 -16533767.985 8 -12869710.718 7  21615521.727
 -17863824.689 7 -13906473.848 7  21350056.047
  -8031554.74847  -6214969.95644  23073798.4384                   23073799.1804
 -10403729.840 7  -8093472.121 6  22712524.914
 -23365055.622 8 -18191926.882 8  20303927.203
 -16882986.65648 -13108787.87446  21460525.3524                   21460523.0004
 11  7 29  3 37  0.0000000  0  7G26G25G12G10G29G05G02
  -3794826.72246  -2920096.89743  24125975.2814                   24125975.3634
 -16541476.314 8 -12875717.192 7  21614055.148
 -17806299.425 7 -13861648.965 7  21361002.125
  -7932337.09847  -6137657.54444  23092679.8444                   23092679.9534
 -10485612.899 7  -8157277.011 7  22696942.938
 -23351436.221 8 -18181314.346 8  20306518.727
 -16844339.57148 -13078673.26046  21467879.9224                   21467877.4924
 11  7 29  3 37 30.0000000  0  7G26G25G12G10G29G05G02
  -3892109.34846  -2995901.48943  24107463.3594                   24107463.6334
 -16548602.059 8 -12881269.706 7  21612698.664
 -17748313.918 7 -13816465.460 7  21372036.641
  -7832889.19746  -6060165.70743  23111603.8834                   23111605.1054
 -10567429.747 7  -8221030.296 6  22681373.328
 -23337269.269 8 -18170275.154 8  20309214.883
 -16805587.61648 -13048476.93046  21475254.4694                   21475251.5864
 11  7 29  3 38  0.0000000  0  7G26G25G12G10G29G05G02
  -3989396.73946  -3071709.81743  24088949.9064                   24088950.0664
 -16555144.017 8 -12886367.319 7  21611454.086
 -17689869.432 7 -13770924.303 7  21383158.438
  -7733212.51447  -5982495.62044  23130572.2504                   23130572.1804
 -10649177.456 7  -8284729.715 6  22665817.578
 -23322554.707 8 -18158809.244 8  20312014.773
 -16766729.96848 -13018198.23946  21482648.8204                   21482646.3324
 11  7 29  3 38 30.0000000  0  7G26G25G12G10G29G05G02
  -4086685.58346  -3147519.27543  24070436.1884                   24070436.2344
 -16561102.304 8 -12891010.130 7  21610320.516
 -17630968.281 7 -13725027.306 7  21394366.719
  -7633309.74546  -5904649.32544  23149582.5704                   23149582.9654
 -10730854.542 7  -8348374.072 6  22650274.719
 -23307293.507 8 -18146917.384 8  20314919.023
 -16727767.00048 -12987837.48646  21490063.0864                   21490060.3134
 11  7 29  3 39  0.0000000  0  7G26G25G12G10G29G05G02
  -4183973.46446  -3223327.97643  24051922.8204                   24051924.0434
 -16566477.973 8 -12895198.952 7  21609297.602
 -17571613.660 8 -13678776.962 7  21405661.539
  -7533184.97347  -5826630.02043  23168635.9064                   23168635.8554
 -10812459.984 7  -8411962.619 6  22634746.063
 -23291488.000 8 -18134601.389 8  20317926.602
 -16688699.86748 -12957395.56546  21497497.1094                   21497494.4694
 11  7 29  3 39 30.0000000  0  7G26G25G12G10G29G05G02
  -4281256.46846  -3299132.91043  24033411.0164                   24033411.0474
 -16571270.273 8 -12898933.204 7  21608385.547
 -17511806.949 8 -13632174.337 7  21417042.813
  -7432840.03347  -5748439.19944  23187731.0634                   23187730.7704
 -10893991.185 7  -8475493.313 6  22619230.531
 -23275138.425 8 -18121861.440 8  20321037.789
 -16649527.93748 -12926871.97446  21504951.2734                   21504948.8794
 11  7 29  3 40  0.0000000  0  7G26G25G12G10G29G05G02
  -4378530.93946  -3374931.18643  24014899.2504                   24014899.9924
 -16575479.155 8 -12902212.851 7  21607584.344
 -17451550.408 8 -13585221.191 7  21428509.102
  -7332277.45047  -5670078.77243  23206868.0634                   23206867.7034
 -10975446.387 7  -8538964.776 6  22603730.227
 -23258245.978 8 -18108698.475 8  20324251.977
 -16610251.52648 -12896266.98446  21512425.5704                   21512422.9384
 11  7 29  3 40 30.0000000  0  7G26G25G12G10G29G05G02
  -4475794.94646  -3450721.29043  23996390.7894                   23996391.4964
 -16579106.297 8 -12905039.189 7  21606894.320
 -17390847.535 8 -13537920.261 7  21440060.461
  -7231501.73447  -5591552.26843  23226044.4534                   23226044.3284
 -11056825.030 7  -8602376.602 6  22588244.531
 -23240813.528 8 -18095114.736 8  20327569.461
 -16570872.26148 -12865581.83946  21519918.8914                   21519916.4224
 11  7 29  3 41  0.0000000  0  7G26G25G12G10G29G05G02
  -4573043.23146  -3526499.16143  23977885.6954                   23977885.6994
 -16582149.858 8 -12907410.787 7  21606315.352
 -17329699.441 8 -13490272.392 7  21451696.430
  -7130513.63047  -5512860.26844  23245263.3754                   23245262.2734
 -11138123.249 7  -8665725.790 7  22572773.883
 -23222839.687 8 -18081109.134 8  20330989.945
 -16531388.44948 -12834815.24246  21527432.8984                   21527430.1684
 11  7 29  3 41 30.0000000  0  7G26G25G12G10G29G05G02
  -4670273.00546  -3602262.57743  23959383.2894                   23959383.6024
 -16584610.889 8 -12909328.470 7  21605846.969
 -17268109.079 8 -13442279.915 7  21463416.914
  -7029316.66446  -5434005.45244  23264519.3834                   23264519.2274
 -11219340.202 7  -8729011.663 7  22557318.867
 -23204327.250 8 -18066683.835 8  20334512.891
 -16491801.14948 -12803967.98946  21534965.6484                   21534962.9224
 11  7 29  3 42  0.0000000  0  7G26G25G12G10G29G05G02
  -4767482.11446  -3678009.91043  23940885.1254                   23940885.2774
 -16586490.617 8 -12910793.198 7  21605489.086
 -17206079.758 7 -13393945.379 7  21475220.719
  -6927914.57647  -5354990.87743  23283815.9224                   23283815.0744
 -11300475.215 7  -8792233.687 7  22541879.180
 -23185278.182 8 -18051840.383 8  20338137.539
 -16452111.66148 -12773041.12046  21542518.6564                   21542515.7734
 11  7 29  3 42 30.0000000  0  7G26G25G12G10G29G05G02
  -4864666.31846  -3753737.81643  23922391.3984                   23922391.8204
 -16587788.736 8 -12911804.719 7  21605241.969
 -17143613.087 8 -13345270.052 7  21487107.414
  -6826309.46847  -5275818.05044  23303150.8054                   23303150.4454
 -11381525.594 7  -8855389.790 7  22526455.813
 -23165693.357 8 -18036579.472 8  20341864.688
 -16412319.59348 -12742034.30746  21550090.5474                   21550087.7894
 11  7 29  3 43  0.0000000  0  7G26G25G12G10G29G05G02
  -4961821.66546  -3829443.21743  23903903.1254                   23903903.0234
 -16588504.874 8 -12912362.750 7  21605105.719
 -17080711.068 8 -13296255.508 7  21499077.594
  -6724503.69847  -5196488.89444  23322523.3914                   23322522.8134
 -11462488.772 7  -8918477.934 7  22511048.414
 -23145573.555 8 -18020901.688 8  20345693.297
 -16372424.48748 -12710947.21445  21557682.7734                   21557679.5554
 11  7 29  3 43 30.0000000  0  7G26G25G12G10G29G05G02
  -5058945.11047  -3905123.77943  23885421.1174                   23885421.6484
 -16588639.512 8 -12912467.656 7  21605080.289
 -17017376.384 7 -13246903.803 7  21511129.523
  -6622500.00046  -5117005.50644  23341934.6174                   23341934.2344
 -11543363.505 7  -8981497.172 7  22495658.516
 -23124919.748 8 -18004807.798 8  20349623.445
 -16332426.90148 -12679780.26346  21565294.0084                   21565291.0274
 11  7 29  3 44  0.0000000  0  7G26G25G12G10G29G05G02
  -5156033.62146  -3980777.13443  23866946.1884                   23866946.7034
 -16588193.590 8 -12912120.184 7  21605165.086
 -16953612.051 8 -13197217.310 7  21523263.695
  -6520301.57746  -5037370.41744  23361381.2974                   23361382.0554
 -11624148.221 7  -9044446.315 7  22480286.102
 -23103734.311 8 -17988299.652 8  20353654.875
 -16292327.58348 -12648534.03746  21572924.6254                   21572921.8914
 11  7 29  3 44 30.0000000  0  7G26G25G12G10G29G05G02
  -5253083.83146  -4056400.60243  23848477.4224                   23848478.7624
 -16587167.331 8 -12911320.491 7  21605360.180
 -16889420.214 8 -13147197.703 7  21535478.773
  -6417911.15846  -4957585.70644  23380866.5864                   23380866.2344
 -11704841.181 7  -9107324.027 7  22464931.156
 -23082018.498 8 -17971378.215 8  20357787.195
 -16252126.50448 -12617208.51846  21580574.5944                   21580572.0084
 11  7 29  3 45  0.0000000  0  7G26G25G12G10G29G05G02
  -5350091.93246  -4131991.27343  23830017.4454                   23830018.6884
 -16585561.091 8 -12910068.869 7  21605665.766
 -16824803.467 8 -13096846.996 7  21547774.992
  -6315331.59347  -4877653.56043  23400386.3914                   23400386.5704
 -11785440.208 7  -9170128.560 7  22449593.477
 -23059773.827 8 -17954044.688 8  20362020.180
 -16211823.94648 -12585803.92446  21588243.8984                   21588241.5784
 11  7 29  3 45 30.0000000  0  7G26G25G12G10G29G05G02
  -5447054.56146  -4207546.51143  23811565.7034                   23811566.9304
 -16583375.221 8 -12908365.573 7  21606081.922
 -16759764.190 8 -13046167.029 7  21560151.750
  -6212565.26346  -4797575.97844  23419941.7194                   23419942.4844
 -11865943.435 7  -9232858.424 7  22434274.031
 -23037001.366 8 -17936299.903 8  20366353.617
 -16171419.85848 -12554320.20946  21595932.4384                   21595929.6254
 11  7 29  3 46  0.0000000  0  7G26G25G12G10G29G05G02
  -5543969.67447  -4283064.71243  23793123.5944                   23793124.6454
 -16580611.495 8 -12906212.011 7  21606608.055
 -16694306.459 8 -12995161.011 7  21572607.820
  -6109616.27646  -4717356.03544  23439532.9694                   23439533.3164
 -11946350.199 7  -9295513.104 7  22418973.164
 -23013704.497 8 -17918146.479 8  20370787.219
 -16130916.06948 -12522758.80746  21603640.0394                   21603637.3134
 11  7 29  3 46 30.0000000  0  7G26G25G12G10G29G05G02
  -5640832.26346  -4358541.96944  23774690.9064                   23774692.0554
 -16577269.116 8 -12903607.552 7  21607243.883
 -16628431.555 7 -12943829.910 7  21585143.609
  -6006486.18446  -4636994.94443  23459157.1484                   23459157.9614
 -12026657.242 7  -9358090.070 7  22403691.273
 -22989882.796 8 -17899584.099 8  20375319.945
 -16090311.32648 -12491118.73146  21611366.7814                   21611364.0044
 11  7 29  3 47  0.0000000  0  7G26G25G12G10G29G05G02
  -5737639.24146  -4433975.93843  23756269.8834                   23756270.3954
 -16573348.867 8 -12900552.807 7  21607989.719
 -16562141.827 7 -12892175.580 7  21597757.828
  -5903178.08746  -4556495.16643  23478816.1174                   23478816.6454
 -12106862.952 7  -9420588.047 7  22388429.313
 -22965538.018 8 -17880614.133 8  20379952.594
 -16049606.05448 -12459400.33546  21619113.0394                   21619110.3164
 11  7 29  3 47 30.0000000  0  7G26G25G12G10G29G05G02
  -5834387.48346  -4509364.12843  23737859.0164                   23737859.3714
 -16568851.499 8 -12897048.362 7  21608845.836
 -16495440.406 7 -12840200.456 7  21610450.953
  -5799694.93347  -4475858.96744  23498510.2194                   23498509.2114
 -12186965.656 7  -9483005.751 7  22373185.992
 -22940672.140 8 -17861238.113 8  20384684.641
 -16008800.71848 -12427603.96146  21626877.6094                   21626874.9024
 11  7 29  3 48  0.0000000  0  7G26G25G12G10G29G05G02
  -5931073.02446  -4584703.46044  23719460.5314                   23719460.8914
 -16563777.248 8 -12893094.391 7  21609811.438
 -16428329.611 7 -12787906.337 7  21623221.688
  -5696039.08947  -4395088.17543  23518234.2974                   23518233.7974
 -12266963.149 7  -9545341.474 7  22357962.852
 -22915285.968 8 -17841456.668 8  20389515.438
 -15967894.93648 -12395729.32046  21634661.9224                   21634659.5004
 11  7 29  3 48 30.0000000  0  7G26G25G12G10G29G05G02
  -6027692.72447  -4659991.51444  23701074.7424                   23701074.9694
 -16558126.836 8 -12888691.451 7  21610886.547
 -16360811.656 7 -12735294.938 7  21636069.602
  -5592213.00646  -4314184.74643  23537991.3754                   23537991.4104
 -12346853.728 7  -9607593.882 7  22342760.617
 -22889381.602 8 -17821271.444 8  20394444.578
 -15926889.62948 -12363777.12546  21642465.0474                   21642462.3714
 11  7 29  3 49  0.0000000  0  7G26G25G12G10G29G05G02
  -6124242.75946  -4735225.24743  23682701.5634                   23682701.7584
 -16551900.765 8 -12883839.981 7  21612071.023
 -16292889.610 7 -12682368.669 7  21648995.133
  -5488219.55047  -4233150.89243  23557780.6954                   23557780.4184
 -12426635.193 7  -9669761.263 7  22327577.813
 -22862960.321 8 -17800683.432 8  20399472.422
 -15885784.28048 -12331746.96946  21650286.5084                   21650284.1914
 11  7 29  3 49 30.0000000  0  8G26G25G12G10G29G15G05G02
  -6220719.94547  -4810402.22243  23664342.3834                   23664342.3244
 -16545099.885 8 -12878540.588 7  21613365.297
 -16224566.230 7 -12629129.676 7  21661996.500
  -5384061.57847  -4151988.83743  23577602.2034                   23577601.4574
 -12506305.731 7  -9731842.214 7  22312417.430
    401059.08416                  24639654.727
 -22836024.188 7 -17779694.221 8  20404598.125
 -15844579.38347 -12299639.25746  21658128.1724                   21658125.3874
 11  7 29  3 50  0.0000000  0  8G26G25G12G10G29G15G05G02
  -6317118.97547  -4885518.32043  23645998.0704                   23645998.3244
 -16537723.295 8 -12872792.590 7  21614769.305
 -16155842.377 7 -12575578.618 7  21675074.305
  -5279740.23647  -4070699.45043  23597453.1644                   23597453.1724
 -12585861.988 7  -9793834.102 7  22297278.383
    306087.307 6    251600.38516  24621582.813
 -22808573.045 7 -17758303.717 8  20409822.055
 -15803273.66648 -12267452.97146  21665988.0314                   21665985.5004
 11  7 29  3 50 30.0000000  0  8G26G25G12G10G29G15G05G02
  -6413440.08447  -4960573.67743  23627668.8834                   23627669.0594
 -16529775.193 8 -12866599.265 7  21616281.508
 -16086724.403 8 -12521720.450 7  21688226.625
  -5175261.79146  -3989287.71443  23617334.1804                   23617335.0124
 -12665305.751 7  -9855738.319 7  22282160.859
    210992.936 6    177500.965 6  24603487.070
 -22780612.077 8 -17736515.946 8  20415142.703
 -15761870.53347 -12235190.78346  21673867.0784                   21673864.3794
 11  7 29  3 51  0.0000000  0  8G26G25G12G10G29G15G05G02
  -6509676.31947  -5035562.91844  23609354.8284                   23609355.4264
 -16521252.892 8 -12859958.506 7  21617903.516
 -16017211.343 7 -12467554.427 7  21701454.969
  -5070625.65846  -3907753.07243  23637247.0004                   23637245.9654
 -12744631.327 7  -9917550.444 7  22267065.336
    115782.007 6    103310.695 6  24585369.023
 -22752139.301 8 -17714329.348 8  20420560.945
 -15720366.84747 -12202850.24646  21681764.7504                   21681762.3404
 11  7 29  3 51 30.0000000  0  8G26G25G12G10G29G15G05G02
  -6605826.90747  -5110485.40743  23591058.6024                   23591058.5944
 -16512160.122 8 -12852873.230 7  21619633.758
 -15947308.891 8 -12413084.985 7  21714756.469
  -4965837.09246  -3826099.61243  23657186.4064                   23657186.3754
 -12823839.874 7  -9979271.368 7  22251992.453
     20453.864 6     29029.123 6  24567228.617
 -22723159.461 8 -17691747.653 8  20426075.844
 -15678765.58147 -12170433.66146  21689681.3364                   21689678.3754
 11  7 29  3 52  0.0000000  0  8G26G25G12G10G29G15G05G02
  -6701886.16047  -5185336.74343  23572778.6724                   23572778.9414
 -16502495.370 8 -12845342.261 7  21621472.977
 -15877017.366 8 -12358312.378 7  21728132.734
  -4860896.65146  -3744327.87243  23677155.6954                   23677156.2624
 -12902926.954 7 -10040897.652 7  22236942.688
    -74986.627 6    -45340.014 6  24549065.664
 -22693672.285 8 -17668770.622 8  20431687.313
 -15637064.71147 -12137939.48446  21697616.9384                   21697614.4844
 11  7 29  3 52 30.0000000  0  8G26G25G12G10G29G15G05G02
  -6797851.16646  -5260114.64943  23554516.9614                   23554517.2814
 -16492260.007 8 -12837366.653 7  21623420.852
 -15806340.151 8 -12303239.228 7  21741582.125
  -4755807.54446  -3662440.31343  23697154.1174                   23697154.0394
 -12981891.132 7 -10102428.146 7  22221916.391
   -170537.217 6   -119794.954 6  24530883.836
 -22663679.453 8 -17645399.570 8  20437394.445
 -15595264.91348 -12105368.21246  21705571.0314                   21705568.1174
 11  7 29  3 53  0.0000000  0  8G26G25G12G10G29G15G05G02
  -6893719.60947  -5334817.26843  23536274.0784                   23536274.2774
 -16481456.364 8 -12828948.241 7  21625476.164
 -15735281.240 8 -12247868.652 7  21755104.203
  -4650573.82746  -3580439.99643  23717179.5634                   23717179.3364
 -13060731.922 7 -10163862.507 7  22206913.813
   -266197.111 6   -194335.032 5  24512680.391
 -22633184.763 8 -17621637.461 8  20443197.211
 -15553368.04548 -12072721.29346  21713543.6644                   21713540.7894
 11  7 29  3 53 30.0000000  0  8G26G25G12G10G29G15G05G02
  -6989486.65047  -5409440.89743  23518050.0164                   23518050.6094
 -16470083.667 8 -12820086.385 7  21627640.625
 -15663842.138 8 -12192201.813 7  21768698.609
  -4545196.54346  -3498327.85343  23737232.3754                   23737232.1024
 -13139445.876 7 -10225198.032 7  22191934.758
   -361961.935 6   -268956.996 6  24494456.727
 -22602187.976 8 -17597484.117 8  20449095.859
 -15511372.34648 -12039997.36446  21721535.2034                   21721532.6134
 11  7 29  3 54  0.0000000  0  8G26G25G12G10G29G15G05G02
  -7085149.50246  -5483983.32343  23499846.3524                   23499846.8714
 -16458143.788 8 -12810782.596 7  21629912.453
 -15592026.474 8 -12136241.552 7  21782365.133
  -4439679.24746  -3416106.58243  23757311.2584                   23757311.6564
 -13218031.868 7 -10286433.850 7  22176980.180
   -457830.086 6   -343659.331 5  24476213.258
 -22570691.782 7 -17572941.612 8  20455089.289
 -15469278.88748 -12007197.26946  21729545.6414                   21729542.4184
 11  7 29  3 54 30.0000000  0  8G26G25G12G10G29G15G05G02
  -7180703.53147  -5558440.96044  23481662.7894                   23481663.4844
 -16445636.504 8 -12801036.662 7  21632292.555
 -15519835.651 8 -12079988.963 7  21796102.109
  -4334023.57946  -3333777.50043  23777417.2584                   23777416.6054
 -13296486.791 7 -10347567.543 7  22162050.820
   -553797.658 6   -418439.184 6  24457951.805
 -22538696.889 8 -17548010.520 8  20461177.883
 -15427086.59348 -11974320.15945  21737574.1724                   21737571.2384
 11  7 29  3 55  0.0000000  0  8G26G25G12G10G29G15G05G02
  -7276146.13147  -5632811.76843  23463501.1644                   23463501.2194
 -16432563.656 8 -12790850.029 7  21634780.492
 -15447273.491 8 -12023447.028 7  21809910.328
  -4228233.04046  -3251343.33644  23797548.7974                   23797547.8794
 -13374809.239 7 -10408597.986 7  22147146.781
   -649863.435 6   -493295.567 6  24439671.023
 -22506205.932 8 -17522692.874 8  20467360.469
 -15384796.61048 -11941366.91745  21745621.6334                   21745619.0314
 11  7 29  3 55 30.0000000  0  8G26G25G12G10G29G15G05G02
  -7371473.39747  -5707092.72244  23445360.2344                   23445360.9104
 -16418926.004 8 -12780223.280 7  21637375.258
 -15374342.336 8 -11966617.559 7  21823788.398
  -4122310.07246  -3168805.98944  23817705.4304                   23817705.4414
 -13452997.110 7 -10469523.581 7  22132267.484
   -746024.041 6   -568225.801 6  24421371.742
 -22473220.553 7 -17496989.972 8  20473637.242
 -15342408.53848 -11908337.23745  21753687.7894                   21753684.6764
 11  7 29  3 56  0.0000000  0  8G26G25G12G10G29G15G05G02
  -7466681.85747  -5781281.09944  23427242.9224                   23427243.6684
 -16404724.625 8 -12769157.261 7  21640077.875
 -15301045.184 7 -11909502.905 7  21837736.555
  -4016257.43746  -3086167.57343  23837886.4304                   23837885.6914
 -13531048.679 7 -10530342.960 7  22117415.016
   -842277.323 6   -643228.322 5  24403056.094
 -22439742.820 7 -17470903.416 8  20480008.148
 -15299922.71847 -11875231.38345  21761772.5864                   21761769.6954
 11  7 29  3 56 30.0000000  0  8G26G25G12G10G29G15G05G02
  -7561767.51947  -5855373.75844  23409148.9534                   23409149.6094
 -16389960.114 8 -12757652.450 7  21642887.477
 -15227384.336 7 -11852104.856 7  21851753.633
  -3910077.23146  -3003429.70243  23858091.0634                   23858091.4344
 -13608961.518 7 -10591054.239 7  22102589.031
   -938620.093 6   -718300.486 6  24384721.680
 -22405773.996 8 -17444434.204 8  20486472.188
 -15257339.23547 -11842049.45145  21769875.9534                   21769873.1764
 11  7 29  3 57  0.0000000  0  8G26G25G12G10G29G15G05G02
  -7656728.37547  -5929369.18744  23391078.7274                   23391078.7194
 -16374635.159 8 -12745710.919 7  21645803.805
 -15153364.394 7 -11794426.988 7  21865839.125
  -3803773.66646  -2920595.75043  23878320.1724                   23878320.4264
 -13686734.850 7 -10651656.813 7  22087789.258
  -1035051.249 6   -793441.594 6  24366372.703
 -22371317.421 8 -17417584.923 8  20493029.078
 -15214659.34047 -11808792.38345  21777997.9144                   21777994.8954
 11  7 29  3 57 30.0000000  0  8G26G25G12G10G29G15G05G02
  -7751558.20647  -6003262.52144  23373032.9924                   23373033.5634
 -16358747.941 8 -12733331.262 7  21648826.828
 -15078985.125 7 -11736469.109 7  21879993.477
  -3697346.48446  -2837665.45743  23898572.2814                   23898572.7704
 -13764363.967 7 -10712147.013 7  22073016.789
  -1131565.504 6   -868647.472 6  24348006.219
 -22336372.386 8 -17390355.015 8  20499678.633
 -15171880.10447 -11775457.91045  21786138.4064                   21786135.7854
 11  7 29  3 58  0.0000000  0  8G26G25G12G10G29G15G05G02
  -7846255.84047  -6077052.81644  23355012.5474                   23355012.3094
 -16342302.234 8 -12720516.400 7  21651956.344
 -15004252.174 7 -11678235.635 7  21894214.648
  -3590800.87046  -2754642.91543  23918847.1484                   23918847.7504
 -13841849.589 7 -10772525.394 7  22058271.469
  -1228162.939 6   -943918.164 6  24329624.141
 -22300943.097 8 -17362747.770 8  20506420.977
 -15129004.57348 -11742048.40045  21794297.3054                   21794294.3324
 11  7 29  3 58 30.0000000  0  8G26G25G12G10G29G15G05G02
  -7940815.21047  -6150735.40944  23337018.8444                   23337018.5664
 -16325296.743 8 -12707265.349 7  21655192.508
 -14929165.646 7 -11619726.661 7  21908503.313
  -3484136.79546  -2671528.02642  23939145.3754                   23939144.9844
 -13919187.037 7 -10832788.307 7  22043554.961
  -1324838.314 6  -1019249.551 5  24311227.383
 -22265029.273 8 -17334762.964 8  20513254.953
 -15086030.31148 -11708561.95645  21802475.0394                   21802472.3754
 11  7 29  3 59  0.0000000  0  8G26G25G12G10G29G15G05G02
  -8035234.89647  -6224309.15344  23319050.8284                   23319051.0554
 -16307734.650 8 -12693580.602 7  21658534.680
 -14853730.621 7 -11560946.134 7  21922857.953
  -3377359.51846  -2588324.91043  23959465.0704                   23959464.2974
 -13996376.217 7 -10892935.689 7  22028866.102
  -1421590.809 6  -1094641.039 6  24292815.953
 -22228634.802 8 -17306403.629 8  20520180.438
 -15042959.44447 -11675000.23445  21810670.9304                   21810668.1294
 11  7 29  3 59 30.0000000  0  8G26G25G12G10G29G15G05G02
  -8129511.89247  -6297771.71244  23301110.4924                   23301110.3954
 -16289617.830 8 -12679463.569 7  21661981.875
 -14777950.720 7 -11501896.866 7  21937278.352
  -3270471.63346  -2505035.57543  23979804.1484                   23979803.9104
 -14073415.960 8 -10952966.626 7  22014206.078
  -1518418.603 6  -1170091.230 6  24274389.859
 -22191762.156 8 -17277671.692 8  20527197.156
 -14999792.62948 -11641363.75545  21818885.2814                   21818882.8914
 11  7 29  4  0  0.0000000  0  8G26G25G12G10G29G15G05G02
  -8223640.18647  -6371118.38844  23283198.6564                   23283199.1484
 -16270944.906 8 -12664913.222 7  21665535.305
 -14701826.140 7 -11442579.024 7  21951764.438
  -3163473.33646  -2421660.28543  24000163.9064                   24000165.4494
 -14150301.502 8 -11012877.405 7  21999575.180
  -1615316.300 6  -1245595.889 6  24255950.656
 -22154411.057 8 -17248566.932 8  20534304.828
 -14956527.08548 -11607650.34145  21827118.5864                   21827116.2034
 11  7 29  4  0 30.0000000  0  8G26G25G12G10G29G15G05G02
  -8317616.86047  -6444346.94544  23265315.1094                   23265315.5354
 -16251718.007 8 -12649931.213 7  21669193.953
 -14625360.568 7 -11382995.460 7  21966315.336
  -3056368.18946  -2338201.69143  24020546.2034                   24020546.4804
 -14227031.780 8 -11072667.198 7  21984973.602
  -1712282.283 6  -1321153.715 6  24237499.047
 -22116584.080 8 -17219091.362 8  20541503.219
 -14913164.30948 -11573861.16345  21835370.4924                   21835367.6054
 11  7 29  4  1  0.0000000  0  8G26G25G12G10G29G15G05G02
  -8411439.08747  -6517455.15444  23247461.8204                   23247461.8874
 -16231939.142 8 -12634519.100 7  21672957.930
 -14548557.449 7 -11323148.899 7  21980930.219
  -2949159.67946  -2254662.59443  24040947.8204                   24040947.9844
 -14303605.357 8 -11132334.877 7  21970401.719
  -1809314.504 6  -1396763.222 6  24219034.703
 -22078284.003 8 -17189247.138 8  20548791.531
 -14869704.87248 -11539996.66245  21843640.8204                   21843637.8674
 11  7 29  4  1 30.0000000  0  8G26G25G12G10G29G15G05G02
  -8505102.51647  -6590439.60944  23229637.7734                   23229638.0864
 -16211608.988 8 -12618677.417 7  21676826.164
 -14471419.562 7 -11263041.466 7  21995609.133
  -2841849.29246  -2171044.09243  24061368.7424                   24061368.5824
 -14380019.327 8 -11191878.191 7  21955860.508
  -1906410.033 6  -1472422.047 6  24200557.797
 -22039512.652 8 -17159035.689 8  20556169.344
 -14826148.09948 -11506056.31045  21851929.3524                   21851925.9414
 11  7 29  4  2  0.0000000  0  8G26G25G12G10G29G15G05G02
  -8598603.75947  -6663297.69643  23211845.3594                   23211845.3164
 -16190728.963 8 -12602407.256 7  21680799.469
 -14393949.718 7 -11202675.368 7  22010351.234
  -2734439.77746  -2087348.29943  24081807.6564                   24081808.0514
 -14456271.836 8 -11251295.683 7  21941350.664
  -2003565.940 6  -1548127.896 6  24182069.750
 -22000271.168 8 -17128457.901 8  20563636.523
 -14782494.22348 -11472040.30545  21860236.1644                   21860233.7194
 11  7 29  4  2 30.0000000  0  8G26G25G12G10G29G15G05G02
  -8691939.95847  -6736027.18544  23194083.7504                   23194084.2734
 -16169301.083 8 -12585710.214 7  21684877.273
 -14316151.422 7 -11142053.332 7  22025155.867
  -2626934.51546  -2003577.88743  24102265.2344                   24102264.8634
 -14532361.545 7 -11310586.316 7  21926871.320
  -2100780.086 6  -1623879.126 6  24163570.531
 -21960562.781 8 -17097516.296 8  20571192.813
 -14738743.69348 -11437948.99745  21868561.5234                   21868558.9064
 11  7 29  4  3  0.0000000  0  8G26G25G12G10G29G15G05G02
  -8785105.54047  -6808623.73244  23176355.0864                   23176355.0704
 -16147324.976 8 -12568585.968 7  21689059.148
 -14238025.867 7 -11081176.303 7  22040022.695
  -2519334.24846  -1919733.45143  24122740.9304                   24122740.7774
 -14608284.844 8 -11369747.289 7  21912423.773
  -2198047.936 6  -1699672.207 6  24145060.414
 -21920387.770 8 -17066211.079 8  20578838.000
 -14694895.14248 -11403781.28945  21876906.0474                   21876902.7624
 11  7 29  4  3 30.0000000  0  8G26G25G12G10G29G15G05G02
  -8878098.91047  -6881086.08444  23158658.9304                   23158659.4224
 -16124803.943 8 -12551037.108 7  21693344.906
 -14159577.924 7 -11020048.018 7  22054951.203
  -2411643.34446  -1835818.42143  24143233.1804                   24143233.6294
 -14684040.887 8 -11428777.934 7  21898007.305
  -2295368.759 6  -1775506.560 6  24126541.195
 -21879750.347 8 -17034545.542 8  20586570.797
 -14650950.30148 -11369538.55945  21885267.8594                   21885265.0274
 11  7 29  4  4  0.0000000  0  8G26G25G12G10G29G15G05G02
  -8970914.64947  -6953410.00244  23140996.2424                   23140996.7154
 -16101737.516 8 -12533063.279 7  21697734.391
 -14080808.767 7 -10958669.482 7  22069940.070
  -2303862.47246  -1751833.30743  24163743.6254                   24163743.1764
 -14759626.186 7 -11487675.538 7  21883624.000
  -2392738.248 6  -1851378.839 6  24108012.102
 -21838650.513 8 -17002519.690 8  20594391.961
 -14606907.57648 -11335219.55345  21893648.9534                   21893646.0164
 11  7 29  4  4 30.0000000  0  8G26G25G12G10G29G15G05G02
  -9063551.14147  -7025594.26244  23123368.3594                   23123368.8094
 -16078129.226 8 -12514667.198 7  21702226.984
 -14001723.334 8 -10897044.462 7  22084989.547
  -2195996.17846  -1667781.59943  24184268.9614                   24184269.9884
 -14835040.748 8 -11546440.101 7  21869273.398
  -2490155.774 6  -1927288.527 6  24089474.211
 -21797092.336 8 -16970136.682 8  20602300.273
 -14562768.69648 -11300825.61145  21902048.5864                   21902045.7074
 11  7 29  4  5  0.0000000  0  8G26G25G12G10G29G15G05G02
  -9156002.41747  -7097634.18244  23105775.1094                   23105775.7304
 -16053978.190 8 -12495848.198 7  21706822.578
 -13922322.402 8 -10835173.593 7  22100098.898
  -2088044.44146  -1583663.35743  24204811.3364                   24204812.6484
 -14910279.815 7 -11605067.914 7  21854955.344
  -2587616.034 6  -2003231.540 6  24070928.477
 -21755075.421 8 -16937396.218 8  20610295.648
 -14518531.44648 -11266355.02645  21910466.2974                   21910463.7774
 11  7 29  4  5 30.0000000  0  9G26G25G12G10G29G15G05G21G02
  -9248266.75847  -7169528.46744  23088218.5084                   23088218.5634
 -16029287.892 8 -12476609.010 7  21711521.008
 -13842610.549 7 -10773060.451 7  22115267.703
  -1980011.87446  -1499482.09843  24225370.5314                   24225369.6954
 -14985343.463 7 -11663559.041 7  21840671.742
  -2685118.051 6  -2079207.032 6  24052374.219
 -21712604.061 8 -16904301.648 8  20618377.969
    -25673.16516                  25180096.219
 -14474197.92848 -11231809.43245  21918902.9694                   21918900.3284
 11  7 29  4  6  0.0000000  0  9G26G25G12G10G29G15G05G21G02
  -9340339.66047  -7241273.57244  23070697.7114                   23070697.6914
 -16004058.963 8 -12456950.106 7  21716321.859
 -13762589.667 8 -10710706.524 7  22130495.313
  -1871899.99946  -1415239.02043  24245942.8054                   24245943.4104
 -15060228.587 7 -11721911.050 7  21826421.242
  -2782658.529 6  -2155212.543 6  24033812.367
 -21669679.557 8 -16870853.964 8  20626546.234
    -84615.93746     47327.49452  25168879.7584                   25168880.8634
 -14429767.22947 -11197188.09745  21927357.7734                   21927354.9494
 11  7 29  4  6 30.0000000  0  9G26G25G12G10G29G15G05G21G02
  -9432217.82247  -7312866.92144  23053214.1254                   23053214.1254
 -15978293.486 8 -12436873.113 7  21721224.852
 -13682263.777 8 -10648114.915 7  22145780.289
  -1763712.18846  -1330936.90243  24266530.3594                   24266530.9884
 -15134933.517 7 -11780122.659 7  21812205.430
  -2880235.308 6  -2231246.344 6  24015244.391
 -21626304.614 8 -16837055.294 8  20634799.836
   -143545.03846      1408.79742  25157666.4064                   25157667.5824
 -14385239.89348 -11162491.46645  21935830.8754                   21935828.4144
 11  7 29  4  7  0.0000000  0  9G26G25G12G10G29G15G05G21G02
  -9523896.60047  -7384304.92044  23035767.8204                   23035767.9844
 -15951991.686 8 -12416378.205 7  21726230.102
 -13601634.733 8 -10585287.089 7  22161124.016
  -1655449.20146  -1246576.11543  24287131.9224                   24287132.5274
 -15209454.797 7 -11838191.163 7  21798024.430
  -2977844.085 7  -2307305.069 6  23996670.273
 -21582479.855 8 -16802906.124 7  20643139.859
   -202459.74646    -44498.69742  25146454.9064                   25146456.9924
 -14340614.47848 -11127718.41445  21944322.6564                   21944320.2774
 11  7 29  4  7 30.0000000  0  9G26G25G12G10G29G15G05G21G02
  -9615373.26147  -7455585.39644  23018360.6094                   23018360.1604
 -15925156.128 8 -12395467.390 7  21731336.664
 -13520706.173 8 -10522225.860 7  22176524.086
  -1547114.69945  -1162159.58542  24307747.4304                   24307748.0554
 -15283791.169 7 -11896115.579 7  21783878.625
  -3075482.935 7  -2383387.272 6  23978090.164
 -21538208.445 8 -16768408.913 7  20651564.086
   -261361.49046    -90396.04142  25135246.3594                   25135247.4654
 -14295891.99048 -11092869.70145  21952833.3054                   21952830.7154
 11  7 29  4  8  0.0000000  0  9G26G25G12G10G29G15G05G21G02
  -9706644.33347  -7526705.70244  23000991.6954                   23000992.3524
 -15897788.566 8 -12374142.014 7  21736544.555
 -13439481.409 8 -10458933.834 7  22191980.586
  -1438711.20346  -1077689.32843  24328375.4844                   24328376.7664
 -15357940.513 8 -11953894.265 7  21769768.633
  -3173149.567 7  -2459491.046 6  23959504.516
 -21493492.685 8 -16733565.458 8  20660073.266
   -320250.83145   -136283.77242  25124039.1094                   25124041.4804
 -14251072.65147 -11057945.53445  21961362.0864                   21961359.7504
 11  7 29  4  8 30.0000000  0  9G26G25G12G10G29G15G05G21G02
  -9797705.04747  -7597662.06844  22983663.3834                   22983663.9734
 -15869889.941 8 -12352402.835 7  21741853.508
 -13357962.541 8 -10395412.645 7  22207493.297
  -1330240.34946   -993166.55942  24349017.7034                   24349017.4494
 -15431900.355 8 -12011525.280 7  21755694.422
  -3270840.175 6  -2535613.535 6  23940914.492
 -21448334.212 8 -16698377.031 8  20668666.672
   -379127.99745   -182161.98642  25112835.7274                   25112837.0124
 -14206155.52648 -11022945.15745  21969909.4064                   21969906.6294
 11  7 29  4  9  0.0000000  0  9G26G25G12G10G29G15G05G21G02
  -9888552.17447  -7668451.99644  22966376.1804                   22966376.3984
 -15841461.816 8 -12330251.053 7  21747263.102
 -13276152.475 8 -10331664.523 7  22223060.867
  -1221704.51746   -908593.25443  24369670.5704                   24369671.2384
 -15505668.464 8 -12069006.902 7  21741656.750
  -3368552.015 6  -2611752.551 6  23922319.992
 -21402734.965 8 -16662845.148 8  20677343.961
   -437993.16545   -228030.79642  25101633.8674                   25101635.9184
 -14161140.63648 -10987868.61445  21978475.7584                   21978472.7154
 11  7 29  4  9 30.0000000  0  9G26G25G12G10G29G15G05G21G02
  -9979182.42247  -7739072.92544  22949129.6724                   22949129.7934
 -15812506.389 8 -12307688.383 7  21752773.398
 -13194054.748 8 -10267692.269 7  22238683.414
  -1113106.72546   -823971.67743  24390336.7114                   24390336.9534
 -15579242.885 8 -12126337.589 7  21727656.086
  -3466282.949 6  -2687906.476 6  23903722.875
 -21356697.864 8 -16626972.078 8  20686104.383
   -496847.25145   -273891.01942  25090435.0084                   25090436.5594
 -14116028.54247 -10952716.31945  21987060.1954                   21987057.0044
 11  7 29  4 10  0.0000000  0  9G26G25G12G10G29G15G05G21G02
 -10069592.23547  -7809522.10544  22931924.9454                   22931925.0554
 -15783025.488 8 -12284716.255 7  21758383.492
 -13111672.730 8 -10203498.485 7  22254360.289
  -1004449.51146   -739303.72343  24411013.5084                   24411013.3834
 -15652621.496 8 -12183515.705 7  21713692.680
  -3564030.158 7  -2764073.059 6  23885122.039
 -21310225.045 8 -16590759.481 7  20694947.852
   -555690.98645   -319743.10642  25079236.1804                   25079238.7544
 -14070819.37847 -10917488.40345  21995663.2734                   21995660.0864
 11  7 29  4 10 30.0000000  0  9G26G25G12G10G29G15G05G21G02
 -10159777.31547  -7879796.14144  22914763.5084                   22914763.9104
 -15753020.247 8 -12261335.559 7  21764093.094
 -13029008.698 8 -10139084.941 7  22270090.836
   -895734.55246   -654590.81743  24431702.0944                   24431701.5124
 -15725801.809 8 -12240539.295 7  21699766.828
  -3661790.147 7  -2840249.612 6  23866519.250
 -21263317.999 8 -16554208.523 8  20703874.297
   -614524.41646   -365587.21842  25068041.3834                   25068042.0274
 -14025512.36748 -10882184.22145  22004285.0234                   22004281.9654
 11  7 29  4 11  0.0000000  0  9G26G25G12G10G29G15G05G21G02
 -10249735.15147  -7949893.11844  22897645.1804                   22897645.2344
 -15722493.522 8 -12237548.513 7  21769902.078
 -12946066.848 8 -10074454.939 7  22285873.914
   -786965.40147   -569835.68244  24452400.3914                   24452399.3554
 -15798782.701 7 -12297407.500 7  21685879.383
  -3759561.218 6  -2916434.820 6  23847913.805
 -21215980.256 8 -16517321.967 7  20712882.055
   -673349.20346   -411424.55742  25056847.1644                   25056847.7074
 -13980108.42347 -10846804.51845  22012924.9774                   22012921.9064
 11  7 29  4 11 30.0000000  0  9G26G25G12G10G29G15G05G21G02
 -10339459.74947  -8019808.33644  22880570.8284                   22880570.6604
 -15691444.669 8 -12213354.603 7  21775810.328
 -12862847.823 7 -10009608.946 7  22301710.063
   -678142.02446   -485038.32743  24473109.5164                   24473107.9064
 -15871559.596 7 -12354116.738 7  21672030.094
  -3857338.297 6  -2992624.681 6  23829307.250
 -21168211.574 8 -16480099.608 8  20721972.156
   -732163.47546   -457253.72343  25045654.0704                   25045655.4454
 -13934605.18247 -10811347.44945  22021583.8284                   22021580.9844
 11  7 29  4 12  0.0000000  0  9G26G25G12G10G29G15G05G21G02
 -10428949.48247  -8089540.56144  22863541.3364                   22863541.6604
 -15659877.830 7 -12188757.090 7  21781817.406
 -12779356.572 8  -9944550.840 7  22317598.383
   -569269.08646   -400202.33943  24493825.1484                   24493825.8594
 -15944132.421 7 -12410666.961 7  21658219.813
  -3955120.607 6  -3068818.579 6  23810699.789
 -21120016.403 8 -16442544.926 7  20731143.352
   -790970.02146   -503076.92443  25034464.3594                   25034464.9734
 -13889004.88247 -10775814.73945  22030261.1644                   22030258.5554
 11  7 29  4 12 30.0000000  0  9G26G25G12G10G29G15G05G21G02
 -10518199.06947  -8159085.65844  22846558.0864                   22846557.6804
 -15627792.754 8 -12163755.729 7  21787923.289
 -12695594.952 8  -9879282.051 7  22333537.070
   -460347.11046   -315328.13643  24514551.9534                   24514553.2664
 -16016497.123 8 -12467055.001 7  21644448.797
  -4052903.654 6  -3145013.057 6  23792091.953
 -21071395.328 8 -16404658.364 8  20740395.648
   -849767.47346   -548892.98343  25023275.4454                   25023276.0474
 -13843305.73447 -10740205.01545  22038957.6484                   22038954.7234
 11  7 29  4 13  0.0000000  0  9G26G25G12G10G29G15G05G21G02
 -10607206.55947  -8228442.10244  22829620.5474                   22829620.3094
 -15595193.154 7 -12138353.455 7  21794126.688
 -12611567.331 7  -9813805.989 7  22349527.281
   -351380.30746   -230419.08243  24535289.2274                   24535289.1724
 -16088653.039 7 -12523280.351 7  21630718.359
  -4150686.149 6  -3221207.160 6  23773483.984
 -21022352.300 8 -16366443.018 7  20749728.523
   -908558.21246   -594703.81243  25012087.4614                   25012088.4304
 -13797509.23048 -10704519.43045  22047672.5004                   22047669.7464
